[[{"header":{"parameterUnit":"m.s-1","parameterCategory":1,"la1":31.0,"la2":29.5877,"lo1":-88.7671,"lo2":-86.6584,"dy":0.0162,"dx":0.0185,"nx":115,"ny":88,"refTime":"2024-04-10T06:00:00:Z","depth":0,"parameterNumber":2,"parameterNumberName":"U-component_of_WINDS"},"data":[0.0,0.0,0.0,0.0,0.0,0.0,0.0,0.0,0.0,0.0,0.0,0.0,0.0,0.0,0.0,0.0,0.0,0.0,0.0,0.0,0.0,0.0,0.0,0.0,0.0,0.0,0.0,0.0,0.0,0.0,0.0,0.0,0.0,0.0,0.0,0.0,0.0,0.0,0.0,0.0,0.0,0.0,0.0,0.0,0.0,0.0,0.0,0.0,0.0,0.0,0.0,0.0,0.0,0.0,0.0,0.0,0.0,0.0,0.0,0.0,0.0,0.0,0.0,0.0,0.0,0.0,0.0,0.0,0.0,0.0,0.0,0.0,0.0,0.0,0.0,0.0,0.0,0.0,0.0,0.0,0.0,0.0,0.0,0.0,0.0,0.0,0.0,0.0,0.0,0.0,0.0,0.0,0.0,0.0,0.0,0.0,0.0,0.0,0.0,0.0,0.0,0.0,0.0,0.0,0.0,0.0,0.0,0.0,0.0,0.0,0.0,0.0,0.0,0.0,0.0,0.0,0.0,0.0,0.0,0.0,0.0,0.0,0.0,0.0,0.0,0.0,0.0,0.0,0.0,0.0,0.0,0.0,0.0,0.0,0.0,0.0,0.0,0.0,0.0,0.0,0.0,0.0,0.0,0.0,0.0,0.0,0.0,0.0,0.0,0.0,0.0,0.0,0.0,0.0,0.0,0.0,0.0,0.0,0.0,0.0,0.0,0.0,0.0,0.0,0.0,0.0,0.0,0.0,0.0,0.0,0.0,0.0,0.0,0.0,0.0,0.0,0.0,0.0,0.0,0.0,0.0,0.0,0.0,0.0,0.0,0.0,0.0,0.0,0.0,0.0,0.0,0.0,0.0,0.0,0.0,0.0,0.0,0.0,0.0,0.0,0.0,0.0,0.0,0.0,0.0,0.0,0.0,0.0,0.0,0.0,0.0,0.0,0.0,0.0,0.0,0.0,0.0,0.0,0.0,0.0,0.0,0.0,0.0,0.0,0.0,0.0,0.0,0.0,0.0,0.0,0.0,0.0,0.0,0.0,0.0,0.0,0.0,0.0,0.0,0.0,0.0,0.0,0.0,0.0,0.0,0.0,0.0,0.0,0.0,0.0,0.0,0.0,0.0,0.0,0.0,0.0,0.0,0.0,0.0,0.0,0.0,0.0,0.0,0.0,0.0,0.0,0.0,0.0,0.0,0.0,0.0,0.0,0.0,0.0,0.0,0.0,0.0,0.0,0.0,0.0,0.0,0.0,0.0,0.0,0.0,0.0,0.0,0.0,0.0,0.0,0.0,0.0,0.0,0.0,0.0,0.0,0.0,0.0,0.0,0.0,0.0,0.0,0.0,0.0,0.0,0.0,0.0,0.0,0.0,0.0,0.0,0.0,0.0,0.0,0.0,0.0,0.0,0.0,0.0,0.0,0.0,0.0,0.0,0.0,0.0,0.0,0.0,0.0,0.0,0.0,0.0,0.0,0.0,0.0,0.0,0.0,0.0,0.0,0.0,0.0,0.0,0.0,0.0,0.0,0.0,0.0,0.0,0.0,0.0,0.0,0.0,0.0,0.0,0.0,0.0,0.0,0.0,0.0,0.0,0.0,0.0,0.0,0.0,0.0,0.0,0.0,0.0,0.0,0.0,0.0,0.0,0.0,0.0,0.0,0.0,0.0,0.0,0.0,0.0,0.0,0.0,0.0,0.0,0.0,0.0,0.0,0.0,0.0,0.0,0.0,0.0,0.0,0.0,0.0,0.0,0.0,0.0,0.0,0.0,0.0,0.0,0.0,0.0,0.0,0.0,0.0,0.0,0.0,0.0,0.0,0.0,0.0,0.0,0.0,0.0,0.0,0.0,0.0,0.0,0.0,0.0,0.0,0.0,0.0,0.0,0.0,0.0,0.0,0.0,0.0,0.0,0.0,0.0,0.0,0.0,0.0,0.0,0.0,0.0,0.0,0.0,0.0,0.0,0.0,0.0,0.0,0.0,0.0,0.0,0.0,0.0,0.0,0.0,0.0,0.0,0.0,0.0,0.0,0.0,0.0,0.0,0.0,0.0,0.0,0.0,0.0,0.0,0.0,0.0,0.0,0.0,0.0,0.0,0.0,0.0,0.0,0.0,0.0,0.0,0.0,0.0,0.0,0.0,0.0,0.0,0.0,0.0,0.0,0.0,0.0,0.0,0.0,0.0,0.0,0.0,0.0,0.0,0.0,0.0,0.0,0.0,0.0,0.0,0.0,0.0,0.0,0.0,0.0,0.0,0.0,0.0,0.0,0.0,0.0,0.0,0.0,0.0,0.0,0.0,0.0,0.0,0.0,0.0,0.0,0.0,0.0,0.0,0.0,0.0,0.0,0.0,0.0,0.0,0.0,0.0,0.0,0.0,0.0,0.0,0.0,0.0,0.0,0.0,0.0,0.0,0.0,0.0,0.0,0.0,0.0,0.0,0.0,0.0,0.0,0.0,0.0,0.0,0.0,0.0,0.0,0.0,0.0,0.0,0.0,0.0,0.0,0.0,0.0,0.0,0.0,0.0,0.0,0.0,0.0,0.0,0.0,0.0,0.0,0.0,0.0,0.0,0.0,0.0,0.0,0.0,0.0,0.0,0.0,0.0,0.0,0.0,0.0,0.0,0.0,0.0,0.0,0.0,0.0,0.0,0.0,0.0,0.0,0.0,0.0,0.0,0.0,0.0,0.0,0.0,0.0,0.0,0.0,0.0,0.0,0.0,0.0,0.0,0.0,0.0,0.0,0.0,0.0,0.0,0.0,0.0,0.0,0.0,0.0,0.0,0.0,0.0,0.0,0.0,0.0,0.0,0.0,0.0,0.0,0.0,0.0,0.0,0.0,0.0,0.0,0.0,0.0,0.0,0.0,0.0,0.0,0.0,0.0,0.0,0.0,0.0,0.0,0.0,0.0,0.0,0.0,0.0,0.0,0.0,0.0,0.0,0.0,0.0,0.0,0.0,0.0,0.0,0.0,0.0,0.0,0.0,0.0,0.0,0.0,0.0,0.0,0.0,0.0,0.0,0.0,0.0,0.0,0.0,0.0,0.0,0.0,0.0,0.0,0.0,0.0,0.0,0.0,0.0,0.0,0.0,0.0,0.0,0.0,0.0,0.0,0.0,0.0,0.0,0.0,0.0,0.0,0.0,0.0,0.0,0.0,0.0,0.0,0.0,0.0,0.0,0.0,0.0,0.0,0.0,0.0,0.0,0.0,0.0,0.0,0.0,0.0,0.0,0.0,0.0,0.0,0.0,0.0,0.0,0.0,0.0,0.0,0.0,0.0,0.0,0.0,0.0,0.0,0.0,0.0,0.0,0.0,0.0,0.0,0.0,0.0,0.0,0.0,0.0,0.0,0.0,0.0,0.0,0.0,0.0,0.0,0.0,0.0,0.0,0.0,0.0,0.0,0.0,0.0,0.0,0.0,0.0,0.0,0.0,0.0,0.0,0.0,0.0,0.0,0.0,0.0,0.0,0.0,0.0,0.0,0.0,0.0,0.0,0.0,0.0,0.0,0.0,0.0,0.0,0.0,0.0,0.0,0.0,0.0,0.0,0.0,0.0,0.0,0.0,0.0,0.0,0.0,0.0,0.0,0.0,0.0,0.0,0.0,0.0,0.0,0.0,0.0,0.0,0.0,0.0,0.0,0.0,0.0,0.0,0.0,0.0,0.0,0.0,0.0,0.0,0.0,0.0,0.0,0.0,0.0,0.0,0.0,0.0,0.0,0.0,0.0,0.0,0.0,0.0,0.0,0.0,0.0,0.0,0.0,0.0,0.0,0.0,0.0,0.0,0.0,0.0,0.0,0.0,0.0,0.0,0.0,0.0,0.0,0.0,0.0,0.0,0.0,0.0,0.0,0.0,0.0,0.0,0.0,0.0,0.0,0.0,0.0,0.0,0.0,0.0,0.0,0.0,0.0,0.0,0.0,0.0,0.0,0.0,0.0,0.0,0.0,0.0,0.0,0.0,0.0,0.0,0.0,0.0,0.0,0.0,0.0,0.0,0.0,0.0,0.0,0.0,0.0,0.0,0.0,0.0,0.0,0.0,0.0,0.0,0.0,0.0,0.0,0.0,0.0,0.0,0.0,0.0,0.0,0.0,0.0,0.0,0.0,0.0,0.0,0.0,0.0,0.0,0.0,0.0,0.0,0.0,0.0,0.0,0.0,0.0,0.0,0.0,0.0,0.0,0.0,0.0,0.0,0.0,0.0,0.0,0.0,0.0,0.0,0.0,0.0,0.0,0.0,0.0,0.0,0.0,0.0,0.0,0.0,0.9198,0.0,0.0,0.0,0.0,0.0,0.0,0.0,0.0,0.0,0.0,0.0,0.0,0.0,0.0,0.0,0.0,0.0,0.0,0.0,0.0,0.0,0.0,0.0,0.0,0.0,0.0,0.0,0.0,0.0,0.0,0.0,0.0,0.0,0.0,0.0,0.0,0.0,0.0,0.0,0.0,0.0,0.0,0.0,0.0,0.0,0.0,0.0,0.0,0.0,0.0,0.0,0.0,0.0,0.0,0.0,0.0,0.0,0.0,0.0,0.0,0.0,0.0,0.0,0.0,0.0,0.0,0.0,0.0,0.0,0.0,0.0,0.0,0.0,0.0,0.0,0.0,0.0,0.0,0.0,0.0,0.0,0.0,0.0,0.0,0.0,0.0,0.0,0.0,0.0,0.0,0.0,0.0,0.0,0.0,0.0,0.0,0.0,0.0,0.0,0.0,0.0,0.0,0.0,0.0,0.0,0.0,0.0,0.0,0.0,0.0,0.9677,0.9645,0.9591,0.9511,0.9418,0.0,0.0,0.0,0.0,0.0,0.0,0.0,0.0,0.0,0.0,0.0,0.0,0.0,0.0,0.0,0.0,0.0,0.0,0.0,0.0,0.0,0.0,0.0,0.0,0.0,0.0,0.0,0.0,0.0,0.0,0.0,0.0,0.0,0.0,0.0,0.0,0.0,0.0,0.0,0.0,0.0,0.0,0.0,0.0,0.0,0.0,0.0,0.0,0.0,0.0,0.0,0.0,0.0,0.0,0.0,0.0,0.0,0.0,0.0,0.0,0.0,0.0,0.0,0.0,0.0,0.0,0.0,0.0,0.0,0.0,0.0,0.0,0.0,0.0,0.0,0.0,0.0,0.0,0.0,0.0,0.0,0.0,0.0,0.0,0.0,0.0,0.0,0.0,0.0,0.0,0.0,0.0,0.0,0.0,0.0,0.0,0.0,0.0,0.0,0.0,0.0,0.0,0.0,0.0,0.0,0.0,0.0,0.0,0.0,0.0,0.0,0.0,0.9651,0.9604,0.9545,0.0,0.0,0.0,0.0,0.0,0.0,0.0,0.0,0.0,0.0,0.0,0.0,0.0,0.0,0.0,0.0,0.0,0.0,0.0,0.0,0.0,0.0,0.0,0.0,0.0,0.0,0.0,0.0,0.0,0.0,0.0,0.0,0.0,0.0,0.0,0.0,0.0,0.0,0.0,0.0,0.0,0.0,0.0,0.0,0.0,0.0,0.0,0.0,0.0,0.0,0.0,0.0,0.0,0.0,0.0,0.0,0.0,0.0,0.0,0.0,0.0,0.0,0.0,0.0,0.0,0.0,0.0,0.0,0.0,0.0,0.0,0.0,0.0,0.0,0.0,0.0,0.0,0.0,0.0,0.0,0.0,0.0,0.0,0.0,0.0,0.0,0.0,0.0,0.0,0.0,0.0,0.0,0.0,0.0,0.0,0.0,0.0,0.0,0.0,0.0,0.0,0.0,0.0,0.0,0.0,0.0,0.0,0.0,0.0,0.0,0.9854,0.9783,0.973,0.0,0.9353,0.0,0.0,0.0,0.0,0.0,0.0,0.0,0.0,0.0,0.0,0.0,0.0,0.0,0.0,0.0,0.0,0.0,0.0,0.0,0.0,0.0,0.0,0.0,0.0,0.0,0.0,0.0,0.0,0.0,0.0,0.0,0.0,0.0,0.0,0.0,0.0,0.0,0.0,0.0,0.0,0.0,0.0,0.0,0.0,0.0,0.0,0.0,0.0,0.0,0.0,0.0,0.0,0.0,0.0,0.0,0.0,0.0,0.0,0.0,0.0,0.0,0.0,0.0,0.0,0.0,0.0,0.0,0.0,0.0,0.0,0.0,0.0,0.0,0.0,0.0,0.0,0.0,0.0,0.0,0.0,0.0,0.0,0.0,0.0,0.0,0.0,0.0,0.0,0.0,0.0,0.0,0.0,0.0,0.0,0.0,0.0,0.0,0.0,0.0,0.0,0.0,0.0,0.0,0.0,0.0,0.0,0.0,0.0,0.0,0.0,0.9893,0.986,0.9723,0.9526,0.0,0.0,0.0,0.0,0.0,0.0,0.0,0.0,0.0,0.0,0.0,0.0,0.0,0.0,0.0,0.0,0.0,0.0,0.0,0.0,0.0,0.0,0.0,0.0,0.0,0.0,0.0,0.0,0.0,0.0,0.0,0.0,0.0,0.0,0.0,0.0,0.0,0.0,0.0,0.0,0.0,0.0,0.0,0.0,0.0,0.0,0.0,0.0,0.0,0.0,0.0,0.0,0.0,0.0,0.0,0.0,0.0,0.0,0.0,0.0,0.0,0.0,0.0,0.0,0.0,0.0,0.0,0.0,0.0,0.0,0.0,0.0,0.0,0.0,0.0,0.0,0.0,0.0,0.0,0.0,0.0,0.0,0.0,0.0,0.0,0.0,0.0,0.0,0.0,0.0,0.0,0.0,0.0,0.0,0.0,0.0,0.0,0.0,0.0,0.0,0.0,0.0,0.0,0.0,0.0,0.0,0.0,0.0,0.0,0.0,0.9912,0.9893,0.9847,0.9691,0.9506,0.9353,0.0,0.0,0.0,0.0,0.0,0.0,0.0,0.0,0.0,0.0,0.0,0.0,0.0,0.0,0.0,0.0,0.0,0.0,0.0,0.0,0.0,0.0,0.0,0.0,0.0,0.0,0.0,0.0,0.0,0.0,0.0,0.0,0.0,0.0,0.0,0.0,0.0,0.0,0.0,0.0,0.0,0.0,0.0,0.0,0.0,0.0,0.0,0.0,0.0,0.0,0.0,0.0,0.0,0.0,0.0,0.0,0.0,0.0,0.0,0.0,0.0,0.0,0.0,0.0,0.0,0.0,0.0,0.0,0.0,0.0,0.0,0.0,0.0,0.0,0.0,0.0,0.0,0.0,0.0,0.0,0.0,0.0,0.0,0.0,0.0,0.0,0.0,0.0,0.0,0.0,0.0,0.0,0.0,0.0,0.0,0.0,0.0,0.0,0.0,0.0,0.0,0.0,0.0,0.0,0.0,0.0,0.0,0.0,0.9918,0.9944,0.9905,0.9717,0.9638,0.9571,0.0,0.0,0.0,0.0,0.0,0.0,0.0,0.0,0.0,0.0,0.0,0.0,0.0,0.0,0.0,0.0,0.0,0.0,0.0,0.0,0.0,0.0,0.0,0.0,0.0,0.0,0.0,0.0,0.0,0.0,0.0,0.0,0.0,0.0,0.0,0.0,0.0,0.0,0.0,0.0,0.0,0.0,0.0,0.0,0.0,0.0,0.0,0.0,0.0,0.0,0.0,0.0,0.0,0.0,0.0,0.0,0.0,0.0,0.0,0.0,0.0,0.0,0.0,0.0,0.0,0.0,0.0,0.0,0.0,0.0,0.0,0.0,0.0,0.0,0.0,0.0,0.0,0.0,0.0,0.0,0.0,0.0,0.0,0.0,0.0,0.0,0.0,0.0,0.0,0.0,0.0,0.0,0.0,0.0,0.0,0.0,0.0,0.0,0.0,0.0,0.0,0.0,0.0,0.0,0.0,0.0,0.0,0.0,0.0,0.9944,0.9905,0.9841,0.9763,0.9658,0.9584,0.0,0.0,0.0,0.0,0.0,0.0,0.0,0.0,0.0,0.0,0.0,0.0,0.0,0.0,0.0,0.0,0.0,0.0,0.0,0.0,0.0,0.0,0.0,0.0,0.0,0.0,0.0,0.0,0.0,0.0,0.0,0.0,0.0,0.0,0.0,0.0,0.0,0.0,0.0,0.0,0.0,0.0,0.0,0.0,0.0,0.0,0.0,0.0,0.0,0.0,0.0,0.0,0.0,0.0,0.0,0.0,0.0,0.0,0.0,0.0,0.0,0.0,0.0,0.0,0.0,0.0,0.0,0.0,0.0,0.0,0.0,0.0,0.0,0.0,0.0,0.0,0.0,0.0,0.0,0.0,0.0,0.0,0.0,0.0,0.0,0.0,0.0,0.0,0.0,0.0,0.0,0.0,0.0,0.0,0.0,0.0,0.0,0.0,0.0,0.0,0.0,0.0,0.0,0.0,0.0,0.0,0.0,0.0,0.0,0.9989,0.0,0.9757,0.9757,0.9645,0.9584,0.0,0.0,0.0,0.0,0.0,0.0,0.0,0.0,0.0,0.0,0.0,0.0,0.0,0.0,0.0,0.0,0.0,0.0,0.0,0.0,0.0,0.0,0.0,0.0,0.0,0.0,0.0,0.0,0.0,0.0,0.0,0.0,0.0,0.0,0.0,0.0,0.0,0.0,0.0,0.0,0.0,0.0,0.0,0.0,0.0,0.0,0.0,0.0,0.0,0.0,0.0,0.0,0.0,0.0,0.0,0.0,0.0,0.0,0.0,0.0,0.0,0.0,0.0,0.0,0.0,0.0,0.0,0.0,0.0,0.0,0.0,0.0,0.0,0.0,0.0,0.0,0.0,0.0,0.0,0.0,0.0,0.0,0.0,0.0,0.0,0.0,0.0,0.0,0.0,0.0,0.0,0.0,0.0,0.0,0.0,0.0,0.0,0.0,0.0,0.0,0.0,0.0,0.0,0.0,0.0,0.0,0.0,0.0,1.0072,1.0014,0.9858,0.9783,0.9728,0.9692,0.9607,0.0,0.0,0.0,0.0,0.0,0.0,0.0,0.0,0.0,0.0,0.0,0.0,0.0,0.0,0.0,0.0,0.0,0.0,0.0,0.0,0.0,0.0,0.0,0.0,0.0,0.0,0.0,0.0,0.0,0.0,0.0,0.0,0.0,0.0,0.0,0.0,0.0,0.0,0.0,0.0,0.0,0.0,0.0,0.0,0.0,0.0,0.0,0.0,0.0,0.0,0.0,0.0,0.0,0.0,0.0,0.0,0.0,0.0,0.0,0.0,0.0,0.0,0.0,0.0,0.0,0.0,0.0,0.0,0.0,0.0,0.0,0.0,0.0,0.0,0.0,0.0,0.0,0.0,0.0,0.0,0.0,0.0,0.0,0.0,0.0,0.0,0.0,0.0,0.0,0.0,0.0,0.0,0.0,0.0,0.0,0.0,0.0,0.0,0.0,0.0,0.0,0.0,0.0,0.0,0.0,0.0,0.0,0.0,0.0,1.0365,1.0654,1.0795,1.078,1.069,1.0481,0.0,0.0,0.0,0.0,0.0,0.0,0.0,0.0,0.0,0.0,0.0,0.0,0.0,0.0,0.0,0.0,0.0,0.0,0.0,0.0,0.0,0.0,0.0,0.0,0.0,0.0,0.0,0.0,0.0,0.0,0.0,0.0,0.0,0.0,0.0,0.0,0.0,0.0,0.0,0.0,0.0,0.0,0.0,0.0,0.0,0.0,0.0,0.0,0.0,0.0,0.0,0.0,0.0,0.0,0.0,0.0,0.0,0.0,0.0,0.0,0.0,0.0,0.0,0.0,0.0,0.0,0.0,0.0,0.0,0.0,0.0,0.0,0.0,0.0,0.0,0.0,0.0,0.0,0.0,0.0,0.0,0.0,0.0,0.0,0.0,0.0,0.0,0.0,0.0,0.0,0.0,0.0,0.0,0.0,0.0,0.0,0.0,0.0,0.0,0.0,0.0,0.0,0.0,0.0,0.0,0.0,0.0,0.0,0.0,1.1331,1.1476,1.1557,1.1565,1.147,1.1189,1.0684,0.0,0.0,0.0,0.0,0.0,0.0,0.0,0.0,0.0,0.0,0.0,0.0,0.0,0.0,0.0,0.0,0.0,0.0,0.0,0.0,0.0,0.0,0.0,0.0,0.0,0.0,0.0,0.0,0.0,0.0,0.0,0.0,0.0,0.0,0.0,0.0,0.0,0.0,0.0,0.0,0.0,0.0,0.0,0.0,0.0,0.0,0.0,0.0,0.0,0.0,0.0,0.0,0.0,0.0,0.0,0.0,0.0,0.0,0.0,0.0,0.0,0.0,0.0,0.0,0.0,0.0,0.0,0.0,0.0,0.0,0.0,0.0,0.0,0.0,0.0,0.0,0.0,0.0,0.0,0.0,0.0,0.0,0.0,0.0,0.0,0.0,0.0,0.0,0.0,0.0,0.0,0.0,0.0,0.0,0.0,0.0,0.0,0.0,0.0,0.0,0.0,0.0,0.0,0.0,0.0,0.0,0.0,0.0,1.2782,1.2392,1.217,1.2142,1.2114,1.1794,0.0,0.0,0.0,0.0,0.0,0.0,0.0,0.0,0.0,0.0,0.0,0.0,0.0,0.0,0.0,0.0,0.0,0.0,0.0,0.0,0.0,0.0,0.0,0.0,0.0,0.0,0.0,0.0,0.0,0.0,0.0,0.0,0.0,0.0,0.0,0.0,0.0,0.0,0.0,0.0,0.0,0.0,0.0,0.0,0.0,0.0,0.0,0.0,0.0,0.0,0.0,0.0,0.0,0.0,0.0,0.0,0.0,0.0,0.0,0.0,0.0,0.0,0.0,0.0,0.0,0.0,0.0,0.0,0.0,0.0,0.0,0.0,0.0,0.0,0.0,0.0,0.0,0.0,0.0,0.0,0.0,0.0,0.0,0.0,0.0,0.0,0.0,0.0,0.0,0.0,0.0,0.0,0.0,0.0,0.0,0.0,0.0,0.0,0.0,0.0,0.0,0.0,0.0,0.0,0.0,0.0,0.0,0.0,0.0,1.3917,1.413,1.4052,1.3702,1.3307,1.2839,0.0,0.0,0.0,0.0,0.0,0.0,0.0,0.0,0.0,0.0,0.0,0.0,0.0,0.0,0.0,0.0,0.0,0.0,0.0,0.0,0.0,0.0,0.0,0.0,0.0,0.0,0.0,0.0,0.0,0.0,0.0,0.0,0.0,0.0,0.0,0.0,0.0,0.0,0.0,0.0,0.0,0.0,0.0,0.0,0.0,0.0,0.0,0.0,0.0,0.0,0.0,0.0,0.0,0.0,0.0,0.0,0.0,0.0,0.0,0.0,0.0,0.0,0.0,0.0,0.0,0.0,0.0,0.0,0.0,0.0,0.0,0.0,0.0,0.0,0.0,0.0,0.0,0.0,0.0,0.0,0.0,0.0,0.0,0.0,0.0,0.0,0.0,0.0,0.0,0.0,0.0,0.0,0.0,0.0,0.0,0.0,0.0,0.0,0.0,0.0,0.0,0.0,0.0,0.0,0.0,0.0,0.0,0.0,1.3892,1.4633,1.5103,1.5214,1.4933,1.4207,1.359,0.0,0.0,0.0,0.0,0.0,0.0,0.0,0.0,0.0,0.0,0.0,0.0,0.0,0.0,0.0,0.0,0.0,0.0,0.0,0.0,0.0,0.0,0.0,0.0,0.0,0.0,0.0,0.0,0.0,0.0,0.0,0.0,0.0,0.0,0.0,0.0,0.0,0.0,0.0,0.0,0.0,0.0,0.0,0.0,0.0,0.0,0.0,0.0,0.0,0.0,0.0,0.0,0.0,0.0,0.0,0.0,0.0,0.0,0.0,0.0,0.0,0.0,0.0,0.0,0.0,0.0,0.0,0.0,0.0,0.0,0.0,0.0,0.0,0.0,0.0,0.0,0.0,0.0,0.0,0.0,0.0,0.0,0.0,0.0,0.0,0.0,0.0,0.0,0.0,0.0,0.0,0.0,0.0,0.0,0.0,0.0,0.0,0.0,0.0,0.0,0.0,0.0,0.0,0.0,0.0,0.0,0.0,0.0,1.4593,1.499,1.5516,1.5803,1.5779,1.4873,1.413,0.0,0.0,0.0,0.0,0.0,0.0,0.0,0.0,0.0,0.0,0.0,0.0,0.0,0.0,0.0,0.0,0.0,0.0,0.0,0.0,0.0,0.0,0.0,0.0,0.0,0.0,0.0,0.0,0.0,0.0,0.0,0.0,0.0,0.0,0.0,0.0,0.0,0.0,0.0,0.0,0.0,0.0,0.0,0.0,0.0,0.0,0.0,0.0,0.0,0.0,0.0,0.0,0.0,0.0,0.0,0.0,0.0,0.0,0.0,0.0,0.0,0.0,0.0,0.0,0.0,0.0,0.0,0.0,0.0,0.0,0.0,0.0,0.0,0.0,0.0,0.0,0.0,0.0,0.0,0.0,0.0,0.0,0.0,0.0,0.0,0.0,0.0,0.0,0.0,0.0,0.0,0.0,0.0,0.0,0.0,0.0,0.0,0.0,0.0,0.0,0.0,0.0,0.0,0.0,0.0,0.0,0.0,0.0,1.4593,1.5001,1.5516,1.5803,1.5803,1.5191,1.4622,0.0,0.0,0.0,0.0,0.0,0.0,0.0,0.0,0.0,0.0,0.0,0.0,0.0,0.0,0.0,0.0,0.0,0.0,0.0,0.0,0.0,0.0,0.0,0.0,0.0,0.0,0.0,0.0,0.0,0.0,0.0,0.0,0.0,0.0,0.0,0.0,0.0,0.0,0.0,0.0,0.0,0.0,0.0,0.0,0.0,0.0,0.0,0.0,1.6734,0.0,0.0,0.0,0.0,0.0,0.0,0.0,0.0,0.0,0.0,0.0,0.0,0.0,0.0,0.0,0.0,0.0,0.0,0.0,0.0,0.0,0.0,0.0,0.0,0.0,0.0,0.0,0.0,0.0,0.0,0.0,0.0,0.0,0.0,0.0,0.0,0.0,0.0,0.0,0.0,0.0,0.0,0.0,0.0,0.0,0.0,0.0,0.0,0.0,0.0,0.0,0.0,0.0,0.0,0.0,0.0,0.0,0.0,0.0,1.4895,1.536,1.5659,1.5803,1.5791,1.5528,1.5044,0.0,0.0,0.0,0.0,0.0,0.0,0.0,0.0,0.0,0.0,0.0,0.0,0.0,0.0,0.0,0.0,0.0,0.0,0.0,0.0,0.0,0.0,0.0,0.0,0.0,0.0,0.0,0.0,0.0,0.0,0.0,0.0,0.0,0.0,0.0,0.0,0.0,0.0,0.0,0.0,0.0,0.0,0.0,0.0,0.0,0.0,0.0,0.0,0.0,0.0,0.0,0.0,0.0,0.0,0.0,0.0,0.0,0.0,0.0,0.0,0.0,0.0,0.0,0.0,0.0,0.0,0.0,0.0,0.0,0.0,0.0,0.0,0.0,0.0,0.0,0.0,0.0,0.0,0.0,0.0,0.0,0.0,0.0,0.0,0.0,0.0,0.0,0.0,0.0,0.0,0.0,0.0,0.0,0.0,0.0,0.0,0.0,0.0,0.0,0.0,0.0,0.0,0.0,0.0,0.0,0.0,0.0,1.4837,1.5313,1.5887,1.5828,1.5803,1.5803,1.5803,1.5343,1.4347,0.0,0.0,0.0,0.0,0.0,0.0,0.0,0.0,0.0,0.0,0.0,0.0,0.0,0.0,0.0,0.0,0.0,0.0,0.0,0.0,0.0,0.0,0.0,0.0,0.0,0.0,0.0,0.0,0.0,0.0,0.0,0.0,0.0,0.0,0.0,0.0,0.0,0.0,1.4184,1.6001,0.0,0.0,0.0,0.0,0.0,0.0,0.0,0.0,1.8303,0.0,0.0,0.0,0.0,0.0,0.0,0.0,0.0,0.0,0.0,0.0,0.0,0.0,0.0,0.0,0.0,0.0,0.0,0.0,0.0,0.0,0.0,0.0,0.0,0.0,0.0,0.0,0.0,0.0,0.0,0.0,0.0,0.0,0.0,0.0,0.0,0.0,0.0,0.0,0.0,0.0,0.0,0.0,0.0,0.0,0.0,0.0,0.0,0.0,0.0,0.0,0.0,0.0,0.0,0.0,0.0,1.4888,1.4975,1.5468,1.6439,1.6042,1.5803,1.5803,1.5803,1.531,1.4371,0.0,0.0,0.0,0.0,0.0,0.0,0.0,0.0,0.0,0.0,0.0,0.0,0.0,0.0,0.0,0.0,0.0,0.0,0.0,0.0,0.0,0.0,0.0,0.0,0.0,0.0,0.0,0.0,0.0,0.0,0.0,0.0,0.0,0.0,0.0,0.0,0.0,0.0,0.0,1.6285,1.7334,0.0,0.0,0.0,0.0,0.0,0.0,0.0,0.0,1.9082,0.0,0.0,0.0,0.0,0.0,0.0,0.0,0.0,0.0,0.0,0.0,0.0,0.0,0.0,0.0,0.0,0.0,0.0,0.0,0.0,0.0,0.0,0.0,0.0,0.0,0.0,0.0,0.0,0.0,0.0,0.0,0.0,0.0,0.0,0.0,0.0,0.0,0.0,0.0,0.0,0.0,0.0,0.0,0.0,0.0,0.0,0.0,0.0,0.0,0.0,0.0,0.0,0.0,0.0,0.0,1.5407,1.5971,1.6511,1.6979,1.6499,1.6343,1.6618,1.6091,1.5454,0.0,0.0,0.0,0.0,0.0,0.0,0.0,0.0,0.0,0.0,0.0,0.0,0.0,0.0,0.0,0.0,0.0,0.0,0.0,0.0,0.0,0.0,0.0,0.0,0.0,0.0,0.0,0.0,0.0,0.0,0.0,0.0,0.0,0.0,0.0,0.0,0.0,0.0,0.0,0.0,1.7378,1.8477,1.9429,0.0,0.0,0.0,0.0,0.0,0.0,2.0728,2.0469,0.0,0.0,0.0,0.0,0.0,0.0,0.0,0.0,0.0,0.0,0.0,0.0,0.0,0.0,0.0,0.0,0.0,0.0,0.0,0.0,0.0,0.0,0.0,0.0,0.0,0.0,0.0,0.0,0.0,0.0,0.0,0.0,0.0,0.0,0.0,0.0,0.0,0.0,0.0,0.0,0.0,0.0,0.0,0.0,0.0,0.0,0.0,0.0,0.0,0.0,0.0,0.0,0.0,0.0,0.0,1.5971,1.6919,1.7448,1.7544,1.7027,1.6967,1.7375,1.6452,1.5638,0.0,0.0,0.0,0.0,0.0,0.0,0.0,0.0,0.0,0.0,0.0,0.0,0.0,0.0,0.0,0.0,0.0,0.0,0.0,0.0,0.0,0.0,0.0,0.0,0.0,0.0,0.0,0.0,0.0,0.0,0.0,0.0,0.0,0.0,0.0,0.0,0.0,0.0,0.0,0.0,0.0,1.9721,2.0989,2.1597,0.0,0.0,0.0,0.0,2.1964,2.2083,0.0,0.0,0.0,0.0,0.0,0.0,0.0,0.0,0.0,0.0,0.0,0.0,0.0,0.0,0.0,0.0,0.0,0.0,0.0,0.0,0.0,0.0,0.0,0.0,0.0,0.0,0.0,0.0,0.0,0.0,0.0,0.0,0.0,0.0,0.0,0.0,0.0,0.0,0.0,0.0,0.0,0.0,0.0,0.0,0.0,0.0,0.0,0.0,0.0,0.0,0.0,0.0,0.0,0.0,0.0,0.0,1.6475,1.7087,1.764,1.8049,1.7592,1.7351,1.7387,1.6693,1.5884,0.0,0.0,0.0,0.0,0.0,0.0,0.0,0.0,0.0,0.0,0.0,0.0,0.0,0.0,0.0,0.0,0.0,0.0,0.0,0.0,0.0,0.0,0.0,0.0,0.0,0.0,0.0,0.0,0.0,0.0,0.0,0.0,0.0,0.0,0.0,0.0,0.0,0.0,0.0,0.0,0.0,2.0343,2.154,2.1724,2.1724,0.0,0.0,2.1934,2.2499,2.266,0.0,0.0,0.0,0.0,0.0,0.0,0.0,0.0,0.0,0.0,0.0,0.0,0.0,0.0,0.0,0.0,0.0,0.0,0.0,0.0,0.0,0.0,0.0,0.0,0.0,0.0,0.0,0.0,0.0,0.0,0.0,0.0,0.0,0.0,0.0,0.0,0.0,0.0,0.0,0.0,0.0,0.0,0.0,0.0,0.0,0.0,0.0,0.0,0.0,0.0,0.0,0.0,0.0,0.0,0.0,1.6283,1.7039,1.7893,1.8435,1.8639,1.812,1.8013,1.8301,1.7039,1.6137,0.0,0.0,0.0,0.0,0.0,0.0,0.0,0.0,0.0,0.0,0.0,0.0,0.0,0.0,0.0,0.0,0.0,0.0,0.0,0.0,0.0,0.0,0.0,0.0,0.0,0.0,0.0,0.0,0.0,0.0,0.0,0.0,0.0,0.0,0.0,0.0,0.0,0.0,0.0,0.0,0.0,0.0,2.2189,2.2594,0.0,0.0,0.0,2.2877,2.3156,0.0,0.0,0.0,0.0,0.0,0.0,0.0,0.0,0.0,0.0,0.0,0.0,0.0,0.0,0.0,0.0,0.0,0.0,0.0,0.0,0.0,0.0,0.0,0.0,0.0,0.0,0.0,0.0,0.0,0.0,0.0,0.0,0.0,0.0,0.0,0.0,0.0,0.0,0.0,0.0,0.0,0.0,0.0,0.0,0.0,0.0,0.0,0.0,0.0,0.0,0.0,0.0,0.0,0.0,0.0,0.0,0.0,1.7387,1.8304,1.8776,1.875,1.8238,1.8148,1.8501,1.7065,0.0,0.0,0.0,0.0,0.0,0.0,0.0,0.0,0.0,0.0,0.0,0.0,0.0,0.0,0.0,0.0,0.0,0.0,0.0,0.0,0.0,0.0,0.0,0.0,0.0,0.0,0.0,0.0,0.0,0.0,0.0,0.0,0.0,0.0,0.0,0.0,0.0,0.0,0.0,0.0,0.0,0.0,2.1703,2.2851,2.3327,2.3588,0.0,0.0,2.3588,2.3584,2.3809,2.3838,0.0,0.0,0.0,0.0,0.0,0.0,0.0,0.0,0.0,0.0,0.0,0.0,0.0,0.0,0.0,0.0,0.0,0.0,0.0,0.0,0.0,0.0,0.0,0.0,0.0,0.0,0.0,0.0,0.0,0.0,0.0,0.0,0.0,0.0,0.0,0.0,0.0,0.0,0.0,0.0,0.0,0.0,0.0,0.0,0.0,0.0,0.0,0.0,0.0,0.0,0.0,0.0,0.0,0.0,0.0,1.7399,1.7902,1.8186,1.8147,1.7569,1.728,1.7302,1.6588,1.5853,0.0,0.0,0.0,0.0,0.0,0.0,0.0,0.0,0.0,0.0,0.0,0.0,0.0,0.0,0.0,0.0,0.0,0.0,0.0,0.0,0.0,0.0,0.0,0.0,0.0,0.0,0.0,0.0,0.0,0.0,0.0,0.0,0.0,0.0,0.0,0.0,0.0,0.0,0.0,0.0,0.0,2.2881,2.3467,2.3519,2.3527,0.0,0.0,2.3527,2.361,2.4133,2.4395,2.4006,0.0,0.0,0.0,0.0,0.0,0.0,0.0,0.0,0.0,0.0,0.0,0.0,0.0,0.0,0.0,0.0,0.0,0.0,0.0,0.0,0.0,0.0,0.0,0.0,0.0,0.0,0.0,0.0,0.0,0.0,0.0,0.0,0.0,0.0,0.0,0.0,0.0,0.0,0.0,0.0,0.0,0.0,0.0,0.0,0.0,0.0,0.0,0.0,0.0,0.0,0.0,0.0,0.0,1.7194,1.7768,1.8366,1.8635,1.8585,1.8036,1.7562,1.7216,1.6498,1.5908,0.0,0.0,0.0,0.0,0.0,0.0,0.0,0.0,0.0,0.0,0.0,0.0,0.0,0.0,0.0,0.0,0.0,0.0,0.0,0.0,0.0,0.0,0.0,0.0,0.0,0.0,0.0,0.0,1.6052,1.6584,1.6857,0.0,0.0,0.0,0.0,0.0,0.0,0.0,0.0,0.0,0.0,2.2857,2.3826,2.3626,0.0,0.0,2.3462,2.3658,2.4093,2.4059,2.4103,2.4437,2.3869,0.0,0.0,0.0,0.0,0.0,0.0,0.0,0.0,0.0,0.0,0.0,0.0,0.0,0.0,0.0,0.0,0.0,0.0,0.0,0.0,0.0,0.0,0.0,0.0,0.0,0.0,0.0,0.0,0.0,0.0,0.0,0.0,0.0,0.0,0.0,0.0,0.0,0.0,0.0,0.0,0.0,0.0,0.0,0.0,0.0,0.0,0.0,0.0,0.0,0.0,0.0,0.0,1.7187,1.7842,1.8095,1.8235,1.8329,1.7653,1.7079,1.6659,1.6161,1.5734,0.0,0.0,0.0,0.0,0.0,0.0,0.0,0.0,0.0,0.0,0.0,0.0,0.0,0.0,0.0,0.0,0.0,0.0,0.0,0.0,0.0,0.0,0.0,0.0,0.0,0.0,0.0,0.0,1.6923,1.7464,1.7522,0.0,0.0,0.0,0.0,0.0,0.0,0.0,0.0,0.0,0.0,2.2973,2.4017,2.3808,2.3621,2.3835,2.3955,2.4186,2.4695,2.4444,2.4335,2.4743,0.0,0.0,0.0,0.0,0.0,0.0,0.0,0.0,0.0,0.0,0.0,0.0,0.0,0.0,0.0,0.0,0.0,0.0,0.0,0.0,0.0,0.0,0.0,0.0,0.0,0.0,0.0,0.0,0.0,0.0,1.0924,0.0,0.0,0.0,0.0,0.0,0.0,0.0,0.0,0.0,0.0,0.0,0.0,0.0,0.0,0.0,0.0,0.0,0.0,0.0,0.0,0.0,0.0,1.6549,1.7501,1.6863,1.664,1.7048,1.5997,1.5497,1.5468,1.5429,1.5281,1.5026,0.0,0.0,0.0,0.0,0.0,0.0,0.0,0.0,0.0,0.0,0.0,0.0,0.0,0.0,0.0,0.0,0.0,0.0,0.0,0.0,0.0,0.0,0.0,0.0,0.0,0.0,1.608,1.7194,1.7985,0.0,0.0,0.0,0.0,0.0,0.0,0.0,0.0,0.0,0.0,2.2812,2.3489,2.4042,2.4089,2.4315,2.5014,2.5123,2.5195,2.5328,2.5461,2.5383,0.0,0.0,0.0,0.0,0.0,0.0,0.0,0.0,0.0,0.0,0.0,0.0,0.0,0.0,0.0,0.0,0.0,0.0,0.0,0.0,0.0,0.0,0.0,0.0,0.0,0.0,0.0,1.1736,1.2232,0.0,0.0,0.0,0.0,0.0,0.0,0.0,0.0,0.0,0.0,0.0,1.508,1.509,0.0,0.0,0.0,0.0,0.0,0.0,0.0,0.0,0.0,0.0,0.0,0.0,1.7564,1.7763,1.7939,1.7865,1.7516,1.654,1.5806,1.5425,1.542,1.5296,1.5004,0.0,0.0,0.0,0.0,0.0,0.0,0.0,0.0,0.0,0.0,0.0,0.0,0.0,0.0,0.0,0.0,0.0,0.0,0.0,0.0,0.0,0.0,0.0,0.0,0.0,1.7238,0.0,0.0,0.0,0.0,0.0,0.0,0.0,0.0,0.0,0.0,0.0,2.3622,2.41,2.4242,2.4524,2.514,2.4839,2.4553,0.0,0.0,0.0,0.0,0.0,0.0,0.0,0.0,0.0,0.0,0.0,0.0,0.0,0.0,2.5046,2.383,2.388,2.4152,2.424,0.0,0.0,0.0,0.0,0.0,0.0,0.0,0.0,0.0,0.0,0.0,0.0,0.0,0.0,1.2726,0.0,1.3656,0.0,0.0,0.0,0.0,0.0,0.0,0.0,0.0,1.5688,1.5895,1.6213,1.6223,1.6128,0.0,1.5843,1.5083,0.0,0.0,0.0,0.0,0.0,0.0,0.0,0.0,1.7523,1.7728,1.7864,1.7764,1.7394,1.6484,1.5806,1.5425,1.542,1.5272,1.5014,1.4248,1.3854,0.0,0.0,0.0,0.0,0.0,0.0,0.0,0.0,0.0,0.0,0.0,0.0,0.0,0.0,0.0,0.0,0.0,0.0,0.0,0.0,0.0,0.0,0.0,1.7947,0.0,0.0,0.0,0.0,0.0,0.0,0.0,0.0,0.0,2.2714,2.3525,2.4379,2.5138,2.5079,2.5204,2.5793,0.0,0.0,0.0,0.0,0.0,0.0,0.0,2.6684,2.7426,2.7852,2.8104,2.8142,2.8552,2.8815,2.8665,0.0,0.0,2.5429,2.5338,2.562,2.5705,2.6442,2.7062,2.7077,2.7275,2.7306,0.0,0.0,0.0,0.0,0.0,0.0,0.0,0.0,1.3221,1.3365,0.0,1.4345,0.0,0.0,0.0,0.0,0.0,1.528,0.0,0.0,1.6481,1.6827,1.7026,1.7026,1.6792,1.6381,1.6472,1.6292,1.5822,1.524,0.0,0.0,0.0,0.0,0.0,0.0,1.6505,1.7368,1.6651,1.638,1.6674,1.5864,1.543,1.542,1.542,1.5282,1.5016,1.499,1.4794,1.4359,1.4125,0.0,0.0,0.0,0.0,0.0,0.0,0.0,0.0,0.0,0.0,0.0,0.0,0.0,0.0,0.0,0.0,0.0,0.0,0.0,0.0,1.6959,0.0,0.0,0.0,0.0,0.0,0.0,0.0,0.0,0.0,0.0,2.3347,2.394,2.4625,2.5269,0.0,0.0,0.0,0.0,2.6248,2.6745,2.6969,2.7253,2.7807,2.8179,2.8603,2.9171,0.0,0.0,3.075,3.0779,3.0639,3.0152,2.997,2.9277,2.737,2.7015,2.7011,2.7024,2.7991,2.8836,2.8942,2.9258,2.9739,1.3513,0.0,0.0,0.0,0.0,1.2945,1.3404,1.4265,1.4643,1.4918,1.5164,1.5685,0.0,0.0,0.0,0.0,0.0,0.0,1.6303,1.6969,1.7128,1.7386,1.772,1.7713,1.7651,1.7507,1.7262,1.7071,1.6918,1.6444,1.5853,1.5192,0.0,0.0,0.0,0.0,1.7559,1.7544,1.7681,1.7403,1.6697,1.6172,1.5723,1.542,1.542,1.5376,1.5287,1.5292,1.5178,1.4955,1.5458,0.0,0.0,0.0,0.0,0.0,0.0,0.0,0.0,0.0,0.0,0.0,0.0,0.0,0.0,0.0,0.0,0.0,0.0,0.0,1.7943,1.8545,1.908,0.0,0.0,0.0,0.0,0.0,0.0,0.0,0.0,0.0,2.5291,2.5931,2.6302,0.0,0.0,2.687,2.7493,2.7448,2.7441,2.7684,2.7988,0.0,0.0,2.8523,2.896,2.9138,3.0225,3.1423,3.2527,3.2706,3.2496,3.188,3.1768,3.1235,2.9821,2.9098,2.8855,2.8869,2.916,2.94,2.9415,2.9594,2.9594,1.4929,1.4146,1.3588,1.3607,1.4001,1.402,1.4459,1.5167,1.5424,1.5618,1.5859,1.6291,1.6348,1.6102,1.613,0.0,0.0,0.0,1.6725,1.7399,1.7399,1.7607,1.7998,1.8008,1.8008,1.7971,1.7754,1.7644,1.7644,1.7197,1.6664,1.6094,0.0,0.0,1.6442,1.7446,1.7838,1.7628,1.7869,1.7674,1.6976,1.6562,1.6201,1.5932,1.5913,1.5953,1.6043,1.5968,1.594,1.6001,1.6406,1.6216,0.0,0.0,0.0,0.0,0.0,0.0,0.0,0.0,0.0,0.0,0.0,1.6138,0.0,0.0,0.0,0.0,1.7515,1.8057,1.8943,1.9507,0.0,0.0,0.0,0.0,0.0,0.0,0.0,2.4662,2.5248,2.5879,2.6593,2.7071,2.7238,2.6927,2.7397,2.7882,2.8228,0.0,2.8494,2.8481,2.8711,2.886,2.8894,2.9272,2.9859,3.073,3.1782,3.281,3.3694,3.3679,3.3275,3.2662,3.2285,3.1953,3.1389,3.099,3.0648,3.0419,3.0791,3.1135,3.1135,3.115,3.103,1.6296,1.5991,1.472,1.4497,1.4954,1.4949,1.5284,1.5845,1.5854,1.5829,1.5873,1.6449,1.6567,1.6351,1.6667,0.0,1.682,1.6794,1.7044,1.7448,1.7458,1.7637,1.8008,1.8008,1.8008,1.8008,1.8008,1.8008,1.7971,1.7617,1.7448,1.7455,1.7198,1.7123,1.7233,1.7465,1.7609,1.7632,1.753,1.7422,1.7389,1.6937,1.6697,1.6687,1.6697,1.6782,1.6965,1.6831,1.6894,1.7165,1.7074,1.6871,1.6585,0.0,0.0,0.0,0.0,0.0,0.0,0.0,0.0,0.0,0.0,0.0,0.0,0.0,0.0,0.0,1.8686,0.0,1.9342,2.0104,0.0,0.0,0.0,2.3503,2.3581,2.4303,2.5091,2.5921,0.0,0.0,2.7299,0.0,2.7675,2.7675,2.8216,2.8584,2.8581,2.9105,2.9407,2.9316,2.9288,2.9496,3.0011,3.0243,3.0995,3.287,3.4008,3.4277,3.4413,3.4128,3.344,3.2751,3.2168,3.1958,3.2512,3.2615,3.2524,3.19,3.2617,3.3425,3.332,3.3275,3.3245,1.7177,1.7122,1.68,1.6546,1.6393,1.6239,1.6503,1.7039,1.7066,1.7066,1.7092,1.7337,1.748,1.7578,1.7655,1.7688,1.7672,1.7688,1.7737,1.7861,1.7861,1.791,1.8008,1.8008,1.8008,1.8008,1.8008,1.8008,1.7991,1.791,1.7861,1.7861,1.7814,1.7632,1.7376,1.7527,1.7691,1.7902,1.7878,1.7705,1.7416,1.6937,1.6697,1.6697,1.6697,1.6713,1.6786,1.7067,1.7183,1.7053,1.7527,1.7417,1.6569,1.6592,0.0,0.0,0.0,0.0,0.0,0.0,0.0,0.0,0.0,1.7905,1.8064,0.0,1.9026,0.0,1.9737,2.0398,2.0901,2.1234,0.0,0.0,2.3097,2.3838,2.3621,2.4802,2.5727,2.6027,2.6267,2.6666,2.7321,2.7948,2.8366,2.8366,2.8515,2.8938,2.9838,3.0025,3.0268,3.0641,3.0644,3.0689,3.0822,3.0881,3.1501,3.323,3.3556,3.3779,3.4397,3.4801,3.4651,3.3605,3.4031,3.4152,3.3396,3.4065,3.4453,3.3933,3.3649,3.3499,3.3499,3.3514,3.3514,1.7011,1.7124,1.7392,1.7457,1.7382,1.712,1.7175,1.7478,1.7478,1.7478,1.7522,1.764,1.7767,1.7889,1.7957,1.8008,1.8008,1.8008,1.8008,1.8008,1.8008,1.8008,1.8008,1.8008,1.8008,1.8008,1.8008,1.8008,1.8008,1.8008,1.8008,1.8008,1.8008,1.7874,1.7683,1.7746,1.7847,1.8008,1.8008,1.7891,1.7666,1.7415,1.7279,1.7279,1.7288,1.7288,1.7288,1.7529,1.7598,1.7468,1.778,1.7613,1.6855,1.6809,1.6603,0.0,0.0,0.0,0.0,0.0,0.0,0.0,0.0,0.0,0.0,0.0,1.9977,0.0,2.0812,2.1261,2.1545,2.1936,2.2196,2.2209,2.339,2.4114,2.393,2.4914,2.5756,2.6229,2.6176,2.6571,2.7763,2.8078,2.8551,2.9315,2.946,2.9699,3.0372,3.0677,3.0963,3.132,3.1307,3.1397,3.1679,3.1471,3.1886,3.3499,3.3632,3.3721,3.4741,3.4997,3.4802,3.4144,3.4316,3.4515,3.4071,3.4495,3.4969,3.498,3.4651,3.4412,3.4382,3.4397,3.4397,1.6533,1.6838,1.7414,1.7804,1.8052,1.777,1.7621,1.7573,1.7556,1.7556,1.7573,1.7691,1.775,1.774,1.793,1.8008,1.8008,1.8008,1.802,1.8069,1.8069,1.8079,1.8079,1.8086,1.8049,1.8008,1.8008,1.8008,1.8008,1.8008,1.8008,1.8008,1.8008,1.8008,1.8008,1.8008,1.8008,1.8008,1.8008,1.8008,1.8008,1.8008,1.8008,1.8008,1.8008,1.8008,1.8008,1.8008,1.8008,1.8039,1.7885,1.7626,1.7282,1.6872,1.6487,0.0,1.6351,0.0,0.0,0.0,0.0,0.0,0.0,0.0,0.0,2.0515,2.1085,2.1726,2.1777,2.1802,2.1864,2.2463,2.2712,2.2478,2.3527,2.4249,2.4205,2.4724,2.5398,2.6149,2.5935,2.6476,2.8103,2.819,2.8735,3.0127,3.0515,3.065,3.0822,3.1286,3.1631,3.163,3.163,3.1855,3.2243,3.1989,3.2288,3.3933,3.4054,3.4038,3.5115,3.4967,3.4622,3.4474,3.4174,3.4069,3.4548,3.4639,3.4857,3.5336,3.5415,3.54,3.54,3.5385,3.5489,1.7165,1.7781,1.8222,1.8428,1.8481,1.8411,1.8216,1.7915,1.7906,1.7915,1.7915,1.794,1.7957,1.7957,1.7974,1.8008,1.8008,1.8008,1.8176,1.8481,1.8481,1.8481,1.8481,1.8481,1.8322,1.8027,1.8008,1.8008,1.8008,1.8008,1.8008,1.8008,1.8008,1.8008,1.8008,0.0,0.0,0.0,1.8008,1.8008,1.8008,1.8008,1.8008,1.8008,1.8008,0.0,1.8008,1.8008,1.8076,1.8226,1.7862,0.0,0.0,0.0,0.0,0.0,0.0,0.0,0.0,0.0,0.0,0.0,2.1087,2.1093,2.1181,2.1281,2.157,2.2124,2.2187,2.2363,2.2789,2.2956,2.3004,2.3002,2.3671,2.3985,2.3645,2.4205,2.4709,2.4851,2.5868,2.6833,2.7655,2.8967,3.004,3.0382,3.0911,3.1454,3.1975,3.2124,3.2288,3.2318,3.2288,3.2347,3.2467,3.2407,3.2811,3.4069,3.4413,3.4429,3.4697,3.5115,3.5086,3.4683,3.4831,3.5115,3.528,3.5321,3.5303,3.5458,3.5489,3.5489,3.5489,3.5489,3.5489,1.6329,0.0,1.7604,1.7906,0.0,1.8077,1.8312,1.8524,1.816,1.8242,1.8633,1.866,1.8877,1.9286,1.9296,1.9286,1.9276,1.9025,1.9044,1.9212,1.9035,1.8937,1.8937,1.8937,1.8848,1.866,1.8643,1.8643,1.8643,1.8652,1.866,1.8643,1.8401,1.8286,1.8276,1.8098,1.8008,1.8008,1.8008,1.8008,1.8008,1.8008,1.8008,1.8008,0.0,0.0,0.0,0.0,0.0,0.0,0.0,0.0,0.0,0.0,0.0,1.7569,1.8286,1.9081,1.9829,2.0627,2.1404,2.2137,2.2253,2.2182,2.1906,2.2146,2.2408,2.2656,2.2694,2.2809,2.3058,2.3095,2.3095,2.311,2.3395,2.3556,2.345,2.3719,2.4264,2.4951,2.5438,2.6271,2.781,2.8538,2.936,2.9943,3.0553,3.1093,3.1484,3.2075,3.2445,3.2512,3.2811,3.2976,3.3006,3.2991,3.3455,3.4622,3.4728,3.4683,3.4952,3.5281,3.5385,3.5086,3.5295,3.5489,3.5489,3.5489,3.5489,3.5489,3.5489,3.5489,3.5489,3.5489,3.5489,1.5597,1.6047,1.7001,1.7409,1.7414,1.7678,1.8207,1.8838,0.0,0.0,0.0,1.9262,1.9667,2.0323,2.0343,2.044,2.0586,2.0214,2.0049,2.0118,1.9795,1.9608,1.953,1.953,1.9462,1.9305,1.9277,1.9277,1.9277,1.9277,1.9277,1.9266,1.8908,1.8685,1.8578,1.8274,1.8059,1.8001,1.8008,1.8008,1.8008,1.8008,1.8008,1.8008,1.8008,1.8008,1.8008,1.8008,1.8008,1.7998,1.7789,1.7734,1.7908,1.7734,1.769,1.7842,1.8625,1.9464,2.0269,2.1193,2.2196,2.3178,2.3246,2.3035,2.2483,2.2844,2.3095,2.3095,2.3095,2.3095,2.3095,2.3095,2.3095,2.3095,2.3095,2.3221,2.35,2.3572,2.415,2.5249,2.5427,2.598,2.7942,2.8215,2.8341,2.9314,2.9985,3.0525,3.0892,3.1951,3.2629,3.2568,3.3138,3.3694,3.3664,3.3664,3.4173,3.5205,3.5042,3.4907,3.5325,3.5489,3.5489,3.5459,3.5489,3.5489,3.5489,3.5489,3.5489,3.5489,3.5489,3.5489,3.5489,3.5489,3.5489,1.671,1.7445,1.7927,1.8148,1.8169,1.8199,1.8109,1.8037,1.9541,1.9812,1.913,1.913,1.9194,1.9324,1.9304,1.9795,2.0576,2.0537,2.0674,2.1025,2.0966,2.0762,2.041,2.0429,2.0019,1.9344,1.9287,1.9277,1.9305,1.9315,1.9277,1.9305,1.9228,1.9004,1.8627,1.8539,1.8334,1.8001,1.8008,1.8008,1.8008,1.8008,1.8008,1.8008,1.8008,1.8008,1.8008,1.8008,1.8008,1.8008,1.7959,1.7971,1.7978,1.8111,1.8191,1.8231,1.8631,1.9162,1.9868,2.0719,2.1977,2.3664,2.3863,2.3627,2.3058,2.3058,2.3095,2.3108,2.312,2.3095,2.3095,2.312,2.3133,2.312,2.312,2.3356,2.3991,2.4236,2.4597,2.5322,2.6536,2.7175,2.7575,2.8453,2.9068,2.9404,2.9531,3.014,3.165,3.2818,3.3038,3.2806,3.3561,3.4262,3.4278,3.4369,3.4697,3.537,3.5415,3.531,3.5443,3.5489,3.5489,3.5489,3.5489,3.5489,3.5489,3.5489,3.5489,3.5489,3.5489,3.5489,3.5489,3.5489,3.5489,1.6488,1.7021,1.74,1.7541,1.76,1.8279,1.8469,1.8431,1.977,1.9889,1.9091,1.9041,1.9289,1.9722,2.0259,2.0754,2.1204,2.1493,2.1718,2.1884,2.1689,2.1484,2.1319,2.1309,2.1094,2.0713,2.0723,2.0576,2.0361,2.0352,2.0225,1.9999,1.9746,1.9396,1.9014,1.8984,1.8906,1.8701,1.8242,1.8008,1.8008,1.8008,1.8008,1.8008,1.8008,1.8008,1.8008,1.8008,1.8059,1.8161,1.8161,1.8236,1.8431,1.8522,1.8623,1.8731,1.922,1.9633,1.9933,2.0919,2.2044,2.3317,2.3389,2.3432,2.3597,2.3587,2.3587,2.3562,2.3296,2.3095,2.3108,2.3399,2.3587,2.3587,2.385,2.4189,2.4589,2.4766,2.5109,2.5797,2.6542,2.7107,2.7424,2.8018,2.8406,2.846,2.89,3.0035,3.1646,3.2769,3.349,3.363,3.4418,3.4754,3.4607,3.4847,3.5145,3.5474,3.5489,3.5489,3.5489,3.5489,3.5489,3.5489,3.5489,3.5489,3.5489,3.5489,3.5489,3.5489,3.5489,3.5489,3.5489,3.5489,3.5489,1.6367,1.6638,1.688,1.6983,1.7081,1.8041,1.845,1.8534,1.9222,1.9199,1.8685,1.8849,1.9303,1.9935,2.0917,2.1485,2.1769,2.233,2.2528,2.2286,2.1997,2.1816,2.173,2.172,2.1786,2.1904,2.1915,2.1688,2.1396,2.1366,2.1211,2.0869,2.043,1.9981,1.9599,1.9589,1.954,1.9404,1.8867,1.8486,1.8301,1.8301,1.8274,1.8274,1.8301,1.8235,1.8147,1.8277,1.838,1.8445,1.8486,1.8622,1.887,1.8937,1.9028,1.923,1.9895,2.0458,2.0745,2.1508,2.241,2.3314,2.3344,2.3639,2.4352,2.4523,2.4381,2.4029,2.37,2.3521,2.3584,2.3901,2.418,2.4205,2.4592,2.4949,2.5217,2.5339,2.5688,2.645,2.6632,2.6908,2.7326,2.7503,2.7622,2.7923,2.8816,3.0084,3.1216,3.2433,3.3398,3.4131,3.4919,3.5264,3.4832,3.5115,3.5444,3.5489,3.5489,3.5489,3.5489,3.5489,3.5489,3.5489,3.5489,3.5489,3.5489,3.5489,3.5489,3.5489,3.5489,3.5489,3.5489,3.5489,3.5489,1.7178,1.7222,1.7236,1.7266,1.7274,1.7404,1.7489,1.7489,1.7559,1.7537,1.7595,1.8394,1.8838,1.9055,1.9914,2.0804,2.165,2.2626,2.2554,2.1799,2.1736,2.1511,2.1201,2.1182,2.1433,2.1849,2.1924,2.1944,2.1836,2.1816,2.1787,2.1739,2.1308,2.0898,2.0556,2.0498,2.0283,1.9864,2.0195,1.997,1.9237,1.917,1.9188,1.917,1.9178,1.8984,1.8578,1.9134,1.9288,1.8984,1.9069,1.9146,1.9208,1.9364,1.9458,1.9533,2.0444,2.1442,2.2402,2.265,2.3172,2.4404,2.4607,2.5003,2.569,2.6037,2.5577,2.4544,2.444,2.4612,2.4641,2.4716,2.4766,2.4745,2.499,2.5271,2.5748,2.6096,2.6531,2.713,2.7217,2.7438,2.7477,2.7542,2.7785,2.8364,2.9392,3.0446,3.1232,3.2006,3.2772,3.3443,3.4493,3.5314,3.529,3.5413,3.5504,3.5489,3.5489,3.5489,3.5489,3.5489,3.5489,3.5489,3.5489,3.5489,3.5489,3.5489,3.5489,3.5519,3.5534,3.5549,3.5504,3.5609,3.5654,1.7309,1.7309,1.7309,1.7309,1.7309,1.7309,1.7309,1.7309,1.7309,1.7309,1.7333,1.7738,1.7924,1.7986,1.8918,1.9627,2.0059,2.097,2.1186,2.0827,2.0804,2.0725,2.0638,2.1205,2.1562,2.1844,2.2339,2.2479,2.2246,2.2012,2.2002,2.2187,2.1805,2.1768,2.2073,2.1622,2.1377,2.1425,2.1397,2.1192,2.084,2.0332,1.9931,1.9687,1.9658,1.9463,1.911,1.9388,1.9698,1.9915,2.0107,2.0366,2.0702,2.0833,2.0859,2.088,2.1255,2.1713,2.2174,2.2467,2.3054,2.406,2.3895,2.4361,2.5821,2.5892,2.5758,2.597,2.5862,2.5661,2.5398,2.5615,2.5678,2.5427,2.566,2.6059,2.6346,2.6502,2.6772,2.7226,2.7339,2.7419,2.7538,2.7807,2.8412,2.9188,2.998,3.0606,3.1527,3.2024,3.2474,3.316,3.4124,3.4677,3.4841,3.523,3.5424,3.5489,3.5489,3.5489,3.5489,3.5489,3.5489,3.5504,3.5549,3.5549,3.5489,3.5489,3.5504,3.5549,3.5908,3.6088,3.6088,3.6387,3.6582,1.7309,1.7309,1.7309,1.7309,1.7309,1.7309,1.7309,1.7309,1.7309,1.7309,1.7309,1.7309,1.7309,1.7442,1.8357,1.8796,1.8926,1.9755,2.0051,1.9846,1.9824,1.9824,1.9914,2.0827,2.144,2.1806,2.2655,2.2817,2.2342,2.2135,2.2155,2.2397,2.2421,2.2746,2.3237,2.2599,2.2373,2.2606,2.2373,2.2227,2.2139,2.1602,2.1006,2.0508,2.0459,2.0263,1.9946,2.0222,2.0588,2.1027,2.1235,2.1549,2.1943,2.1994,2.2108,2.2346,2.2377,2.2428,2.2542,2.2843,2.331,2.3804,2.3582,2.4044,2.5304,2.5633,2.6014,2.6767,2.7033,2.6822,2.6435,2.667,2.6721,2.6364,2.673,2.7074,2.7161,2.7248,2.7498,2.7713,2.7949,2.7884,2.8047,2.8525,2.9222,2.9871,3.0429,3.0768,3.1616,3.1947,3.2326,3.2844,3.3512,3.4044,3.4295,3.5003,3.5408,3.5489,3.5489,3.5489,3.5489,3.5489,3.5699,3.5818,3.5759,3.582,3.5893,3.5833,3.5609,3.5624,3.5908,3.6359,3.6389,3.6776,3.709,1.7309,1.7309,1.7309,1.7309,1.7309,1.7309,1.7309,1.7309,1.7309,1.7309,1.7331,1.7331,1.7317,1.7416,1.8357,1.8773,1.888,1.9642,1.9596,1.8903,1.8857,1.8857,1.8926,1.9824,2.0759,2.1463,2.2347,2.2504,2.1823,2.2092,2.2286,2.239,2.3201,2.3714,2.376,2.3337,2.3052,2.3149,2.3074,2.3023,2.3035,2.2955,2.2508,2.1866,2.1798,2.1645,2.1541,2.205,2.2261,2.2115,2.2301,2.2459,2.249,2.2511,2.2894,2.3639,2.3774,2.3939,2.4229,2.427,2.4364,2.445,2.4549,2.4897,2.5178,2.5727,2.6219,2.6431,2.7635,2.8128,2.7981,2.7896,2.7921,2.7821,2.8079,2.8207,2.8268,2.8405,2.8841,2.8865,2.8929,2.9004,2.9157,2.9688,2.9905,3.032,3.1192,3.1737,3.1294,3.1676,3.2015,3.2232,3.2773,3.3474,3.416,3.4986,3.5408,3.5392,3.5311,3.5424,3.5473,3.5564,3.5892,3.6163,3.6222,3.6299,3.6404,3.6252,3.5953,3.5848,3.5833,3.6088,3.6656,3.6043,3.6596,1.7309,1.7309,1.7309,1.7309,1.7309,1.7309,1.7309,1.7309,1.7309,1.7426,1.7594,1.7616,1.7726,1.7972,1.831,1.8254,1.79,1.8218,1.8141,1.7831,1.7831,1.7831,1.7948,1.8826,1.9445,1.9923,2.0796,2.1418,2.1735,2.1851,2.2521,2.3473,2.3725,2.417,2.4742,2.4293,2.4069,2.4287,2.3867,2.3532,2.3503,2.3247,2.3,2.2919,2.2495,2.2194,2.1997,2.23,2.2655,2.3012,2.3258,2.3505,2.3743,2.3784,2.3919,2.4229,2.428,2.4353,2.4476,2.4507,2.4507,2.4487,2.4367,2.4678,2.5324,2.5612,2.6139,2.7422,2.808,2.8626,2.9023,2.8863,2.8467,2.8172,2.8177,2.8324,2.837,2.8545,2.8708,2.8959,2.9186,2.9405,2.9779,3.0001,3.0244,3.0639,3.1135,3.1241,3.1142,3.1278,3.145,3.1511,3.201,3.2595,3.2794,3.4474,3.5408,3.5085,3.497,3.4997,3.5029,3.577,3.6207,3.6013,3.6212,3.6404,3.6344,3.5985,3.5774,3.5774,3.5774,3.6252,3.703,3.6761,3.7582,1.7616,1.7616,1.7616,1.7624,1.764,1.7616,1.7616,1.7624,1.7624,1.7772,1.7923,1.7952,1.8101,1.8277,1.8299,1.8086,1.7655,1.7545,1.7381,1.7309,1.7309,1.7309,1.7481,1.8419,1.8962,1.9055,1.9579,2.0283,2.0862,2.0944,2.191,2.3472,2.3651,2.4407,2.5353,2.4967,2.4795,2.4916,2.4355,2.3935,2.3779,2.3493,2.3391,2.3418,2.3055,2.2843,2.285,2.2976,2.3274,2.377,2.3979,2.4208,2.4456,2.4507,2.4507,2.4507,2.4497,2.4507,2.4507,2.4507,2.4507,2.4497,2.4281,2.4514,2.5263,2.5142,2.5804,2.6907,2.783,2.8343,2.8809,2.9038,2.9032,2.8712,2.8692,2.8892,2.9174,2.9343,2.9609,2.9938,3.0142,3.0262,3.0393,3.0746,3.0928,3.1071,3.1117,3.1222,3.1057,3.1005,3.1123,3.1334,3.1828,3.229,3.2749,3.4066,3.4799,3.4577,3.464,3.4636,3.4898,3.5756,3.6181,3.5965,3.601,3.6203,3.6089,3.5699,3.5594,3.5609,3.5818,3.6222,3.6985,3.7731,3.8329,1.8277,1.8247,1.8291,1.8233,1.8211,1.8211,1.8262,1.8225,1.824,1.824,1.8299,1.8306,1.8343,1.8357,1.8448,1.8328,1.8218,1.7991,1.7682,1.7426,1.739,1.739,1.7482,1.8587,1.913,1.9138,1.9249,1.9352,1.9548,1.9706,2.0532,2.2007,2.3184,2.4238,2.5625,2.5221,2.5102,2.5053,2.4648,2.4248,2.3857,2.3789,2.3676,2.3571,2.3493,2.3661,2.4092,2.4103,2.4169,2.4402,2.4445,2.4497,2.4497,2.4507,2.4507,2.4507,2.4507,2.4507,2.4507,2.4507,2.4507,2.4497,2.4476,2.4488,2.4616,2.4627,2.4744,2.5253,2.6257,2.7171,2.7563,2.8756,2.9728,2.9786,2.9852,3.0157,3.0743,3.1183,3.1526,3.1544,3.1484,3.149,3.1352,3.1594,3.1771,3.1248,3.1326,3.147,3.1097,3.1005,3.1334,3.1755,3.1882,3.1937,3.278,3.3638,3.389,3.4068,3.4276,3.4412,3.4721,3.5364,3.5825,3.5784,3.6079,3.6261,3.6103,3.5774,3.5774,3.5833,3.6013,3.6462,3.727,3.8048,3.8329,1.8299,1.8299,1.8299,1.8299,1.8299,1.8299,1.8299,1.8299,1.8299,1.8423,1.8638,1.866,1.8785,1.8928,1.8964,1.8873,1.8668,1.8518,1.8281,1.8043,1.7967,1.7952,1.8072,1.8435,1.8602,1.8634,1.8609,1.8991,1.9516,1.9645,2.0475,2.1866,2.2984,2.3858,2.4635,2.5189,2.5503,2.5454,2.5088,2.4818,2.4633,2.4114,2.391,2.4117,2.3881,2.3916,2.4368,2.4271,2.4304,2.4486,2.4507,2.4507,2.4507,2.4507,2.4507,2.4507,2.4507,2.4507,2.4507,2.4507,2.4507,2.4507,2.4507,2.4507,2.4507,2.4507,2.4764,2.5232,2.5934,2.648,2.7575,2.8797,2.9871,3.0502,3.0619,3.1012,3.1742,3.1818,3.1727,3.1726,3.1477,3.1182,3.111,3.1515,3.1522,3.1182,3.1235,3.1254,3.1097,3.1071,3.1024,3.1315,3.1389,3.1553,3.2161,3.2671,3.295,3.3387,3.3752,3.4233,3.4575,3.498,3.5406,3.586,3.6162,3.6182,3.6026,3.5998,3.6028,3.6402,3.6868,3.736,3.7928,3.8287,3.8556,1.8279,1.8639,1.8664,1.869,1.8664,1.869,1.8682,1.8664,1.8664,1.8782,1.8942,1.8964,1.9074,1.9268,1.9298,1.9162,1.9012,1.8964,1.8887,1.8628,1.8372,1.8306,1.8328,1.8438,1.8482,1.8482,1.8482,1.8805,1.9378,1.9344,2.0009,2.1437,2.2078,2.2897,2.3776,2.453,2.4962,2.5158,2.5117,2.5014,2.4769,2.4398,2.4261,2.4408,2.4148,2.4152,2.4454,2.4368,2.4378,2.4475,2.4507,2.4507,2.4507,2.4507,2.4507,2.4507,2.4507,2.4507,2.4507,2.4507,2.4507,2.4507,2.4507,2.4507,2.4507,2.4507,2.4839,2.5413,2.5902,2.6533,2.7657,2.9044,3.02,3.116,3.1391,3.1856,3.259,3.2612,3.2359,3.2208,3.1901,3.1489,3.1136,3.1489,3.147,3.1405,3.1496,3.147,3.1405,3.1326,3.13,3.1209,3.1185,3.1314,3.1377,3.1703,3.2012,3.2602,3.3206,3.3829,3.4366,3.4859,3.5328,3.5988,3.6388,3.6186,3.6028,3.6252,3.6387,3.7032,3.7496,3.7749,3.8048,3.8422,3.8721,1.8265,1.9246,1.929,1.9254,1.9246,1.922,1.9224,1.9268,1.9228,1.9246,1.9276,1.9254,1.9276,1.9298,1.9298,1.925,1.929,1.9261,1.9239,1.9071,1.8716,1.846,1.8503,1.8708,1.8811,1.8843,1.8818,1.8862,1.8999,1.8759,1.917,2.0605,2.0737,2.1337,2.2859,2.3356,2.3833,2.4302,2.4764,2.4795,2.4473,2.4644,2.4665,2.4512,2.4349,2.4332,2.4464,2.4475,2.4486,2.4507,2.4507,2.4507,2.4507,2.4507,2.4507,2.4507,2.4507,2.4507,2.4507,2.4507,2.4507,2.4507,2.4569,2.4538,2.4632,2.4735,2.4944,2.5366,2.5956,2.6693,2.7644,2.9001,3.0456,3.1713,3.2299,3.2907,3.3494,3.3561,3.3208,3.2842,3.2659,3.2319,3.1397,3.2058,3.2202,3.2091,3.2241,3.2156,3.1895,3.1725,3.1784,3.166,3.1444,3.1464,3.166,3.1921,3.2182,3.2096,3.2695,3.3304,3.4217,3.4844,3.509,3.5772,3.643,3.6199,3.6237,3.6492,3.6791,3.7257,3.7569,3.7793,3.8195,3.8691,3.8901,1.8265,1.9279,1.9298,1.9298,1.9298,1.9298,1.9272,1.9298,1.9298,1.9298,1.9298,1.9298,1.9298,1.9298,1.9298,1.9298,1.9298,1.9298,1.9298,1.9257,1.9159,1.9049,1.9049,1.9089,1.9166,1.9159,1.9144,1.9173,1.9147,1.9016,1.9287,1.9694,2.0189,2.061,2.1295,2.2457,2.3166,2.3462,2.4181,2.4528,2.4509,2.4631,2.4698,2.4532,2.4593,2.461,2.4537,2.4507,2.4507,2.4507,2.4507,2.4507,2.4507,2.4507,2.4507,2.4507,2.4507,2.4507,2.4507,2.4507,2.4507,2.4538,2.4807,2.5025,2.5046,2.5347,2.5554,2.5754,2.599,2.6403,2.7202,2.8388,3.0114,3.2319,3.3218,3.3803,3.4011,3.3822,3.3509,3.3339,3.2973,3.2574,3.2372,3.2398,3.2646,3.2542,3.2568,3.2594,3.2274,3.2287,3.2417,3.2143,3.1947,3.1934,3.2039,3.23,3.2313,3.1915,3.2212,3.2719,3.3846,3.498,3.4989,3.5154,3.6145,3.6272,3.6526,3.6819,3.718,3.7601,3.8227,3.8688,3.8883,3.9242,3.9212,1.7127,1.8527,1.8075,1.8153,1.856,1.8593,1.8855,1.922,1.9298,1.9298,1.9298,1.9298,1.9298,1.9298,1.9298,1.9298,1.9298,1.9298,1.9298,1.9298,1.9283,1.9276,1.929,1.9298,1.9298,1.9298,1.9298,1.9298,1.9264,1.9298,1.9298,1.9398,1.9709,2.0004,2.0262,2.1041,2.1969,2.246,2.3192,2.3787,2.4519,2.4368,2.433,2.4273,2.4381,2.4337,2.4462,2.4507,2.4507,2.4507,2.4507,2.4507,2.4507,2.4507,2.4507,2.4507,2.4507,2.4507,2.4507,2.4507,2.46,2.4776,2.5075,2.5284,2.5459,2.5761,2.5939,2.6167,2.6177,2.6551,2.7279,2.8379,3.0227,3.233,3.3433,3.3974,3.4322,3.4136,3.3835,3.36,3.332,3.2967,3.2764,3.2712,3.2842,3.2999,3.3077,3.296,3.2757,3.2934,3.2973,3.2725,3.2522,3.2509,3.2391,3.2555,3.2378,3.1993,3.2343,3.2713,3.3512,3.4841,3.5145,3.5288,3.5953,3.6485,3.6788,3.7213,3.7751,3.8307,3.9035,3.9331,3.9391,3.9406,3.9406,1.5446,1.7338,1.6319,1.6479,1.7391,1.7549,1.8193,1.8985,1.922,1.9298,1.9298,1.9298,1.9298,1.9298,1.9298,1.9298,1.9298,1.9298,1.9298,1.9298,1.9298,1.9298,1.9298,1.9298,1.9298,1.9298,1.9298,1.9298,1.9298,1.9298,1.9298,1.9294,1.9317,1.9408,1.9656,1.9869,2.0402,2.1271,2.1812,2.2652,2.3572,2.3553,2.3614,2.3981,2.4132,2.4065,2.4255,2.4411,2.4507,2.4507,2.4507,2.4507,2.4507,2.4507,2.4507,2.4507,2.4507,2.4507,2.4528,2.458,2.4767,2.5097,2.5284,2.5513,2.5918,2.6115,2.6333,2.6643,2.6687,2.6967,2.7581,2.8866,3.0406,3.2059,3.2744,3.3441,3.4134,3.4397,3.4214,3.377,3.3692,3.3404,3.3091,3.2908,3.3097,3.3587,3.3626,3.347,3.3391,3.347,3.3483,3.3352,3.3221,3.3117,3.2934,3.2777,3.243,3.2117,3.271,3.3147,3.3413,3.4382,3.51,3.5665,3.6165,3.6639,3.7061,3.7564,3.8194,3.8682,3.92,3.9331,3.9406,3.9406,3.9406,1.5018,1.6234,1.5994,1.6021,1.6399,1.7206,1.774,1.8062,1.8933,1.9298,1.9298,1.9298,1.9298,1.9298,1.9298,1.9298,1.9298,1.9298,1.9298,1.9298,1.9298,1.9298,1.9298,1.9298,1.9298,1.9298,1.9298,1.9298,1.9298,1.9298,1.9298,1.9276,1.91,1.8952,1.9052,1.9328,1.9486,1.9902,2.0408,2.1077,2.1847,2.242,2.2865,2.3467,2.4175,2.4185,2.3704,2.4111,2.4475,2.4507,2.4507,2.4507,2.4507,2.4507,2.4507,2.4507,2.4507,2.4507,2.4569,2.4849,2.5097,2.5304,2.5854,2.6343,2.6436,2.6757,2.6964,2.7164,2.7164,2.7269,2.767,2.8933,3.0226,3.14,3.2398,3.3326,3.4155,3.4397,3.4306,3.4228,3.4175,3.4162,3.4026,3.3914,3.4018,3.4201,3.411,3.3992,3.3979,3.3979,3.3901,3.3783,3.3809,3.3679,3.3456,3.3195,3.2777,3.2496,3.2955,3.3356,3.3625,3.4151,3.4967,3.5661,3.6276,3.6722,3.7129,3.7948,3.8597,3.8948,3.9257,3.9346,3.9406,3.9406,3.9406,1.4029,1.5018,1.4503,1.4583,1.5227,1.6299,1.71,1.774,1.8803,1.9298,1.9298,1.9298,1.9298,1.9298,1.9298,1.9298,1.9298,1.9298,1.9298,1.9298,1.9298,1.9298,1.9298,1.9298,1.9298,1.9298,1.9298,1.9298,1.9298,1.9298,1.9298,1.9298,1.9089,1.8975,1.8803,1.8986,1.9263,1.9622,1.996,2.0583,2.1561,2.1715,2.2051,2.2472,2.3049,2.3008,2.3415,2.3618,2.4067,2.4368,2.4496,2.4507,2.4507,2.4507,2.4507,2.4507,2.4507,2.4642,2.4838,2.5077,2.5387,2.5823,2.6353,2.6643,2.6895,2.7161,2.7289,2.732,2.7299,2.7381,2.7631,2.8269,2.9521,3.0978,3.1862,3.2895,3.4029,3.4397,3.4397,3.4397,3.4371,3.4371,3.4384,3.4397,3.4384,3.4306,3.4306,3.4201,3.4214,3.4214,3.4188,3.4149,3.4254,3.4201,3.3966,3.3639,3.3202,3.3012,3.3105,3.3389,3.3607,3.4233,3.4927,3.5517,3.6079,3.6668,3.7186,3.8058,3.8829,3.9158,3.9346,3.9391,3.9421,3.9451,3.9436,1.3007,1.3846,1.2817,1.3007,1.4056,1.5355,1.6452,1.7391,1.875,1.9298,1.9298,1.9298,1.9298,1.9298,1.9298,1.9298,1.9298,1.9298,1.9298,1.9298,1.9298,1.9298,1.9298,1.9298,1.9298,1.9298,1.9298,1.9298,1.9298,1.9298,1.9298,1.9298,1.9272,1.9151,1.8946,1.884,1.9032,1.9474,1.97,2.0337,2.1468,2.1343,2.1353,2.1521,2.1954,2.2149,2.2858,2.3118,2.3403,2.4174,2.4368,2.4455,2.4478,2.4506,2.4569,2.46,2.4662,2.4879,2.5253,2.5471,2.5823,2.6571,2.6695,2.6871,2.7172,2.7278,2.7309,2.7333,2.7357,2.7452,2.7607,2.8045,2.9107,3.0508,3.1289,3.242,3.3721,3.4293,3.4397,3.4397,3.4397,3.4397,3.4397,3.4397,3.4397,3.441,3.441,3.4424,3.4424,3.4424,3.4384,3.4319,3.4371,3.4646,3.4502,3.4698,3.4196,3.3843,3.3731,3.3757,3.3888,3.4214,3.4806,3.5249,3.5791,3.6531,3.7436,3.8406,3.9017,3.9301,3.9406,3.9406,3.9436,3.9481,3.9571,1.2523,1.2681,1.2491,1.2523,1.3029,1.498,1.5994,1.6525,1.837,1.9272,1.9298,1.9298,1.9298,1.9298,1.9298,1.9298,1.9298,1.9298,1.9298,1.9298,1.9298,1.9298,1.9298,1.9298,1.9298,1.9298,1.9298,1.9298,1.9298,1.9298,1.9298,1.9298,1.9298,1.9232,1.9137,1.8983,1.8912,1.914,1.9226,1.9625,1.999,2.0371,2.0548,2.0898,2.1739,2.2181,2.1961,2.2432,2.2829,2.3061,2.3863,2.4251,2.4401,2.4485,2.4753,2.4993,2.5087,2.5284,2.5709,2.6125,2.6374,2.6654,2.6913,2.7143,2.7289,2.732,2.732,2.7357,2.7452,2.757,2.7618,2.8032,2.8805,2.9966,3.0978,3.2006,3.31,3.3827,3.4314,3.4377,3.4377,3.4397,3.4397,3.4397,3.4397,3.4476,3.4567,3.458,3.4593,3.458,3.4554,3.4476,3.4384,3.4763,3.5051,3.5443,3.543,3.4986,3.4776,3.4593,3.4593,3.4371,3.4677,3.5559,3.6232,3.6932,3.7838,3.8767,3.9271,3.9609,3.9538,3.9448,3.9765,4.0098,4.0217,1.2382,1.2382,1.2382,1.2382,1.2708,1.4234,1.5387,1.6101,1.7681,1.8769,1.9168,1.9298,1.9298,1.9298,1.9298,1.9298,1.9298,1.9298,1.9298,1.9298,1.9298,1.9298,1.9298,1.9298,1.9298,1.9298,1.9298,1.9298,1.9298,1.9298,1.9298,1.9298,1.9298,1.9298,1.9283,1.9166,1.9071,1.9056,1.9149,1.9262,1.9446,1.9974,2.0325,2.0749,2.1288,2.163,2.1826,2.1678,2.2241,2.2803,2.3718,2.4177,2.4447,2.4902,2.5326,2.5511,2.5575,2.5784,2.6167,2.6532,2.6664,2.6944,2.7172,2.7299,2.732,2.732,2.7357,2.7441,2.7513,2.7726,2.7985,2.8254,2.8897,2.9818,3.0587,3.1533,3.2636,3.3335,3.3805,3.4209,3.4314,3.4322,3.4397,3.4397,3.4397,3.4502,3.4685,3.4763,3.4803,3.4776,3.4763,3.475,3.4724,3.5025,3.5469,3.5966,3.6227,3.5913,3.5665,3.5482,3.5338,3.5142,3.5661,3.6509,3.7065,3.7299,3.8197,3.9064,3.9476,3.9934,4.014,4.0334,4.0494,4.0681,4.0849,1.2382,1.2382,1.2382,1.2382,1.2599,1.3705,1.4857,1.5968,1.7127,1.8291,1.9194,1.9298,1.9298,1.9298,1.9298,1.9298,1.9298,1.9298,1.9298,1.9298,1.9298,1.9298,1.9298,1.9298,1.9298,1.9298,1.9298,1.9298,1.9298,1.9298,1.9298,1.9298,1.9298,1.9298,1.9283,1.9268,1.9298,1.9376,1.9576,1.9706,1.9939,2.0256,2.0547,2.0583,2.0512,2.0947,2.1429,2.1393,2.1616,2.2394,2.3403,2.4257,2.4472,2.5479,2.6154,2.6167,2.6094,2.6324,2.6625,2.677,2.6933,2.7182,2.7289,2.732,2.732,2.7333,2.7381,2.7536,2.7678,2.7891,2.8254,2.8465,2.8932,2.9555,3.0113,3.0699,3.1753,3.2571,3.3143,3.356,3.3995,3.4381,3.4601,3.4502,3.4515,3.4829,3.5025,3.5142,3.5168,3.5051,3.5038,3.5064,3.5142,3.5391,3.5822,3.6384,3.6554,3.6401,3.6266,3.6136,3.6031,3.5926,3.6542,3.6993,3.7107,3.7428,3.8398,3.9355,3.9915,4.0438,4.0876,4.1053,4.098,4.1265,4.1553,1.2382,1.2382,1.2382,1.2382,1.2572,1.3657,1.4831,1.5994,1.7041,1.8239,1.9298,1.9298,1.9298,1.9298,1.9298,1.9298,1.9298,1.9298,1.9298,1.9298,1.9298,1.9298,1.9298,1.9298,1.9298,1.9298,1.9298,1.9298,1.9298,1.9298,1.9298,1.9298,1.9298,1.9298,1.9298,1.9298,1.9298,1.9324,1.955,1.9887,2.0256,2.0411,2.0591,2.0747,2.0802,2.0882,2.1087,2.104,2.1159,2.1402,2.3107,2.403,2.444,2.608,2.693,2.6996,2.683,2.6716,2.7058,2.713,2.7141,2.7299,2.732,2.732,2.732,2.7309,2.7404,2.7594,2.7796,2.8102,2.8418,2.8628,2.8839,2.9175,2.9692,3.0056,3.0789,3.1611,3.2215,3.3233,3.376,3.4542,3.5058,3.4831,3.4685,3.5038,3.5351,3.5495,3.5561,3.5482,3.5325,3.5338,3.5534,3.5783,3.6227,3.6789,3.6972,3.6907,3.6854,3.6776,3.6684,3.6633,3.6713,3.7088,3.7259,3.7823,3.8899,3.9756,4.0406,4.0715,4.0886,4.1089,4.1245,4.166,4.2188,1.2382,1.2382,1.2382,1.2382,1.2463,1.2975,1.4234,1.5755,1.6426,1.7648,1.9063,1.9298,1.9298,1.9298,1.9298,1.9298,1.9298,1.9298,1.9298,1.9298,1.9298,1.9298,1.9298,1.9298,1.9298,1.9298,1.9298,1.9298,1.9298,1.9298,1.9298,1.9298,1.9298,1.9298,1.9298,1.9298,1.9298,1.9324,1.9454,1.968,1.999,2.0223,2.0403,2.0668,2.0822,2.0899,2.0899,2.0899,2.0899,2.1292,2.2953,2.4063,2.4605,2.5979,2.7299,2.7278,2.7109,2.7089,2.7244,2.7286,2.732,2.732,2.732,2.732,2.732,2.7333,2.7465,2.7809,2.7927,2.8186,2.8524,2.871,2.878,2.8989,2.9267,2.9669,3.0068,3.0498,3.1294,3.245,3.3642,3.4548,3.5336,3.5392,3.5391,3.5757,3.6031,3.6188,3.6149,3.6018,3.5835,3.5626,3.5874,3.6162,3.6684,3.722,3.7456,3.7469,3.7469,3.739,3.7325,3.7316,3.7325,3.7617,3.806,3.8738,3.9487,3.9774,4.0071,4.0419,4.0796,4.1013,4.1292,4.2237,4.2713,1.2382,1.2382,1.2382,1.2382,1.2382,1.2382,1.357,1.5355,1.5808,1.7035,1.8553,1.9142,1.9298,1.9298,1.9298,1.9298,1.9298,1.9298,1.9298,1.9298,1.9298,1.9298,1.9298,1.9298,1.9298,1.9298,1.9298,1.9298,1.9298,1.9298,1.9298,1.9298,1.9298,1.9298,1.9298,1.9298,1.9298,1.9298,1.9298,1.9506,1.9835,2.0034,2.03,2.0565,2.0779,2.0899,2.0899,2.0899,2.0899,2.1267,2.2534,2.3651,2.431,2.5698,2.6918,2.7132,2.7247,2.702,2.7003,2.7013,2.7238,2.732,2.732,2.7333,2.7404,2.7394,2.7584,2.8055,2.8092,2.836,2.8664,2.8803,2.8803,2.8803,2.8896,2.9313,2.9692,3.0023,3.0843,3.2261,3.3516,3.479,3.5447,3.5826,3.6109,3.6475,3.6698,3.6828,3.6658,3.641,3.624,3.5992,3.6266,3.6528,3.6894,3.739,3.7704,3.79,3.79,3.7848,3.7678,3.7678,3.77,3.8165,3.8569,3.8614,3.8756,3.9191,3.9688,4.0463,4.1044,4.1024,4.1403,4.238,4.3021,1.2382,1.2382,1.2382,1.2382,1.2382,1.2382,1.3137,1.4568,1.5494,1.6638,1.8082,1.8769,1.9298,1.9298,1.9298,1.9298,1.9298,1.9298,1.9298,1.9298,1.9298,1.9298,1.9298,1.9298,1.9305,1.9312,1.9356,1.9364,1.9316,1.9433,1.9352,1.9279,1.9316,1.9294,1.9298,1.9298,1.9298,1.9298,1.9324,1.9602,1.9905,2.0138,2.037,2.0737,2.0873,2.0899,2.0899,2.0899,2.0925,2.0968,2.2148,2.3111,2.3924,2.5285,2.6332,2.6846,2.7262,2.6942,2.6644,2.6942,2.7262,2.732,2.732,2.7412,2.7662,2.7623,2.7875,2.8393,2.8546,2.8648,2.8818,2.8836,2.9044,2.9099,2.9163,2.9282,2.9505,2.9381,3.0318,3.1971,3.3414,3.4756,3.6116,3.6599,3.6802,3.7142,3.6881,3.6985,3.6763,3.6541,3.6488,3.6436,3.6684,3.6894,3.7024,3.739,3.7782,3.79,3.79,3.79,3.7848,3.79,3.79,3.7972,3.8215,3.8113,3.8119,3.8616,3.9373,4.0682,4.1197,4.0753,4.0923,4.1713,4.2461,1.2382,1.2382,1.2382,1.2382,1.2382,1.2382,1.3088,1.4272,1.5408,1.6982,1.8612,1.9089,1.9298,1.9298,1.9298,1.9298,1.9298,1.9298,1.9298,1.9298,1.9298,1.9298,1.9298,1.9327,1.9298,1.9371,1.9481,1.9598,1.962,1.9711,1.985,1.9791,1.9506,1.9308,1.9298,1.9364,1.9342,1.9379,1.9502,1.9772,2.0034,2.03,2.0532,2.0865,2.0899,2.0899,2.0899,2.0899,2.0899,2.1147,2.1954,2.2593,2.3336,2.4732,2.5718,2.638,2.687,2.6928,2.6747,2.7034,2.7296,2.732,2.733,2.7553,2.8033,2.8109,2.854,2.8946,2.9227,2.9271,2.9594,2.9687,2.9718,2.9674,2.9609,2.9589,2.9545,2.9469,3.044,3.2358,3.3623,3.4819,3.6213,3.7511,3.7639,3.7733,3.7403,3.7103,3.6946,3.6828,3.6828,3.6815,3.7037,3.7273,3.7403,3.7652,3.79,3.79,3.79,3.79,3.79,3.79,3.79,3.79,3.79,3.7969,3.8054,3.8215,3.8831,3.9728,4.0065,3.9986,4.0439,4.1071,4.1755,1.2382,1.2382,1.2382,1.2382,1.2382,1.2382,1.2871,1.3759,1.4852,1.6664,1.8795,1.9063,1.9298,1.9298,1.9298,1.9298,1.9298,1.9298,1.9298,1.9342,1.94,1.943,1.9474,1.9535,1.9652,1.9623,1.974,1.9928,1.9935,2.0101,2.013,2.0006,1.9801,1.9652,1.9601,1.9583,1.9557,1.9636,1.9847,2.0129,2.0406,2.056,2.0917,2.1151,2.1169,2.1089,2.1097,2.1089,2.101,2.1152,2.1555,2.2097,2.2895,2.3809,2.4928,2.5718,2.6318,2.6873,2.7037,2.7242,2.7201,2.6998,2.7558,2.798,2.8484,2.8777,2.9221,2.9694,2.9889,3.0025,3.0253,3.01,3.0057,2.9969,2.9991,2.9958,2.998,3.0031,3.1343,3.2828,3.3839,3.4762,3.6141,3.7422,3.7795,3.7874,3.7717,3.7495,3.7416,3.7338,3.7325,3.7312,3.7351,3.7586,3.7795,3.7861,3.79,3.79,3.79,3.79,3.79,3.79,3.79,3.79,3.79,3.79,3.7972,3.807,3.8214,3.8462,3.8895,3.9431,3.9659,4.0289,4.1029,1.2382,1.2382,1.2382,1.2382,1.2382,1.2382,1.2463,1.2817,1.4029,1.5767,1.7845,1.8795,1.9298,1.9298,1.9298,1.9298,1.9298,1.9298,1.9298,1.9349,1.9569,1.9735,1.984,1.9916,2.0011,2.0152,2.0203,2.0203,2.0196,2.0342,2.0334,2.0327,2.0269,2.0137,2.0154,2.0174,2.0174,2.0221,2.0476,2.0728,2.0949,2.1034,2.1372,2.1595,2.1526,2.1415,2.1407,2.1407,2.1312,2.1249,2.1245,2.1769,2.2511,2.2824,2.3956,2.5522,2.5796,2.6148,2.6448,2.6984,2.71,2.6917,2.7584,2.8512,2.9193,2.9599,2.9885,3.0367,3.0365,3.0313,3.0297,3.0308,3.0384,3.0428,3.0472,3.0493,3.0537,3.0573,3.1784,3.2958,3.3732,3.4589,3.5997,3.7165,3.77,3.79,3.79,3.7848,3.7756,3.7717,3.7639,3.7625,3.7612,3.7704,3.7861,3.7874,3.79,3.79,3.79,3.79,3.79,3.79,3.79,3.79,3.79,3.79,3.79,3.7923,3.808,3.8272,3.8671,3.9091,3.921,3.9593,4.0439,1.2382,1.2382,1.2382,1.2382,1.2382,1.2382,1.2409,1.2758,1.4449,1.6187,1.7602,1.8803,1.9298,1.9298,1.9298,1.9298,1.9298,1.9298,1.9298,1.9342,1.9642,1.9752,1.9891,2.0077,2.0225,2.0249,2.0378,2.0532,2.0532,2.0663,2.0817,2.0853,2.0729,2.0597,2.032,2.021,2.0257,2.0557,2.0814,2.1113,2.1418,2.1594,2.1766,2.2043,2.187,2.1791,2.1791,2.1783,2.1732,2.1676,2.1671,2.1915,2.2413,2.27,2.3884,2.5351,2.5901,2.6572,2.7006,2.7496,2.7745,2.7621,2.7922,2.8996,2.992,3.0185,3.0546,3.0917,3.0993,3.1014,3.1181,3.1145,3.1178,3.1214,3.1247,3.1211,3.1258,3.1247,3.1876,3.3007,3.3929,3.5311,3.6692,3.7284,3.7749,3.79,3.79,3.79,3.7835,3.7835,3.7808,3.7821,3.7821,3.7848,3.79,3.79,3.79,3.79,3.79,3.79,3.79,3.79,3.79,3.79,3.79,3.79,3.79,3.7923,3.8015,3.8217,3.8472,3.8549,3.8562,3.9171,4.0138,1.2382,1.2382,1.2382,1.2382,1.2463,1.2844,1.3219,1.3884,1.5648,1.6935,1.774,1.8776,1.9298,1.9298,1.9298,1.9298,1.9298,1.9298,1.9298,1.9349,1.9635,1.9779,1.9906,2.0137,2.0386,2.0459,2.067,2.0868,2.086,2.1094,2.1152,2.1145,2.1203,2.0934,2.0706,2.0744,2.0876,2.1176,2.1461,2.1797,2.1971,2.2103,2.222,2.231,2.2271,2.2194,2.2194,2.2233,2.232,2.2444,2.2574,2.2601,2.2868,2.3277,2.4219,2.5255,2.6827,2.7369,2.7562,2.8218,2.8386,2.8134,2.8628,2.9529,3.0496,3.081,3.1088,3.14,3.1556,3.1582,3.1571,3.1593,3.1593,3.1582,3.1571,3.1549,3.1538,3.1531,3.1622,3.2778,3.3834,3.5451,3.7004,3.7482,3.7877,3.79,3.79,3.79,3.79,3.79,3.79,3.79,3.79,3.79,3.79,3.79,3.79,3.79,3.79,3.79,3.79,3.79,3.79,3.79,3.79,3.79,3.79,3.7946,3.7992,3.7992,3.8047,3.8047,3.7936,3.8765,3.9834,1.2377,1.2382,1.2382,1.2382,1.2599,1.3678,1.4831,1.5888,1.7041,1.7556,1.7694,1.8829,1.9298,1.9298,1.9298,1.9298,1.9298,1.9298,1.9298,1.9393,1.9635,1.973,1.9979,2.0311,2.0429,2.0685,2.0903,2.0976,2.1152,2.1196,2.1203,2.1211,2.1211,2.1144,2.1221,2.1383,2.1524,2.172,2.2022,2.2316,2.2473,2.253,2.2621,2.2688,2.2668,2.2557,2.2525,2.2517,2.3013,2.335,2.3698,2.3743,2.3797,2.3753,2.443,2.5698,2.7823,2.8036,2.8261,2.8978,2.9266,2.9176,2.9666,3.0444,3.0956,3.1283,3.144,3.1524,3.1593,3.1593,3.1593,3.1593,3.1593,3.1593,3.1593,3.1582,3.1593,3.1582,3.1582,3.2269,3.3151,3.4556,3.6285,3.7108,3.79,3.79,3.79,3.79,3.79,3.79,3.79,3.79,3.79,3.79,3.79,3.79,3.79,3.79,3.79,3.79,3.79,3.79,3.79,3.79,3.79,3.79,3.79,3.79,3.7923,3.79,3.79,3.79,3.7923,3.8616,3.9571,1.2255,1.2377,1.2382,1.2382,1.2708,1.4557,1.5621,1.6047,1.71,1.7615,1.7661,1.8803,1.9272,1.9298,1.9298,1.9298,1.9298,1.9298,1.9298,1.9415,1.9591,1.9757,1.9928,2.015,2.0305,2.0466,2.0649,2.0882,2.0904,2.1057,2.1211,2.1211,2.1239,2.1325,2.1546,2.1831,2.1945,2.2088,2.2428,2.2655,2.2816,2.2831,2.2934,2.2919,2.2903,2.2815,2.2815,2.2815,2.337,2.4217,2.4446,2.4727,2.5685,2.5026,2.499,2.6124,2.7653,2.8621,2.9203,2.9605,2.9891,3.0104,3.044,3.0833,3.1289,3.1516,3.1593,3.1593,3.1593,3.1593,3.1593,3.1593,3.1593,3.1593,3.1593,3.1593,3.1593,3.1593,3.1593,3.1964,3.2837,3.4361,3.6012,3.7214,3.7913,3.79,3.79,3.79,3.79,3.79,3.79,3.79,3.79,3.79,3.79,3.79,3.79,3.79,3.79,3.79,3.79,3.79,3.79,3.79,3.79,3.79,3.79,3.79,3.79,3.79,3.7913,3.79,3.8047,3.8809,3.9414,1.2103,1.2255,1.2291,1.282,1.3959,1.5295,1.6346,1.7219,1.797,1.8265,1.8351,1.8985,1.9298,1.9298,1.9298,1.9298,1.9298,1.9298,1.9298,1.9356,1.9536,1.9539,1.9693,1.9898,2.0018,2.0166,2.0429,2.0736,2.0808,2.102,2.1211,2.1211,2.1296,2.1497,2.1753,2.2059,2.2286,2.2428,2.2598,2.2824,2.2929,2.3014,2.3014,2.3014,2.3014,2.3014,2.3014,2.3014,2.3652,2.475,2.5055,2.5735,2.658,2.6182,2.63,2.7389,2.8353,2.923,2.9749,2.9885,3.0297,3.0646,3.0801,3.109,3.1337,3.1567,3.1593,3.1593,3.1593,3.1593,3.1593,3.1593,3.1593,3.1593,3.1593,3.1593,3.1593,3.1593,3.1746,3.1975,3.3051,3.4544,3.5917,3.7121,3.7913,3.79,3.79,3.79,3.79,3.79,3.79,3.79,3.79,3.79,3.79,3.79,3.79,3.79,3.79,3.79,3.79,3.79,3.79,3.79,3.79,3.7926,3.7991,3.7913,3.79,3.7978,3.8174,3.8305,3.8563,3.9138,3.9663,1.1905,1.2126,1.2136,1.3528,1.571,1.5888,1.7114,1.9168,1.9168,1.9246,1.9246,1.9272,1.9298,1.9298,1.9298,1.9298,1.9298,1.9298,1.9298,1.9298,1.9349,1.9378,1.9452,1.9591,1.9723,1.9964,2.0257,2.0565,2.0842,2.1105,2.1354,2.1268,2.1546,2.1782,2.1981,2.2322,2.2541,2.2655,2.2788,2.2986,2.2986,2.3014,2.3014,2.3014,2.3014,2.3014,2.3014,2.3211,2.356,2.4742,2.5561,2.6164,2.6707,2.7383,2.7849,2.8206,2.8837,2.9438,2.9853,3.0036,3.036,3.062,3.0838,3.1152,3.1424,3.1567,3.1593,3.1593,3.1593,3.1593,3.1593,3.1593,3.1593,3.1593,3.1593,3.1593,3.1593,3.1593,3.1644,3.2015,3.2937,3.4361,3.5307,3.6439,3.7564,3.7726,3.79,3.79,3.79,3.79,3.79,3.79,3.79,3.79,3.79,3.79,3.79,3.79,3.79,3.79,3.79,3.79,3.79,3.7952,3.8004,3.8057,3.8096,3.8214,3.837,3.8423,3.8619,3.8765,3.9133,3.9624,4.0003,1.1782,1.21,1.2277,1.3707,1.5775,1.5914,1.7193,1.922,1.9298,1.9298,1.9298,1.9298,1.9298,1.9298,1.9298,1.9298,1.9298,1.9298,1.9298,1.9298,1.9298,1.9298,1.9298,1.9408,1.9452,1.9539,1.9867,2.0512,2.1044,2.1411,2.1689,2.1831,2.2002,2.2088,2.2286,2.2598,2.2711,2.2845,2.2929,2.3014,2.3014,2.3014,2.3014,2.3014,2.3014,2.3014,2.3014,2.3042,2.3728,2.4695,2.4972,2.5607,2.6436,2.7598,2.8143,2.8276,2.8731,2.9296,2.9869,3.0193,3.0453,3.075,3.0983,3.1255,3.1476,3.1553,3.1593,3.1593,3.1593,3.1593,3.1593,3.1593,3.1593,3.1593,3.1593,3.1593,3.1593,3.1593,3.1593,3.2193,3.2962,3.387,3.4799,3.5798,3.6875,3.7482,3.7772,3.79,3.79,3.79,3.79,3.79,3.79,3.79,3.79,3.79,3.79,3.79,3.79,3.79,3.79,3.8004,3.8096,3.8109,3.8148,3.837,3.8671,3.8998,3.9092,3.8998,3.9168,3.9366,3.9692,4.0158,4.0484,1.1567,1.1848,1.2055,1.3593,1.5606,1.5767,1.7095,1.9016,1.9298,1.9298,1.9298,1.9298,1.9298,1.9298,1.9298,1.9298,1.9298,1.9298,1.9298,1.9298,1.9298,1.9298,1.9298,1.9298,1.932,1.94,2.0,2.0681,2.1371,2.1717,2.1974,2.2137,2.2222,2.2428,2.2626,2.2703,2.2816,2.2986,2.3014,2.3014,2.3014,2.3014,2.3014,2.3014,2.3014,2.3014,2.3014,2.3014,2.3344,2.4298,2.4982,2.6254,2.7329,2.8482,2.8943,2.9049,2.9217,2.9349,2.9963,3.0339,3.0599,3.0894,3.1075,3.1322,3.1527,3.1593,3.1593,3.1593,3.1593,3.1593,3.1593,3.1593,3.1593,3.1593,3.1593,3.1593,3.1593,3.1593,3.1593,3.1797,3.2686,3.3747,3.4702,3.5714,3.6745,3.7634,3.7877,3.79,3.79,3.79,3.79,3.79,3.79,3.79,3.79,3.79,3.79,3.79,3.79,3.7926,3.7965,3.8174,3.8305,3.8436,3.8658,3.8974,3.9288,3.9562,3.9536,3.9377,3.9677,4.003,4.0332,4.0594,4.0854,1.1648,1.1882,1.2142,1.3648,1.5765,1.5751,1.7002,1.8981,1.9232,1.9261,1.9298,1.9298,1.9298,1.9298,1.9298,1.9298,1.9298,1.9298,1.9298,1.9298,1.9298,1.9298,1.9298,1.9298,1.9368,1.9753,2.0348,2.1023,2.1728,2.2034,2.223,2.2258,2.2428,2.2655,2.2711,2.2845,2.3014,2.3014,2.3014,2.3014,2.3014,2.3014,2.3014,2.3014,2.3014,2.3014,2.3014,2.3014,2.3014,2.3888,2.5131,2.6653,2.7956,2.9032,2.9554,2.9748,2.9816,3.0026,3.0349,3.0521,3.0806,3.1049,3.1178,3.1322,3.1553,3.1593,3.1593,3.1593,3.1593,3.1593,3.1593,3.1593,3.1593,3.1593,3.1593,3.1593,3.1593,3.1593,3.1593,3.1618,3.2384,3.3449,3.4593,3.5618,3.6498,3.74,3.7913,3.79,3.79,3.79,3.79,3.79,3.79,3.79,3.79,3.79,3.79,3.79,3.79,3.7939,3.8096,3.8527,3.8828,3.8932,3.9194,3.9562,3.9771,3.998,3.9888,3.9899,4.0239,4.0581,4.0659,4.0907,4.1103,1.3049,1.4034,1.4226,1.5156,1.6341,1.639,1.7378,1.872,1.8917,1.9041,1.9239,1.9298,1.9298,1.9298,1.9298,1.9298,1.9298,1.9298,1.9298,1.9298,1.9298,1.9298,1.9298,1.9357,1.9616,2.0124,2.0737,2.1369,2.1984,2.2338,2.2626,2.276,2.2816,2.2909,2.2929,2.3014,2.3014,2.3014,2.3014,2.3014,2.3014,2.3014,2.3014,2.3014,2.3014,2.3014,2.3014,2.3014,2.3014,2.3692,2.5158,2.6834,2.8179,2.928,2.9827,3.0047,3.0141,3.0323,3.0479,3.0754,3.1075,3.1193,3.1322,3.1476,3.1593,3.1593,3.1593,3.1593,3.1593,3.1593,3.1593,3.1593,3.1593,3.1593,3.1593,3.1593,3.1593,3.1593,3.1593,3.1593,3.1848,3.3076,3.441,3.5307,3.6012,3.6947,3.7922,3.7932,3.7926,3.7913,3.7926,3.7913,3.7926,3.79,3.79,3.7913,3.7913,3.79,3.8044,3.8318,3.8671,3.9092,3.934,3.9468,3.9795,4.0189,4.0359,4.0463,4.0659,4.0711,4.092,4.1142,4.1142,4.1129,4.1234]},{"header":{"parameterUnit":"m.s-1","parameterCategory":1,"la1":31.0,"la2":29.5877,"lo1":-88.7671,"lo2":-86.6584,"dy":0.0162,"dx":0.0185,"nx":115,"ny":88,"refTime":"2024-04-10T06:00:00:Z","depth":0,"parameterNumber":3,"parameterNumberName":"V-component_of_WINDS"},"data":[0.0,0.0,0.0,0.0,0.0,0.0,0.0,0.0,0.0,0.0,0.0,0.0,0.0,0.0,0.0,0.0,0.0,0.0,0.0,0.0,0.0,0.0,0.0,0.0,0.0,0.0,0.0,0.0,0.0,0.0,0.0,0.0,0.0,0.0,0.0,0.0,0.0,0.0,0.0,0.0,0.0,0.0,0.0,0.0,0.0,0.0,0.0,0.0,0.0,0.0,0.0,0.0,0.0,0.0,0.0,0.0,0.0,0.0,0.0,0.0,0.0,0.0,0.0,0.0,0.0,0.0,0.0,0.0,0.0,0.0,0.0,0.0,0.0,0.0,0.0,0.0,0.0,0.0,0.0,0.0,0.0,0.0,0.0,0.0,0.0,0.0,0.0,0.0,0.0,0.0,0.0,0.0,0.0,0.0,0.0,0.0,0.0,0.0,0.0,0.0,0.0,0.0,0.0,0.0,0.0,0.0,0.0,0.0,0.0,0.0,0.0,0.0,0.0,0.0,0.0,0.0,0.0,0.0,0.0,0.0,0.0,0.0,0.0,0.0,0.0,0.0,0.0,0.0,0.0,0.0,0.0,0.0,0.0,0.0,0.0,0.0,0.0,0.0,0.0,0.0,0.0,0.0,0.0,0.0,0.0,0.0,0.0,0.0,0.0,0.0,0.0,0.0,0.0,0.0,0.0,0.0,0.0,0.0,0.0,0.0,0.0,0.0,0.0,0.0,0.0,0.0,0.0,0.0,0.0,0.0,0.0,0.0,0.0,0.0,0.0,0.0,0.0,0.0,0.0,0.0,0.0,0.0,0.0,0.0,0.0,0.0,0.0,0.0,0.0,0.0,0.0,0.0,0.0,0.0,0.0,0.0,0.0,0.0,0.0,0.0,0.0,0.0,0.0,0.0,0.0,0.0,0.0,0.0,0.0,0.0,0.0,0.0,0.0,0.0,0.0,0.0,0.0,0.0,0.0,0.0,0.0,0.0,0.0,0.0,0.0,0.0,0.0,0.0,0.0,0.0,0.0,0.0,0.0,0.0,0.0,0.0,0.0,0.0,0.0,0.0,0.0,0.0,0.0,0.0,0.0,0.0,0.0,0.0,0.0,0.0,0.0,0.0,0.0,0.0,0.0,0.0,0.0,0.0,0.0,0.0,0.0,0.0,0.0,0.0,0.0,0.0,0.0,0.0,0.0,0.0,0.0,0.0,0.0,0.0,0.0,0.0,0.0,0.0,0.0,0.0,0.0,0.0,0.0,0.0,0.0,0.0,0.0,0.0,0.0,0.0,0.0,0.0,0.0,0.0,0.0,0.0,0.0,0.0,0.0,0.0,0.0,0.0,0.0,0.0,0.0,0.0,0.0,0.0,0.0,0.0,0.0,0.0,0.0,0.0,0.0,0.0,0.0,0.0,0.0,0.0,0.0,0.0,0.0,0.0,0.0,0.0,0.0,0.0,0.0,0.0,0.0,0.0,0.0,0.0,0.0,0.0,0.0,0.0,0.0,0.0,0.0,0.0,0.0,0.0,0.0,0.0,0.0,0.0,0.0,0.0,0.0,0.0,0.0,0.0,0.0,0.0,0.0,0.0,0.0,0.0,0.0,0.0,0.0,0.0,0.0,0.0,0.0,0.0,0.0,0.0,0.0,0.0,0.0,0.0,0.0,0.0,0.0,0.0,0.0,0.0,0.0,0.0,0.0,0.0,0.0,0.0,0.0,0.0,0.0,0.0,0.0,0.0,0.0,0.0,0.0,0.0,0.0,0.0,0.0,0.0,0.0,0.0,0.0,0.0,0.0,0.0,0.0,0.0,0.0,0.0,0.0,0.0,0.0,0.0,0.0,0.0,0.0,0.0,0.0,0.0,0.0,0.0,0.0,0.0,0.0,0.0,0.0,0.0,0.0,0.0,0.0,0.0,0.0,0.0,0.0,0.0,0.0,0.0,0.0,0.0,0.0,0.0,0.0,0.0,0.0,0.0,0.0,0.0,0.0,0.0,0.0,0.0,0.0,0.0,0.0,0.0,0.0,0.0,0.0,0.0,0.0,0.0,0.0,0.0,0.0,0.0,0.0,0.0,0.0,0.0,0.0,0.0,0.0,0.0,0.0,0.0,0.0,0.0,0.0,0.0,0.0,0.0,0.0,0.0,0.0,0.0,0.0,0.0,0.0,0.0,0.0,0.0,0.0,0.0,0.0,0.0,0.0,0.0,0.0,0.0,0.0,0.0,0.0,0.0,0.0,0.0,0.0,0.0,0.0,0.0,0.0,0.0,0.0,0.0,0.0,0.0,0.0,0.0,0.0,0.0,0.0,0.0,0.0,0.0,0.0,0.0,0.0,0.0,0.0,0.0,0.0,0.0,0.0,0.0,0.0,0.0,0.0,0.0,0.0,0.0,0.0,0.0,0.0,0.0,0.0,0.0,0.0,0.0,0.0,0.0,0.0,0.0,0.0,0.0,0.0,0.0,0.0,0.0,0.0,0.0,0.0,0.0,0.0,0.0,0.0,0.0,0.0,0.0,0.0,0.0,0.0,0.0,0.0,0.0,0.0,0.0,0.0,0.0,0.0,0.0,0.0,0.0,0.0,0.0,0.0,0.0,0.0,0.0,0.0,0.0,0.0,0.0,0.0,0.0,0.0,0.0,0.0,0.0,0.0,0.0,0.0,0.0,0.0,0.0,0.0,0.0,0.0,0.0,0.0,0.0,0.0,0.0,0.0,0.0,0.0,0.0,0.0,0.0,0.0,0.0,0.0,0.0,0.0,0.0,0.0,0.0,0.0,0.0,0.0,0.0,0.0,0.0,0.0,0.0,0.0,0.0,0.0,0.0,0.0,0.0,0.0,0.0,0.0,0.0,0.0,0.0,0.0,0.0,0.0,0.0,0.0,0.0,0.0,0.0,0.0,0.0,0.0,0.0,0.0,0.0,0.0,0.0,0.0,0.0,0.0,0.0,0.0,0.0,0.0,0.0,0.0,0.0,0.0,0.0,0.0,0.0,0.0,0.0,0.0,0.0,0.0,0.0,0.0,0.0,0.0,0.0,0.0,0.0,0.0,0.0,0.0,0.0,0.0,0.0,0.0,0.0,0.0,0.0,0.0,0.0,0.0,0.0,0.0,0.0,0.0,0.0,0.0,0.0,0.0,0.0,0.0,0.0,0.0,0.0,0.0,0.0,0.0,0.0,0.0,0.0,0.0,0.0,0.0,0.0,0.0,0.0,0.0,0.0,0.0,0.0,0.0,0.0,0.0,0.0,0.0,0.0,0.0,0.0,0.0,0.0,0.0,0.0,0.0,0.0,0.0,0.0,0.0,0.0,0.0,0.0,0.0,0.0,0.0,0.0,0.0,0.0,0.0,0.0,0.0,0.0,0.0,0.0,0.0,0.0,0.0,0.0,0.0,0.0,0.0,0.0,0.0,0.0,0.0,0.0,0.0,0.0,0.0,0.0,0.0,0.0,0.0,0.0,0.0,0.0,0.0,0.0,0.0,0.0,0.0,0.0,0.0,0.0,0.0,0.0,0.0,0.0,0.0,0.0,0.0,0.0,0.0,0.0,0.0,0.0,0.0,0.0,0.0,0.0,0.0,0.0,0.0,0.0,0.0,0.0,0.0,0.0,0.0,0.0,0.0,0.0,0.0,0.0,0.0,0.0,0.0,0.0,0.0,0.0,0.0,0.0,0.0,0.0,0.0,0.0,0.0,0.0,0.0,0.0,0.0,0.0,0.0,0.0,0.0,0.0,0.0,0.0,0.0,0.0,0.0,0.0,0.0,0.0,0.0,0.0,0.0,0.0,0.0,0.0,0.0,0.0,0.0,0.0,0.0,0.0,0.0,0.0,0.0,0.0,0.0,0.0,0.0,0.0,0.0,0.0,0.0,0.0,0.0,0.0,0.0,0.0,0.0,0.0,0.0,0.0,0.0,0.0,0.0,0.0,0.0,0.0,0.0,0.0,0.0,0.0,0.0,0.0,0.0,0.0,0.0,0.0,0.0,0.0,0.0,0.0,0.0,0.0,0.0,0.0,0.0,0.0,0.0,0.0,0.0,0.0,0.0,0.0,0.0,0.0,0.0,0.0,0.0,0.0,0.0,0.0,0.0,0.0,0.0,0.0,0.0,0.0,0.0,0.0,0.0,0.0,0.0,0.0,0.0,0.0,0.0,0.0,0.0,0.0,0.0,0.0,0.0,0.0,0.0,0.0,0.0,0.0,0.0,0.0,0.0,0.0,0.0,0.0,0.0,0.0,0.0,0.0,0.0,0.0,0.0,0.0,0.0,0.0,1.2388,0.0,0.0,0.0,0.0,0.0,0.0,0.0,0.0,0.0,0.0,0.0,0.0,0.0,0.0,0.0,0.0,0.0,0.0,0.0,0.0,0.0,0.0,0.0,0.0,0.0,0.0,0.0,0.0,0.0,0.0,0.0,0.0,0.0,0.0,0.0,0.0,0.0,0.0,0.0,0.0,0.0,0.0,0.0,0.0,0.0,0.0,0.0,0.0,0.0,0.0,0.0,0.0,0.0,0.0,0.0,0.0,0.0,0.0,0.0,0.0,0.0,0.0,0.0,0.0,0.0,0.0,0.0,0.0,0.0,0.0,0.0,0.0,0.0,0.0,0.0,0.0,0.0,0.0,0.0,0.0,0.0,0.0,0.0,0.0,0.0,0.0,0.0,0.0,0.0,0.0,0.0,0.0,0.0,0.0,0.0,0.0,0.0,0.0,0.0,0.0,0.0,0.0,0.0,0.0,0.0,0.0,0.0,0.0,0.0,0.0,1.2018,1.2044,1.2112,1.2174,1.2246,0.0,0.0,0.0,0.0,0.0,0.0,0.0,0.0,0.0,0.0,0.0,0.0,0.0,0.0,0.0,0.0,0.0,0.0,0.0,0.0,0.0,0.0,0.0,0.0,0.0,0.0,0.0,0.0,0.0,0.0,0.0,0.0,0.0,0.0,0.0,0.0,0.0,0.0,0.0,0.0,0.0,0.0,0.0,0.0,0.0,0.0,0.0,0.0,0.0,0.0,0.0,0.0,0.0,0.0,0.0,0.0,0.0,0.0,0.0,0.0,0.0,0.0,0.0,0.0,0.0,0.0,0.0,0.0,0.0,0.0,0.0,0.0,0.0,0.0,0.0,0.0,0.0,0.0,0.0,0.0,0.0,0.0,0.0,0.0,0.0,0.0,0.0,0.0,0.0,0.0,0.0,0.0,0.0,0.0,0.0,0.0,0.0,0.0,0.0,0.0,0.0,0.0,0.0,0.0,0.0,0.0,0.0,0.0,0.0,0.0,0.0,0.0,1.2039,1.2101,1.2148,0.0,0.0,0.0,0.0,0.0,0.0,0.0,0.0,0.0,0.0,0.0,0.0,0.0,0.0,0.0,0.0,0.0,0.0,0.0,0.0,0.0,0.0,0.0,0.0,0.0,0.0,0.0,0.0,0.0,0.0,0.0,0.0,0.0,0.0,0.0,0.0,0.0,0.0,0.0,0.0,0.0,0.0,0.0,0.0,0.0,0.0,0.0,0.0,0.0,0.0,0.0,0.0,0.0,0.0,0.0,0.0,0.0,0.0,0.0,0.0,0.0,0.0,0.0,0.0,0.0,0.0,0.0,0.0,0.0,0.0,0.0,0.0,0.0,0.0,0.0,0.0,0.0,0.0,0.0,0.0,0.0,0.0,0.0,0.0,0.0,0.0,0.0,0.0,0.0,0.0,0.0,0.0,0.0,0.0,0.0,0.0,0.0,0.0,0.0,0.0,0.0,0.0,0.0,0.0,0.0,0.0,0.0,0.0,0.0,0.0,1.1848,1.1907,1.1975,0.0,1.2272,0.0,0.0,0.0,0.0,0.0,0.0,0.0,0.0,0.0,0.0,0.0,0.0,0.0,0.0,0.0,0.0,0.0,0.0,0.0,0.0,0.0,0.0,0.0,0.0,0.0,0.0,0.0,0.0,0.0,0.0,0.0,0.0,0.0,0.0,0.0,0.0,0.0,0.0,0.0,0.0,0.0,0.0,0.0,0.0,0.0,0.0,0.0,0.0,0.0,0.0,0.0,0.0,0.0,0.0,0.0,0.0,0.0,0.0,0.0,0.0,0.0,0.0,0.0,0.0,0.0,0.0,0.0,0.0,0.0,0.0,0.0,0.0,0.0,0.0,0.0,0.0,0.0,0.0,0.0,0.0,0.0,0.0,0.0,0.0,0.0,0.0,0.0,0.0,0.0,0.0,0.0,0.0,0.0,0.0,0.0,0.0,0.0,0.0,0.0,0.0,0.0,0.0,0.0,0.0,0.0,0.0,0.0,0.0,0.0,0.0,1.1816,1.1843,1.198,1.2138,0.0,0.0,0.0,0.0,0.0,0.0,0.0,0.0,0.0,0.0,0.0,0.0,0.0,0.0,0.0,0.0,0.0,0.0,0.0,0.0,0.0,0.0,0.0,0.0,0.0,0.0,0.0,0.0,0.0,0.0,0.0,0.0,0.0,0.0,0.0,0.0,0.0,0.0,0.0,0.0,0.0,0.0,0.0,0.0,0.0,0.0,0.0,0.0,0.0,0.0,0.0,0.0,0.0,0.0,0.0,0.0,0.0,0.0,0.0,0.0,0.0,0.0,0.0,0.0,0.0,0.0,0.0,0.0,0.0,0.0,0.0,0.0,0.0,0.0,0.0,0.0,0.0,0.0,0.0,0.0,0.0,0.0,0.0,0.0,0.0,0.0,0.0,0.0,0.0,0.0,0.0,0.0,0.0,0.0,0.0,0.0,0.0,0.0,0.0,0.0,0.0,0.0,0.0,0.0,0.0,0.0,0.0,0.0,0.0,0.0,1.1774,1.1816,1.1853,1.2007,1.2154,1.2272,0.0,0.0,0.0,0.0,0.0,0.0,0.0,0.0,0.0,0.0,0.0,0.0,0.0,0.0,0.0,0.0,0.0,0.0,0.0,0.0,0.0,0.0,0.0,0.0,0.0,0.0,0.0,0.0,0.0,0.0,0.0,0.0,0.0,0.0,0.0,0.0,0.0,0.0,0.0,0.0,0.0,0.0,0.0,0.0,0.0,0.0,0.0,0.0,0.0,0.0,0.0,0.0,0.0,0.0,0.0,0.0,0.0,0.0,0.0,0.0,0.0,0.0,0.0,0.0,0.0,0.0,0.0,0.0,0.0,0.0,0.0,0.0,0.0,0.0,0.0,0.0,0.0,0.0,0.0,0.0,0.0,0.0,0.0,0.0,0.0,0.0,0.0,0.0,0.0,0.0,0.0,0.0,0.0,0.0,0.0,0.0,0.0,0.0,0.0,0.0,0.0,0.0,0.0,0.0,0.0,0.0,0.0,0.0,1.1794,1.1747,1.1805,1.1986,1.2049,1.2127,0.0,0.0,0.0,0.0,0.0,0.0,0.0,0.0,0.0,0.0,0.0,0.0,0.0,0.0,0.0,0.0,0.0,0.0,0.0,0.0,0.0,0.0,0.0,0.0,0.0,0.0,0.0,0.0,0.0,0.0,0.0,0.0,0.0,0.0,0.0,0.0,0.0,0.0,0.0,0.0,0.0,0.0,0.0,0.0,0.0,0.0,0.0,0.0,0.0,0.0,0.0,0.0,0.0,0.0,0.0,0.0,0.0,0.0,0.0,0.0,0.0,0.0,0.0,0.0,0.0,0.0,0.0,0.0,0.0,0.0,0.0,0.0,0.0,0.0,0.0,0.0,0.0,0.0,0.0,0.0,0.0,0.0,0.0,0.0,0.0,0.0,0.0,0.0,0.0,0.0,0.0,0.0,0.0,0.0,0.0,0.0,0.0,0.0,0.0,0.0,0.0,0.0,0.0,0.0,0.0,0.0,0.0,0.0,0.0,1.1747,1.1805,1.1859,1.1923,1.2033,1.2117,0.0,0.0,0.0,0.0,0.0,0.0,0.0,0.0,0.0,0.0,0.0,0.0,0.0,0.0,0.0,0.0,0.0,0.0,0.0,0.0,0.0,0.0,0.0,0.0,0.0,0.0,0.0,0.0,0.0,0.0,0.0,0.0,0.0,0.0,0.0,0.0,0.0,0.0,0.0,0.0,0.0,0.0,0.0,0.0,0.0,0.0,0.0,0.0,0.0,0.0,0.0,0.0,0.0,0.0,0.0,0.0,0.0,0.0,0.0,0.0,0.0,0.0,0.0,0.0,0.0,0.0,0.0,0.0,0.0,0.0,0.0,0.0,0.0,0.0,0.0,0.0,0.0,0.0,0.0,0.0,0.0,0.0,0.0,0.0,0.0,0.0,0.0,0.0,0.0,0.0,0.0,0.0,0.0,0.0,0.0,0.0,0.0,0.0,0.0,0.0,0.0,0.0,0.0,0.0,0.0,0.0,0.0,0.0,0.0,1.1709,0.0,1.1928,1.1928,1.2044,1.2117,0.0,0.0,0.0,0.0,0.0,0.0,0.0,0.0,0.0,0.0,0.0,0.0,0.0,0.0,0.0,0.0,0.0,0.0,0.0,0.0,0.0,0.0,0.0,0.0,0.0,0.0,0.0,0.0,0.0,0.0,0.0,0.0,0.0,0.0,0.0,0.0,0.0,0.0,0.0,0.0,0.0,0.0,0.0,0.0,0.0,0.0,0.0,0.0,0.0,0.0,0.0,0.0,0.0,0.0,0.0,0.0,0.0,0.0,0.0,0.0,0.0,0.0,0.0,0.0,0.0,0.0,0.0,0.0,0.0,0.0,0.0,0.0,0.0,0.0,0.0,0.0,0.0,0.0,0.0,0.0,0.0,0.0,0.0,0.0,0.0,0.0,0.0,0.0,0.0,0.0,0.0,0.0,0.0,0.0,0.0,0.0,0.0,0.0,0.0,0.0,0.0,0.0,0.0,0.0,0.0,0.0,0.0,0.0,1.1663,1.1738,1.1946,1.2108,1.2027,1.2131,1.2173,0.0,0.0,0.0,0.0,0.0,0.0,0.0,0.0,0.0,0.0,0.0,0.0,0.0,0.0,0.0,0.0,0.0,0.0,0.0,0.0,0.0,0.0,0.0,0.0,0.0,0.0,0.0,0.0,0.0,0.0,0.0,0.0,0.0,0.0,0.0,0.0,0.0,0.0,0.0,0.0,0.0,0.0,0.0,0.0,0.0,0.0,0.0,0.0,0.0,0.0,0.0,0.0,0.0,0.0,0.0,0.0,0.0,0.0,0.0,0.0,0.0,0.0,0.0,0.0,0.0,0.0,0.0,0.0,0.0,0.0,0.0,0.0,0.0,0.0,0.0,0.0,0.0,0.0,0.0,0.0,0.0,0.0,0.0,0.0,0.0,0.0,0.0,0.0,0.0,0.0,0.0,0.0,0.0,0.0,0.0,0.0,0.0,0.0,0.0,0.0,0.0,0.0,0.0,0.0,0.0,0.0,0.0,0.0,0.0,1.2616,1.3112,1.3375,1.3387,1.3484,1.3325,0.0,0.0,0.0,0.0,0.0,0.0,0.0,0.0,0.0,0.0,0.0,0.0,0.0,0.0,0.0,0.0,0.0,0.0,0.0,0.0,0.0,0.0,0.0,0.0,0.0,0.0,0.0,0.0,0.0,0.0,0.0,0.0,0.0,0.0,0.0,0.0,0.0,0.0,0.0,0.0,0.0,0.0,0.0,0.0,0.0,0.0,0.0,0.0,0.0,0.0,0.0,0.0,0.0,0.0,0.0,0.0,0.0,0.0,0.0,0.0,0.0,0.0,0.0,0.0,0.0,0.0,0.0,0.0,0.0,0.0,0.0,0.0,0.0,0.0,0.0,0.0,0.0,0.0,0.0,0.0,0.0,0.0,0.0,0.0,0.0,0.0,0.0,0.0,0.0,0.0,0.0,0.0,0.0,0.0,0.0,0.0,0.0,0.0,0.0,0.0,0.0,0.0,0.0,0.0,0.0,0.0,0.0,0.0,0.0,1.4197,1.4331,1.4416,1.441,1.4485,1.4209,1.3538,0.0,0.0,0.0,0.0,0.0,0.0,0.0,0.0,0.0,0.0,0.0,0.0,0.0,0.0,0.0,0.0,0.0,0.0,0.0,0.0,0.0,0.0,0.0,0.0,0.0,0.0,0.0,0.0,0.0,0.0,0.0,0.0,0.0,0.0,0.0,0.0,0.0,0.0,0.0,0.0,0.0,0.0,0.0,0.0,0.0,0.0,0.0,0.0,0.0,0.0,0.0,0.0,0.0,0.0,0.0,0.0,0.0,0.0,0.0,0.0,0.0,0.0,0.0,0.0,0.0,0.0,0.0,0.0,0.0,0.0,0.0,0.0,0.0,0.0,0.0,0.0,0.0,0.0,0.0,0.0,0.0,0.0,0.0,0.0,0.0,0.0,0.0,0.0,0.0,0.0,0.0,0.0,0.0,0.0,0.0,0.0,0.0,0.0,0.0,0.0,0.0,0.0,0.0,0.0,0.0,0.0,0.0,0.0,1.6286,1.5649,1.5351,1.5299,1.5246,1.4927,0.0,0.0,0.0,0.0,0.0,0.0,0.0,0.0,0.0,0.0,0.0,0.0,0.0,0.0,0.0,0.0,0.0,0.0,0.0,0.0,0.0,0.0,0.0,0.0,0.0,0.0,0.0,0.0,0.0,0.0,0.0,0.0,0.0,0.0,0.0,0.0,0.0,0.0,0.0,0.0,0.0,0.0,0.0,0.0,0.0,0.0,0.0,0.0,0.0,0.0,0.0,0.0,0.0,0.0,0.0,0.0,0.0,0.0,0.0,0.0,0.0,0.0,0.0,0.0,0.0,0.0,0.0,0.0,0.0,0.0,0.0,0.0,0.0,0.0,0.0,0.0,0.0,0.0,0.0,0.0,0.0,0.0,0.0,0.0,0.0,0.0,0.0,0.0,0.0,0.0,0.0,0.0,0.0,0.0,0.0,0.0,0.0,0.0,0.0,0.0,0.0,0.0,0.0,0.0,0.0,0.0,0.0,0.0,0.0,1.7555,1.7984,1.7946,1.7401,1.6917,1.6341,0.0,0.0,0.0,0.0,0.0,0.0,0.0,0.0,0.0,0.0,0.0,0.0,0.0,0.0,0.0,0.0,0.0,0.0,0.0,0.0,0.0,0.0,0.0,0.0,0.0,0.0,0.0,0.0,0.0,0.0,0.0,0.0,0.0,0.0,0.0,0.0,0.0,0.0,0.0,0.0,0.0,0.0,0.0,0.0,0.0,0.0,0.0,0.0,0.0,0.0,0.0,0.0,0.0,0.0,0.0,0.0,0.0,0.0,0.0,0.0,0.0,0.0,0.0,0.0,0.0,0.0,0.0,0.0,0.0,0.0,0.0,0.0,0.0,0.0,0.0,0.0,0.0,0.0,0.0,0.0,0.0,0.0,0.0,0.0,0.0,0.0,0.0,0.0,0.0,0.0,0.0,0.0,0.0,0.0,0.0,0.0,0.0,0.0,0.0,0.0,0.0,0.0,0.0,0.0,0.0,0.0,0.0,0.0,1.7425,1.8583,1.9331,1.9517,1.9092,1.8123,1.7316,0.0,0.0,0.0,0.0,0.0,0.0,0.0,0.0,0.0,0.0,0.0,0.0,0.0,0.0,0.0,0.0,0.0,0.0,0.0,0.0,0.0,0.0,0.0,0.0,0.0,0.0,0.0,0.0,0.0,0.0,0.0,0.0,0.0,0.0,0.0,0.0,0.0,0.0,0.0,0.0,0.0,0.0,0.0,0.0,0.0,0.0,0.0,0.0,0.0,0.0,0.0,0.0,0.0,0.0,0.0,0.0,0.0,0.0,0.0,0.0,0.0,0.0,0.0,0.0,0.0,0.0,0.0,0.0,0.0,0.0,0.0,0.0,0.0,0.0,0.0,0.0,0.0,0.0,0.0,0.0,0.0,0.0,0.0,0.0,0.0,0.0,0.0,0.0,0.0,0.0,0.0,0.0,0.0,0.0,0.0,0.0,0.0,0.0,0.0,0.0,0.0,0.0,0.0,0.0,0.0,0.0,0.0,0.0,1.849,1.9295,1.995,2.0296,2.0265,1.9015,1.7984,0.0,0.0,0.0,0.0,0.0,0.0,0.0,0.0,0.0,0.0,0.0,0.0,0.0,0.0,0.0,0.0,0.0,0.0,0.0,0.0,0.0,0.0,0.0,0.0,0.0,0.0,0.0,0.0,0.0,0.0,0.0,0.0,0.0,0.0,0.0,0.0,0.0,0.0,0.0,0.0,0.0,0.0,0.0,0.0,0.0,0.0,0.0,0.0,0.0,0.0,0.0,0.0,0.0,0.0,0.0,0.0,0.0,0.0,0.0,0.0,0.0,0.0,0.0,0.0,0.0,0.0,0.0,0.0,0.0,0.0,0.0,0.0,0.0,0.0,0.0,0.0,0.0,0.0,0.0,0.0,0.0,0.0,0.0,0.0,0.0,0.0,0.0,0.0,0.0,0.0,0.0,0.0,0.0,0.0,0.0,0.0,0.0,0.0,0.0,0.0,0.0,0.0,0.0,0.0,0.0,0.0,0.0,0.0,1.849,1.9287,1.995,2.0296,2.0296,1.951,1.8715,0.0,0.0,0.0,0.0,0.0,0.0,0.0,0.0,0.0,0.0,0.0,0.0,0.0,0.0,0.0,0.0,0.0,0.0,0.0,0.0,0.0,0.0,0.0,0.0,0.0,0.0,0.0,0.0,0.0,0.0,0.0,0.0,0.0,0.0,0.0,0.0,0.0,0.0,0.0,0.0,0.0,0.0,0.0,0.0,0.0,0.0,0.0,0.0,1.3192,0.0,0.0,0.0,0.0,0.0,0.0,0.0,0.0,0.0,0.0,0.0,0.0,0.0,0.0,0.0,0.0,0.0,0.0,0.0,0.0,0.0,0.0,0.0,0.0,0.0,0.0,0.0,0.0,0.0,0.0,0.0,0.0,0.0,0.0,0.0,0.0,0.0,0.0,0.0,0.0,0.0,0.0,0.0,0.0,0.0,0.0,0.0,0.0,0.0,0.0,0.0,0.0,0.0,0.0,0.0,0.0,0.0,0.0,0.0,1.9022,1.9749,2.0111,2.0296,2.028,1.9965,1.9277,0.0,0.0,0.0,0.0,0.0,0.0,0.0,0.0,0.0,0.0,0.0,0.0,0.0,0.0,0.0,0.0,0.0,0.0,0.0,0.0,0.0,0.0,0.0,0.0,0.0,0.0,0.0,0.0,0.0,0.0,0.0,0.0,0.0,0.0,0.0,0.0,0.0,0.0,0.0,0.0,0.0,0.0,0.0,0.0,0.0,0.0,0.0,0.0,0.0,0.0,0.0,0.0,0.0,0.0,0.0,0.0,0.0,0.0,0.0,0.0,0.0,0.0,0.0,0.0,0.0,0.0,0.0,0.0,0.0,0.0,0.0,0.0,0.0,0.0,0.0,0.0,0.0,0.0,0.0,0.0,0.0,0.0,0.0,0.0,0.0,0.0,0.0,0.0,0.0,0.0,0.0,0.0,0.0,0.0,0.0,0.0,0.0,0.0,0.0,0.0,0.0,0.0,0.0,0.0,0.0,0.0,0.0,1.8969,1.9688,2.0403,2.035,2.0296,2.0296,2.0296,1.9639,1.8261,0.0,0.0,0.0,0.0,0.0,0.0,0.0,0.0,0.0,0.0,0.0,0.0,0.0,0.0,0.0,0.0,0.0,0.0,0.0,0.0,0.0,0.0,0.0,0.0,0.0,0.0,0.0,0.0,0.0,0.0,0.0,0.0,0.0,0.0,0.0,0.0,0.0,0.0,1.1032,1.2544,0.0,0.0,0.0,0.0,0.0,0.0,0.0,0.0,1.4608,0.0,0.0,0.0,0.0,0.0,0.0,0.0,0.0,0.0,0.0,0.0,0.0,0.0,0.0,0.0,0.0,0.0,0.0,0.0,0.0,0.0,0.0,0.0,0.0,0.0,0.0,0.0,0.0,0.0,0.0,0.0,0.0,0.0,0.0,0.0,0.0,0.0,0.0,0.0,0.0,0.0,0.0,0.0,0.0,0.0,0.0,0.0,0.0,0.0,0.0,0.0,0.0,0.0,0.0,0.0,0.0,1.9077,1.9232,1.9888,2.1088,2.058,2.0296,2.0296,2.0296,1.964,1.8291,0.0,0.0,0.0,0.0,0.0,0.0,0.0,0.0,0.0,0.0,0.0,0.0,0.0,0.0,0.0,0.0,0.0,0.0,0.0,0.0,0.0,0.0,0.0,0.0,0.0,0.0,0.0,0.0,0.0,0.0,0.0,0.0,0.0,0.0,0.0,0.0,0.0,0.0,0.0,1.2752,1.3819,0.0,0.0,0.0,0.0,0.0,0.0,0.0,0.0,1.5229,0.0,0.0,0.0,0.0,0.0,0.0,0.0,0.0,0.0,0.0,0.0,0.0,0.0,0.0,0.0,0.0,0.0,0.0,0.0,0.0,0.0,0.0,0.0,0.0,0.0,0.0,0.0,0.0,0.0,0.0,0.0,0.0,0.0,0.0,0.0,0.0,0.0,0.0,0.0,0.0,0.0,0.0,0.0,0.0,0.0,0.0,0.0,0.0,0.0,0.0,0.0,0.0,0.0,0.0,0.0,1.9787,2.0511,2.118,2.1781,2.1165,2.0989,2.1295,2.0665,1.9825,0.0,0.0,0.0,0.0,0.0,0.0,0.0,0.0,0.0,0.0,0.0,0.0,0.0,0.0,0.0,0.0,0.0,0.0,0.0,0.0,0.0,0.0,0.0,0.0,0.0,0.0,0.0,0.0,0.0,0.0,0.0,0.0,0.0,0.0,0.0,0.0,0.0,0.0,0.0,0.0,1.3669,1.4829,1.5733,0.0,0.0,0.0,0.0,0.0,0.0,1.686,1.6465,0.0,0.0,0.0,0.0,0.0,0.0,0.0,0.0,0.0,0.0,0.0,0.0,0.0,0.0,0.0,0.0,0.0,0.0,0.0,0.0,0.0,0.0,0.0,0.0,0.0,0.0,0.0,0.0,0.0,0.0,0.0,0.0,0.0,0.0,0.0,0.0,0.0,0.0,0.0,0.0,0.0,0.0,0.0,0.0,0.0,0.0,0.0,0.0,0.0,0.0,0.0,0.0,0.0,0.0,0.0,2.0511,2.1679,2.2357,2.248,2.1843,2.1741,2.2265,2.1152,2.0152,0.0,0.0,0.0,0.0,0.0,0.0,0.0,0.0,0.0,0.0,0.0,0.0,0.0,0.0,0.0,0.0,0.0,0.0,0.0,0.0,0.0,0.0,0.0,0.0,0.0,0.0,0.0,0.0,0.0,0.0,0.0,0.0,0.0,0.0,0.0,0.0,0.0,0.0,0.0,0.0,0.0,1.5899,1.7034,1.7586,0.0,0.0,0.0,0.0,1.8186,1.8103,0.0,0.0,0.0,0.0,0.0,0.0,0.0,0.0,0.0,0.0,0.0,0.0,0.0,0.0,0.0,0.0,0.0,0.0,0.0,0.0,0.0,0.0,0.0,0.0,0.0,0.0,0.0,0.0,0.0,0.0,0.0,0.0,0.0,0.0,0.0,0.0,0.0,0.0,0.0,0.0,0.0,0.0,0.0,0.0,0.0,0.0,0.0,0.0,0.0,0.0,0.0,0.0,0.0,0.0,0.0,0.0,2.1159,2.192,2.2578,2.3102,2.2542,2.2234,2.2305,2.1632,2.0677,0.0,0.0,0.0,0.0,0.0,0.0,0.0,0.0,0.0,0.0,0.0,0.0,0.0,0.0,0.0,0.0,0.0,0.0,0.0,0.0,0.0,0.0,0.0,0.0,0.0,0.0,0.0,0.0,0.0,0.0,0.0,0.0,0.0,0.0,0.0,0.0,0.0,0.0,0.0,0.0,0.0,1.6528,1.7717,1.8047,1.8168,0.0,0.0,1.8344,1.8795,1.8784,0.0,0.0,0.0,0.0,0.0,0.0,0.0,0.0,0.0,0.0,0.0,0.0,0.0,0.0,0.0,0.0,0.0,0.0,0.0,0.0,0.0,0.0,0.0,0.0,0.0,0.0,0.0,0.0,0.0,0.0,0.0,0.0,0.0,0.0,0.0,0.0,0.0,0.0,0.0,0.0,0.0,0.0,0.0,0.0,0.0,0.0,0.0,0.0,0.0,0.0,0.0,0.0,0.0,0.0,0.0,2.0912,2.1858,2.2902,2.3569,2.383,2.3219,2.3055,2.3425,2.2155,2.1197,0.0,0.0,0.0,0.0,0.0,0.0,0.0,0.0,0.0,0.0,0.0,0.0,0.0,0.0,0.0,0.0,0.0,0.0,0.0,0.0,0.0,0.0,0.0,0.0,0.0,0.0,0.0,0.0,0.0,0.0,0.0,0.0,0.0,0.0,0.0,0.0,0.0,0.0,0.0,0.0,0.0,0.0,1.8312,1.8833,0.0,0.0,0.0,1.9196,1.9409,0.0,0.0,0.0,0.0,0.0,0.0,0.0,0.0,0.0,0.0,0.0,0.0,0.0,0.0,0.0,0.0,0.0,0.0,0.0,0.0,0.0,0.0,0.0,0.0,0.0,0.0,0.0,0.0,0.0,0.0,0.0,0.0,0.0,0.0,0.0,0.0,0.0,0.0,0.0,0.0,0.0,0.0,0.0,0.0,0.0,0.0,0.0,0.0,0.0,0.0,0.0,0.0,0.0,0.0,0.0,0.0,0.0,2.2305,2.372,2.4441,2.4436,2.4065,2.4084,2.4552,2.3089,0.0,0.0,0.0,0.0,0.0,0.0,0.0,0.0,0.0,0.0,0.0,0.0,0.0,0.0,0.0,0.0,0.0,0.0,0.0,0.0,0.0,0.0,0.0,0.0,0.0,0.0,0.0,0.0,0.0,0.0,0.0,0.0,0.0,0.0,0.0,0.0,0.0,0.0,0.0,0.0,0.0,0.0,1.795,1.8921,1.9509,1.9837,0.0,0.0,1.9837,1.9811,1.9846,1.9628,0.0,0.0,0.0,0.0,0.0,0.0,0.0,0.0,0.0,0.0,0.0,0.0,0.0,0.0,0.0,0.0,0.0,0.0,0.0,0.0,0.0,0.0,0.0,0.0,0.0,0.0,0.0,0.0,0.0,0.0,0.0,0.0,0.0,0.0,0.0,0.0,0.0,0.0,0.0,0.0,0.0,0.0,0.0,0.0,0.0,0.0,0.0,0.0,0.0,0.0,0.0,0.0,0.0,0.0,0.0,2.2345,2.4,2.4859,2.4863,2.5179,2.5379,2.5411,2.4738,2.3726,0.0,0.0,0.0,0.0,0.0,0.0,0.0,0.0,0.0,0.0,0.0,0.0,0.0,0.0,0.0,0.0,0.0,0.0,0.0,0.0,0.0,0.0,0.0,0.0,0.0,0.0,0.0,0.0,0.0,0.0,0.0,0.0,0.0,0.0,0.0,0.0,0.0,0.0,0.0,0.0,0.0,1.8946,1.9647,1.9888,1.9939,0.0,0.0,1.9939,1.9811,2.025,2.0334,1.9483,0.0,0.0,0.0,0.0,0.0,0.0,0.0,0.0,0.0,0.0,0.0,0.0,0.0,0.0,0.0,0.0,0.0,0.0,0.0,0.0,0.0,0.0,0.0,0.0,0.0,0.0,0.0,0.0,0.0,0.0,0.0,0.0,0.0,0.0,0.0,0.0,0.0,0.0,0.0,0.0,0.0,0.0,0.0,0.0,0.0,0.0,0.0,0.0,0.0,0.0,0.0,0.0,0.0,2.2331,2.2974,2.4017,2.4842,2.5462,2.5256,2.5256,2.5493,2.4986,2.4206,0.0,0.0,0.0,0.0,0.0,0.0,0.0,0.0,0.0,0.0,0.0,0.0,0.0,0.0,0.0,0.0,0.0,0.0,0.0,0.0,0.0,0.0,0.0,0.0,0.0,0.0,0.0,0.0,1.4485,1.4916,1.5079,0.0,0.0,0.0,0.0,0.0,0.0,0.0,0.0,0.0,0.0,1.9521,2.0462,2.0335,0.0,0.0,2.0016,2.0117,2.0419,2.0278,2.0135,2.0099,1.9436,0.0,0.0,0.0,0.0,0.0,0.0,0.0,0.0,0.0,0.0,0.0,0.0,0.0,0.0,0.0,0.0,0.0,0.0,0.0,0.0,0.0,0.0,0.0,0.0,0.0,0.0,0.0,0.0,0.0,0.0,0.0,0.0,0.0,0.0,0.0,0.0,0.0,0.0,0.0,0.0,0.0,0.0,0.0,0.0,0.0,0.0,0.0,0.0,0.0,0.0,0.0,0.0,2.3095,2.3947,2.4538,2.533,2.6268,2.5715,2.5561,2.5837,2.5552,2.4967,0.0,0.0,0.0,0.0,0.0,0.0,0.0,0.0,0.0,0.0,0.0,0.0,0.0,0.0,0.0,0.0,0.0,0.0,0.0,0.0,0.0,0.0,0.0,0.0,0.0,0.0,0.0,0.0,1.5355,1.5777,1.5742,0.0,0.0,0.0,0.0,0.0,0.0,0.0,0.0,0.0,0.0,2.0014,2.1016,2.081,2.0579,2.072,2.0641,2.0702,2.1068,2.067,2.0374,2.0465,0.0,0.0,0.0,0.0,0.0,0.0,0.0,0.0,0.0,0.0,0.0,0.0,0.0,0.0,0.0,0.0,0.0,0.0,0.0,0.0,0.0,0.0,0.0,0.0,0.0,0.0,0.0,0.0,0.0,0.0,1.7356,0.0,0.0,0.0,0.0,0.0,0.0,0.0,0.0,0.0,0.0,0.0,0.0,0.0,0.0,0.0,0.0,0.0,0.0,0.0,0.0,0.0,0.0,2.3938,2.5227,2.5751,2.6405,2.7118,2.6822,2.6641,2.6657,2.6657,2.6269,2.5445,0.0,0.0,0.0,0.0,0.0,0.0,0.0,0.0,0.0,0.0,0.0,0.0,0.0,0.0,0.0,0.0,0.0,0.0,0.0,0.0,0.0,0.0,0.0,0.0,0.0,0.0,1.4946,1.5841,1.6481,0.0,0.0,0.0,0.0,0.0,0.0,0.0,0.0,0.0,0.0,1.9962,2.0463,2.1224,2.1289,2.1417,2.1864,2.1887,2.1805,2.168,2.1554,2.1252,0.0,0.0,0.0,0.0,0.0,0.0,0.0,0.0,0.0,0.0,0.0,0.0,0.0,0.0,0.0,0.0,0.0,0.0,0.0,0.0,0.0,0.0,0.0,0.0,0.0,0.0,0.0,1.9151,2.0084,0.0,0.0,0.0,0.0,0.0,0.0,0.0,0.0,0.0,0.0,0.0,2.4912,2.4929,0.0,0.0,0.0,0.0,0.0,0.0,0.0,0.0,0.0,0.0,0.0,0.0,2.4968,2.6089,2.604,2.661,2.7862,2.6859,2.6436,2.6683,2.6708,2.6328,2.5504,0.0,0.0,0.0,0.0,0.0,0.0,0.0,0.0,0.0,0.0,0.0,0.0,0.0,0.0,0.0,0.0,0.0,0.0,0.0,0.0,0.0,0.0,0.0,0.0,0.0,1.6394,0.0,0.0,0.0,0.0,0.0,0.0,0.0,0.0,0.0,0.0,0.0,2.0785,2.1159,2.1471,2.1888,2.2488,2.2268,2.1914,0.0,0.0,0.0,0.0,0.0,0.0,0.0,0.0,0.0,0.0,0.0,0.0,0.0,0.0,1.9045,1.8576,1.8448,1.8575,1.9002,0.0,0.0,0.0,0.0,0.0,0.0,0.0,0.0,0.0,0.0,0.0,0.0,0.0,0.0,2.1632,0.0,2.3011,0.0,0.0,0.0,0.0,0.0,0.0,0.0,0.0,2.637,2.6883,2.7285,2.7302,2.7176,0.0,2.6368,2.4613,0.0,0.0,0.0,0.0,0.0,0.0,0.0,0.0,2.604,2.7169,2.6799,2.7192,2.842,2.7099,2.6436,2.6683,2.6708,2.632,2.552,2.4068,2.2915,0.0,0.0,0.0,0.0,0.0,0.0,0.0,0.0,0.0,0.0,0.0,0.0,0.0,0.0,0.0,0.0,0.0,0.0,0.0,0.0,0.0,0.0,0.0,1.785,0.0,0.0,0.0,0.0,0.0,0.0,0.0,0.0,0.0,1.9658,2.054,2.1403,2.19,2.2115,2.2446,2.3047,0.0,0.0,0.0,0.0,0.0,0.0,0.0,2.274,2.3192,2.3293,2.3296,2.325,2.3458,2.3569,2.329,0.0,0.0,2.0364,2.0725,2.112,2.0769,2.1317,2.1793,2.1805,2.1964,2.1989,0.0,0.0,0.0,0.0,0.0,0.0,0.0,0.0,2.3308,2.3743,0.0,2.5163,0.0,0.0,0.0,0.0,0.0,2.5908,0.0,0.0,2.826,2.8963,2.8869,2.8869,2.8508,2.7844,2.7721,2.7283,2.6495,2.493,0.0,0.0,0.0,0.0,0.0,0.0,2.7132,2.8481,2.8092,2.8228,2.8916,2.7512,2.6725,2.6708,2.6708,2.6336,2.5587,2.5512,2.4743,2.3063,2.2172,0.0,0.0,0.0,0.0,0.0,0.0,0.0,0.0,0.0,0.0,0.0,0.0,0.0,0.0,0.0,0.0,0.0,0.0,0.0,0.0,1.8048,0.0,0.0,0.0,0.0,0.0,0.0,0.0,0.0,0.0,0.0,2.0565,2.0926,2.1359,2.1869,0.0,0.0,0.0,0.0,2.3299,2.3975,2.4018,2.4138,2.4574,2.4415,2.4402,2.497,0.0,0.0,2.549,2.5485,2.5257,2.4526,2.4378,2.3867,2.2313,2.3432,2.4029,2.2426,2.2818,2.3482,2.3568,2.3799,2.4136,2.3614,0.0,0.0,0.0,0.0,2.2115,2.3451,2.5768,2.6519,2.7192,2.7748,2.7973,0.0,0.0,0.0,0.0,0.0,0.0,2.8025,2.9061,2.9556,3.0038,3.0499,3.0526,3.0381,3.0171,2.9636,2.9272,2.9046,2.8056,2.668,2.5005,0.0,0.0,0.0,0.0,2.8203,2.9379,2.9137,2.8963,2.8993,2.801,2.7232,2.6708,2.6708,2.6598,2.6379,2.6353,2.5832,2.4737,2.4032,0.0,0.0,0.0,0.0,0.0,0.0,0.0,0.0,0.0,0.0,0.0,0.0,0.0,0.0,0.0,0.0,0.0,0.0,0.0,1.854,1.9478,2.0128,0.0,0.0,0.0,0.0,0.0,0.0,0.0,0.0,0.0,2.2082,2.2566,2.2764,0.0,0.0,2.3332,2.3925,2.4124,2.4251,2.4359,2.487,0.0,0.0,2.4794,2.5036,2.5218,2.5871,2.6572,2.7233,2.7322,2.7147,2.6544,2.6129,2.5577,2.4774,2.4633,2.4618,2.4117,2.4225,2.4425,2.4437,2.4559,2.4559,2.7142,2.4939,2.3684,2.3808,2.4842,2.4876,2.6085,2.808,2.8518,2.899,2.9437,2.958,2.9191,2.8388,2.7764,0.0,0.0,0.0,2.8932,3.0098,3.0098,3.0497,3.1173,3.119,3.119,3.1166,3.0751,3.0521,3.0521,2.9786,2.8718,2.7287,0.0,0.0,2.7398,2.8296,2.911,2.9852,2.9776,2.9597,2.9441,2.8687,2.8061,2.763,2.7596,2.7596,2.7543,2.7587,2.7332,2.6729,2.5628,2.447,0.0,0.0,0.0,0.0,0.0,0.0,0.0,0.0,0.0,0.0,0.0,1.8708,0.0,0.0,0.0,0.0,1.9157,1.9428,2.047,2.1172,0.0,0.0,0.0,0.0,0.0,0.0,0.0,2.2085,2.219,2.2447,2.2965,2.3248,2.3263,2.2846,2.3348,2.3893,2.4269,0.0,2.4797,2.4813,2.5262,2.5477,2.52,2.5362,2.5728,2.6333,2.7055,2.7715,2.8273,2.826,2.7921,2.7406,2.6851,2.6457,2.6309,2.6177,2.5946,2.5581,2.5837,2.6096,2.6096,2.6109,2.6008,3.0289,2.9299,2.6386,2.6019,2.7328,2.7354,2.826,2.9644,2.9661,2.9653,2.9696,3.0295,3.0119,2.9346,2.9235,0.0,2.917,2.9162,2.9559,3.0183,3.02,3.0548,3.119,3.119,3.119,3.119,3.119,3.119,3.1166,3.0514,3.0183,3.0156,2.9379,2.8925,2.8859,2.9539,2.9931,3.0008,3.0135,3.0176,3.0081,2.9373,2.8993,2.8976,2.8993,2.8921,2.8837,2.9006,2.8969,2.8673,2.6963,2.5979,2.5908,0.0,0.0,0.0,0.0,0.0,0.0,0.0,0.0,0.0,0.0,0.0,0.0,0.0,0.0,0.0,2.1591,0.0,2.2547,2.3025,0.0,0.0,0.0,2.3839,2.3762,2.3164,2.2892,2.311,0.0,0.0,2.3342,0.0,2.317,2.317,2.365,2.4092,2.4276,2.4776,2.5144,2.54,2.5432,2.564,2.6059,2.6059,2.6443,2.7704,2.8536,2.8762,2.8844,2.8605,2.8059,2.7482,2.6962,2.6786,2.7281,2.7764,2.7901,2.6886,2.7399,2.8047,2.7959,2.7921,2.7865,3.1188,3.0928,3.0191,2.9774,2.9613,2.9676,3.0199,3.1019,3.1026,3.1026,3.1034,3.1077,3.0974,3.0716,3.0695,3.0676,3.0685,3.0676,3.076,3.0937,3.0937,3.1021,3.119,3.119,3.119,3.119,3.119,3.119,3.12,3.1021,3.0937,3.0937,3.0738,3.0347,2.9796,2.9866,3.0222,3.089,3.0927,3.0666,3.0089,2.9373,2.8993,2.8993,2.8993,2.8984,2.8964,2.9523,2.9501,2.8807,2.7947,2.7045,2.6103,2.4311,0.0,0.0,0.0,0.0,0.0,0.0,0.0,0.0,0.0,2.1103,2.0942,0.0,2.2227,0.0,2.3212,2.3752,2.352,2.432,0.0,0.0,2.4742,2.4739,2.4946,2.464,2.4388,2.4297,2.4095,2.38,2.3437,2.3634,2.3775,2.3775,2.3901,2.4309,2.512,2.5503,2.5851,2.6256,2.6463,2.6648,2.6734,2.6756,2.7023,2.7945,2.8345,2.8596,2.8863,2.9202,2.9076,2.8166,2.7804,2.7779,2.7898,2.8711,2.907,2.8473,2.8235,2.8109,2.8109,2.8122,2.8122,3.1701,3.1662,3.1538,3.1211,3.0761,3.0885,3.1145,3.149,3.149,3.149,3.1488,3.1378,3.1283,3.1259,3.122,3.119,3.119,3.119,3.119,3.119,3.119,3.119,3.119,3.119,3.119,3.119,3.119,3.119,3.119,3.119,3.119,3.119,3.119,3.0997,3.0589,3.0507,3.0719,3.119,3.119,3.0987,3.0598,3.0202,2.9965,2.9965,2.9982,2.9982,2.9982,3.0362,3.0367,2.9878,2.8733,2.7847,2.7238,2.5366,2.4186,0.0,0.0,0.0,0.0,0.0,0.0,0.0,0.0,0.0,0.0,0.0,2.352,0.0,2.4503,2.4838,2.454,2.5262,2.576,2.5775,2.5694,2.569,2.5888,2.5519,2.5063,2.4567,2.4624,2.4428,2.3791,2.4114,2.4493,2.468,2.472,2.4921,2.5485,2.5912,2.627,2.6573,2.6709,2.6875,2.7086,2.6938,2.7173,2.8171,2.8346,2.8483,2.9151,2.9333,2.917,2.8587,2.8257,2.8169,2.8431,2.917,2.9669,2.9384,2.9076,2.8875,2.885,2.8863,2.8863,3.1887,3.1793,3.166,3.1509,3.1345,3.1528,3.1545,3.146,3.1469,3.1469,3.146,3.1349,3.1293,3.1276,3.1213,3.119,3.119,3.119,3.1251,3.1336,3.1336,3.1352,3.1352,3.1326,3.1302,3.119,3.119,3.119,3.119,3.119,3.119,3.119,3.119,3.119,3.119,3.119,3.119,3.119,3.119,3.119,3.119,3.119,3.119,3.119,3.119,3.119,3.119,3.119,3.119,3.1127,2.9401,2.8552,2.8762,2.642,2.5087,0.0,2.4356,0.0,0.0,0.0,0.0,0.0,0.0,0.0,0.0,2.4395,2.4962,2.5494,2.5554,2.5583,2.5685,2.6098,2.6476,2.67,2.6621,2.655,2.659,2.6054,2.5398,2.4652,2.499,2.4988,2.4295,2.4641,2.5145,2.5504,2.5862,2.6005,2.5891,2.6311,2.6629,2.66,2.66,2.6848,2.7145,2.6931,2.7153,2.8473,2.8543,2.8561,2.9465,2.9308,2.9019,2.8863,2.8612,2.8524,2.8957,2.9454,2.9771,2.9749,2.9716,2.9704,2.9704,2.9691,2.9779,3.1573,3.1388,3.1923,3.212,3.209,3.213,3.1791,3.1266,3.1249,3.1266,3.1266,3.123,3.122,3.122,3.121,3.119,3.119,3.119,3.1522,3.209,3.209,3.209,3.209,3.209,3.1775,3.1224,3.119,3.119,3.119,3.119,3.119,3.119,3.119,3.119,3.119,0.0,0.0,0.0,3.119,3.119,3.119,3.119,3.119,3.119,3.119,0.0,3.119,3.119,3.1151,3.1018,3.0099,0.0,0.0,0.0,0.0,0.0,0.0,0.0,0.0,0.0,0.0,0.0,2.5242,2.5109,2.5214,2.5334,2.5678,2.6309,2.6383,2.6593,2.7128,2.7268,2.7355,2.7382,2.6962,2.6814,2.7141,2.659,2.6095,2.596,2.5784,2.5492,2.5065,2.5236,2.5515,2.5777,2.69,2.7554,2.7009,2.7075,2.7153,2.7148,2.7123,2.7173,2.7273,2.7223,2.7532,2.8555,2.8844,2.8825,2.9082,2.9465,2.9408,2.9038,2.9227,2.9465,2.9603,2.9736,2.9788,2.9786,2.9779,2.9779,2.9779,2.9779,2.9779,3.2975,0.0,3.3817,3.4078,0.0,3.4496,3.4305,3.359,3.1936,3.1596,3.2273,3.228,3.2696,3.3362,3.3379,3.3362,3.3345,3.2994,3.3028,3.3359,3.3011,3.2841,3.2841,3.2841,3.2645,3.228,3.229,3.229,3.229,3.2307,3.228,3.229,3.1911,3.1752,3.1735,3.1386,3.119,3.119,3.119,3.119,3.119,3.119,3.119,3.119,0.0,0.0,0.0,0.0,0.0,0.0,0.0,0.0,0.0,0.0,0.0,2.8427,2.7924,2.7601,2.7576,2.7033,2.6698,2.6705,2.6609,2.6465,2.6135,2.6393,2.6734,2.7061,2.7106,2.7213,2.754,2.7585,2.7585,2.7572,2.7331,2.7218,2.7335,2.7076,2.68,2.6699,2.6777,2.6705,2.642,2.6816,2.7051,2.7049,2.751,2.7874,2.755,2.7913,2.8111,2.7463,2.7562,2.77,2.7695,2.7682,2.8072,2.9019,2.9076,2.9038,2.9296,2.9572,2.9691,2.9408,2.9616,2.9779,2.9779,2.9779,2.9779,2.9779,2.9779,2.9779,2.9779,2.9779,2.9779,3.4981,3.5571,3.6099,3.6295,3.6357,3.701,3.6971,3.6236,0.0,0.0,0.0,3.3916,3.4584,3.5694,3.5728,3.5672,3.5566,3.4968,3.477,3.4889,3.4286,3.392,3.3785,3.3785,3.3666,3.3396,3.3389,3.3389,3.3389,3.3389,3.3389,3.3328,3.2791,3.2446,3.2259,3.1691,3.1319,3.1217,3.119,3.119,3.119,3.119,3.119,3.119,3.119,3.119,3.119,3.119,3.119,3.1173,3.0504,3.0106,3.0026,2.9333,2.8903,2.8832,2.8239,2.8025,2.8318,2.7682,2.744,2.7745,2.7764,2.7482,2.6824,2.7285,2.7585,2.7585,2.7585,2.7585,2.7585,2.7585,2.7585,2.7585,2.7585,2.7581,2.7575,2.7539,2.7477,2.7434,2.7749,2.7982,2.7881,2.8215,2.8558,2.8463,2.8299,2.8063,2.8183,2.8643,2.8615,2.7939,2.8053,2.8242,2.8247,2.8247,2.8674,2.9541,2.9371,2.9258,2.9641,2.9779,2.9779,2.9754,2.9779,2.9779,2.9779,2.9779,2.9779,2.9779,2.9779,2.9779,2.9779,2.9779,2.9779,3.6986,3.6883,3.7584,3.7889,3.788,3.7995,3.7648,3.688,3.5572,3.5332,3.5883,3.5883,3.6004,3.62,3.6211,3.5989,3.5594,3.5481,3.5808,3.6462,3.6361,3.596,3.5306,3.5295,3.463,3.3463,3.3406,3.3389,3.3396,3.3413,3.3389,3.3396,3.3305,3.2916,3.2344,3.2192,3.1836,3.1217,3.119,3.119,3.119,3.119,3.119,3.119,3.119,3.119,3.119,3.119,3.119,3.119,3.1106,3.1009,3.0982,3.0746,3.0653,3.0606,3.0365,3.0079,2.9735,2.9148,2.8706,2.8484,2.847,2.8158,2.754,2.754,2.7585,2.76,2.7615,2.7585,2.7585,2.7615,2.763,2.7615,2.7615,2.7774,2.8183,2.8127,2.8202,2.8684,2.8612,2.8574,2.8679,2.864,2.8659,2.8707,2.9274,3.0074,3.0035,2.9227,2.8561,2.8738,2.8791,2.8781,2.8731,2.8775,2.9082,2.9679,2.9716,2.9628,2.9773,2.9779,2.9779,2.9779,2.9779,2.9779,2.9779,2.9779,2.9779,2.9779,2.9779,2.9779,2.9779,2.9779,2.9779,3.8726,3.9028,3.9779,4.0101,4.0118,4.0285,4.0177,3.9807,3.9116,3.8463,3.7927,3.793,3.8374,3.9074,3.8865,3.8625,3.8402,3.7748,3.7664,3.7951,3.7567,3.7212,3.6879,3.6862,3.649,3.5876,3.5847,3.5639,3.5267,3.525,3.503,3.4596,3.4201,3.3637,3.2933,3.2882,3.2747,3.2391,3.1596,3.119,3.119,3.119,3.119,3.119,3.119,3.119,3.119,3.119,3.1161,3.1102,3.1102,3.1035,3.0942,3.0865,3.0804,3.0716,3.0389,3.0124,2.9903,2.9772,2.9487,2.902,2.9012,2.8776,2.8184,2.8141,2.8141,2.8111,2.7824,2.7585,2.76,2.7916,2.8141,2.8141,2.8455,2.8732,2.8854,2.8806,2.8948,2.9384,2.9349,2.9388,2.9733,2.9686,2.9641,2.9697,3.0222,3.0564,3.066,2.9864,2.9113,2.9041,2.9201,2.9227,2.9007,2.9208,2.949,2.9767,2.9779,2.9779,2.9779,2.9779,2.9779,2.9779,2.9779,2.9779,2.9779,2.9779,2.9779,2.9779,2.9779,2.9779,2.9779,2.9779,2.9779,4.051,4.1117,4.1714,4.1967,4.2012,4.2246,4.2368,4.231,4.1937,4.1173,4.0185,4.0022,4.0584,4.156,4.1162,4.089,4.0674,3.972,3.9316,3.9341,3.8831,3.8462,3.8309,3.8292,3.8165,3.7939,3.791,3.7613,3.7105,3.7054,3.6738,3.6101,3.5385,3.4652,3.3903,3.3886,3.3801,3.3609,3.2679,3.2019,3.1698,3.1698,3.1691,3.1691,3.1698,3.1623,3.1471,3.1576,3.1516,3.1274,3.1227,3.1146,3.102,3.0979,3.09,3.0775,3.0746,3.0726,3.0793,3.1004,3.0916,3.0486,3.0217,2.9986,2.9739,2.942,2.9056,2.8637,2.8276,2.8094,2.8169,2.8515,2.8816,2.8846,2.921,2.9471,2.9525,2.9472,2.9583,2.9929,3.0002,3.0148,3.0482,3.0612,3.061,3.0707,3.0733,3.068,3.0709,3.0543,3.0072,2.9834,2.9758,2.9623,2.9195,2.9465,2.9741,2.9779,2.9779,2.9779,2.9779,2.9779,2.9779,2.9779,2.9779,2.9779,2.9779,2.9779,2.9779,2.9779,2.9779,2.9779,2.9779,2.9779,2.9779,4.2584,4.2692,4.2729,4.2801,4.2755,4.2808,4.2816,4.2816,4.2787,4.2733,4.2413,4.2115,4.194,4.2056,4.1635,4.1219,4.0825,4.0248,4.0221,4.0569,4.0558,4.0191,3.956,3.9525,3.8967,3.8084,3.7973,3.7961,3.7821,3.7787,3.7736,3.7606,3.6953,3.6197,3.5515,3.5414,3.5087,3.4449,3.4934,3.4545,3.3277,3.3203,3.3193,3.3203,3.3176,3.2882,3.2259,3.2727,3.2704,3.2068,3.1972,3.1903,3.1888,3.1794,3.1714,3.1759,3.2757,3.3536,3.3726,3.3819,3.3795,3.386,3.2766,3.2365,3.2771,3.1868,3.0448,2.925,2.9159,2.9397,2.9398,2.9488,2.9548,2.949,2.9487,2.9556,3.0047,2.9953,2.9987,3.0631,3.0527,3.0539,3.0583,3.0656,3.0858,3.1467,3.145,3.1527,3.1852,3.1521,3.1236,3.1322,3.0752,2.9896,2.9743,2.9748,2.9792,2.9779,2.9779,2.9779,2.9779,2.9779,2.9779,2.9779,2.9779,2.9779,2.9779,2.9779,2.9779,2.9804,2.9817,2.9829,2.9792,2.988,2.9917,4.291,4.291,4.291,4.291,4.291,4.291,4.291,4.291,4.291,4.291,4.29,4.2692,4.2614,4.2567,4.2118,4.1792,4.1587,4.1157,4.1024,4.1208,4.1219,4.1062,4.0778,4.0464,4.0076,3.9611,3.9333,3.8983,3.8531,3.8125,3.8108,3.843,3.7816,3.7702,3.8135,3.7403,3.7026,3.7156,3.7014,3.6659,3.605,3.5171,3.4478,3.41,3.4049,3.3711,3.3057,3.3121,3.3233,3.3309,3.3217,3.3356,3.37,3.3665,3.3626,3.3659,3.4139,3.4497,3.4598,3.5013,3.5121,3.4844,3.4007,3.353,3.3461,3.2587,3.1667,3.1087,3.0821,3.0582,3.0268,3.0493,3.0568,3.0269,3.0378,3.068,3.0847,3.079,3.0763,3.0807,3.0732,3.0687,3.0685,3.0917,3.1555,3.238,3.261,3.2642,3.279,3.2552,3.2298,3.1988,3.1132,3.0545,3.0387,3.0056,2.9856,2.9779,2.9779,2.9779,2.9779,2.9779,2.9779,2.9792,2.9829,2.9829,2.9779,2.9779,2.9792,2.9829,3.0131,3.0281,3.0281,3.0532,3.0696,4.291,4.291,4.291,4.291,4.291,4.291,4.291,4.291,4.291,4.291,4.291,4.291,4.291,4.2835,4.2408,4.2216,4.2136,4.171,4.1569,4.1667,4.1678,4.1678,4.1635,4.1208,4.0914,4.0742,4.0299,3.987,3.9489,3.9224,3.9258,3.9637,3.9129,3.9348,4.0147,3.9094,3.8751,3.9203,3.8751,3.8497,3.8345,3.7415,3.6383,3.552,3.5436,3.5053,3.4288,3.433,3.4477,3.4737,3.461,3.4738,3.516,3.5197,3.5379,3.576,3.581,3.5893,3.6075,3.6601,3.6722,3.6264,3.5545,3.4902,3.451,3.39,3.3559,3.3538,3.3123,3.2538,3.1539,3.1749,3.1809,3.142,3.175,3.1946,3.1872,3.1797,3.1633,3.1393,3.1418,3.1241,3.1252,3.1715,3.2454,3.3211,3.339,3.3504,3.3462,3.3335,3.2967,3.2452,3.1733,3.1161,3.0914,3.026,2.9876,2.9779,2.9779,2.9779,2.9779,2.9779,2.9955,3.0055,3.0005,3.0023,3.0118,3.0068,2.988,2.9892,3.0131,3.0475,3.05,3.0859,3.1122,4.291,4.291,4.291,4.291,4.291,4.291,4.291,4.291,4.291,4.291,4.2964,4.2964,4.2928,4.2972,4.26,4.2226,4.2157,4.1764,4.1785,4.2146,4.2167,4.2167,4.2136,4.1678,4.1242,4.0902,4.0471,4.0339,4.0667,4.1276,4.1748,4.167,4.1112,4.1022,4.1153,4.0472,4.0028,4.0197,4.0015,3.9977,3.9948,3.9859,3.9034,3.7826,3.7707,3.7209,3.6478,3.6925,3.6912,3.6133,3.5995,3.5943,3.5992,3.6025,3.6638,3.7785,3.8,3.8311,3.8821,3.8934,3.8944,3.8844,3.7667,3.7086,3.6849,3.6276,3.5922,3.613,3.5812,3.5125,3.3606,3.3245,3.3275,3.3155,3.3168,3.3136,3.3135,3.2785,3.2742,3.259,3.2376,3.2283,3.2382,3.3008,3.3285,3.349,3.3377,3.3481,3.4002,3.3673,3.3297,3.3087,3.2523,3.1801,3.1063,3.0279,2.9876,2.9895,2.996,2.9856,2.9798,2.9842,3.015,3.0344,3.0394,3.0425,3.0512,3.0419,3.0168,3.008,3.0068,3.0281,3.0758,3.0244,3.0708,4.291,4.291,4.291,4.291,4.291,4.291,4.291,4.291,4.291,4.32,4.3616,4.367,4.3942,4.4412,4.4273,4.3598,4.2688,4.2468,4.248,4.2653,4.2653,4.2653,4.2604,4.216,4.1878,4.1652,4.1202,4.0926,4.0824,4.1095,4.1533,4.1967,4.1511,4.1863,4.2909,4.213,4.1741,4.2066,4.1339,4.0811,4.076,4.0367,3.9787,3.9202,3.8816,3.82,3.7297,3.7436,3.7519,3.7599,3.7493,3.7615,3.8043,3.8109,3.8324,3.8821,3.8904,3.902,3.9265,3.9315,3.9315,3.9235,3.8434,3.791,3.7811,3.7309,3.6773,3.6514,3.643,3.5827,3.5052,3.4397,3.3964,3.3574,3.3468,3.3421,3.3253,3.3129,3.2988,3.2768,3.2592,3.2658,3.3109,3.3356,3.3663,3.3991,3.4015,3.413,3.4247,3.4096,3.3911,3.3828,3.3329,3.2702,3.2474,3.0803,2.9876,3.0165,3.0298,3.0356,3.0349,3.0416,3.0685,3.0521,3.0588,3.0512,3.0462,3.0161,3.0018,3.0018,3.0018,3.0419,3.1072,3.0846,3.157,4.367,4.367,4.367,4.3689,4.3661,4.367,4.367,4.3689,4.3689,4.3987,4.4431,4.4504,4.4802,4.5236,4.5291,4.4765,4.3697,4.3425,4.3155,4.291,4.291,4.291,4.2861,4.2679,4.259,4.2549,4.2289,4.1934,4.1671,4.1608,4.2145,4.3061,4.2449,4.2921,4.4135,4.3298,4.2946,4.3102,4.2185,4.1457,4.1187,4.0743,4.0261,3.9905,3.9484,3.8975,3.8313,3.8192,3.8308,3.86,3.8609,3.8788,3.9232,3.9315,3.9315,3.9315,3.9299,3.9315,3.9315,3.9315,3.9315,3.9299,3.8858,3.8572,3.8578,3.8166,3.7721,3.7377,3.689,3.6523,3.6056,3.5343,3.4637,3.4218,3.4081,3.4091,3.4159,3.4092,3.3912,3.3727,3.3623,3.3647,3.3792,3.4184,3.4387,3.447,3.4559,3.4675,3.4455,3.4397,3.4264,3.4045,3.3503,3.3003,3.2713,3.1628,3.123,3.1476,3.1465,3.1323,3.1354,3.1357,3.1107,3.0819,3.0586,3.0479,3.0249,2.9955,2.9867,2.988,3.0055,3.0394,3.1035,3.1695,3.2198,4.5236,4.5164,4.5273,4.5128,4.5073,4.5073,4.52,4.511,4.5146,4.5146,4.5291,4.5309,4.5399,4.5436,4.5588,4.5363,4.5091,4.453,4.3833,4.32,4.3109,4.3109,4.3135,4.3394,4.3477,4.3495,4.3425,4.3401,4.3269,4.3241,4.3719,4.4504,4.4124,4.4067,4.4609,4.385,4.3423,4.3338,4.2692,4.1999,4.1322,4.1204,4.075,4.0065,3.9884,3.9671,3.9411,3.9381,3.9295,3.9242,3.9262,3.9299,3.9299,3.9315,3.9315,3.9315,3.9315,3.9315,3.9315,3.9315,3.9315,3.9299,3.9265,3.9189,3.9155,3.9125,3.9028,3.8701,3.8026,3.7355,3.7164,3.6273,3.5507,3.5458,3.5224,3.5349,3.5798,3.5753,3.5477,3.5226,3.5043,3.5012,3.482,3.505,3.5285,3.4704,3.4791,3.4951,3.4499,3.4397,3.4045,3.3572,3.3451,3.3398,3.2959,3.259,3.2835,3.3043,3.2884,3.2799,3.2985,3.3014,3.2222,3.1798,3.0746,3.0561,3.0294,3.0018,3.0018,3.0068,3.0218,3.0595,3.1273,3.1926,3.2198,4.5291,4.5291,4.5291,4.5291,4.5291,4.5291,4.5291,4.5291,4.5291,4.5599,4.6059,4.6113,4.6421,4.6848,4.6939,4.6639,4.6132,4.5834,4.5319,4.4657,4.454,4.4504,4.4519,4.4644,4.4702,4.471,4.472,4.4538,4.4289,4.4189,4.4478,4.477,4.4448,4.4518,4.4963,4.4521,4.4228,4.4144,4.3453,4.2932,4.2611,4.1715,4.0998,4.0536,4.004,3.9655,3.9379,3.9461,3.9418,3.9329,3.9315,3.9315,3.9315,3.9315,3.9315,3.9315,3.9315,3.9315,3.9315,3.9315,3.9315,3.9315,3.9315,3.9315,3.9315,3.9315,3.9107,3.8761,3.8224,3.8038,3.7954,3.7234,3.6479,3.603,3.593,3.6031,3.6354,3.5924,3.5508,3.5351,3.4997,3.4632,3.4513,3.4963,3.5009,3.4632,3.469,3.4673,3.4499,3.447,3.438,3.4062,3.3994,3.3948,3.3779,3.3831,3.4158,3.4198,3.4085,3.4047,3.4312,3.3927,3.3197,3.2182,3.1159,3.0563,3.0263,3.0206,3.0231,3.0545,3.0901,3.1348,3.1825,3.2127,3.2353,4.6329,4.6206,4.6196,4.6186,4.6196,4.6186,4.6168,4.6196,4.6196,4.6486,4.6884,4.6939,4.721,4.7616,4.7689,4.7428,4.6983,4.6939,4.6675,4.6106,4.5472,4.5309,4.5363,4.5635,4.5743,4.5743,4.5743,4.5611,4.5307,4.5024,4.5139,4.5517,4.5079,4.4756,4.4893,4.4597,4.429,4.3796,4.3504,4.3271,4.2848,4.2047,4.129,4.0772,4.004,3.9557,3.9325,3.9379,3.9395,3.9312,3.9315,3.9315,3.9315,3.9315,3.9315,3.9315,3.9315,3.9315,3.9315,3.9315,3.9315,3.9315,3.9315,3.9315,3.9315,3.9315,3.913,3.9132,3.8857,3.8832,3.8953,3.8152,3.7419,3.7135,3.6632,3.6566,3.6675,3.6419,3.6017,3.581,3.543,3.4934,3.4542,3.4934,3.4951,3.4878,3.498,3.4951,3.4878,3.4791,3.4762,3.4661,3.4445,3.4512,3.4772,3.5056,3.5436,3.5346,3.5183,3.5184,3.5316,3.433,3.3451,3.198,3.0804,3.0498,3.0231,3.0419,3.0532,3.1039,3.1428,3.1675,3.1926,3.224,3.2491,4.8052,4.771,4.7671,4.758,4.7562,4.7572,4.7508,4.7616,4.7591,4.7562,4.7634,4.758,4.7634,4.7689,4.7689,4.7645,4.7671,4.7598,4.7544,4.7127,4.6323,4.5689,4.5798,4.6305,4.6558,4.6566,4.6576,4.6538,4.644,4.5926,4.5925,4.6691,4.5968,4.524,4.4622,4.4276,4.3554,4.2845,4.3054,4.2946,4.2388,4.2153,4.1665,4.0846,4.0077,3.9561,3.9342,3.9312,3.9329,3.9315,3.9315,3.9315,3.9315,3.9315,3.9315,3.9315,3.9315,3.9315,3.9315,3.9315,3.9315,3.9315,3.9415,3.9365,3.9467,3.9633,3.9871,4.0252,3.9874,3.9808,4.0035,3.9282,3.859,3.8428,3.7526,3.7072,3.7281,3.7273,3.6881,3.6475,3.6272,3.5894,3.4832,3.5604,3.5764,3.568,3.5807,3.5752,3.5462,3.5273,3.5378,3.52,3.4922,3.4983,3.52,3.5491,3.5781,3.5491,3.5447,3.552,3.5433,3.4429,3.3191,3.1753,3.0875,3.0543,3.0407,3.062,3.0871,3.1228,3.1524,3.1712,3.2085,3.2466,3.2641,4.8052,4.7717,4.7689,4.7689,4.7689,4.7689,4.7699,4.7689,4.7689,4.7689,4.7689,4.7689,4.7689,4.7689,4.7689,4.7689,4.7689,4.7689,4.7689,4.7663,4.7345,4.7073,4.7073,4.7246,4.7363,4.7345,4.7308,4.7381,4.7391,4.7065,4.7145,4.7399,4.6361,4.5619,4.5217,4.4016,4.3227,4.2822,4.2577,4.2536,4.2344,4.2183,4.1668,4.0879,4.0478,3.9964,3.9411,3.9315,3.9315,3.9315,3.9315,3.9315,3.9315,3.9315,3.9315,3.9315,3.9315,3.9315,3.9315,3.9315,3.9315,3.9365,3.9796,4.0097,4.013,4.0564,4.0895,4.1115,4.0944,4.1097,4.144,4.0779,3.9963,3.9119,3.8255,3.7791,3.7814,3.7564,3.7215,3.7027,3.662,3.6138,3.5952,3.5981,3.6257,3.6141,3.617,3.6199,3.5883,3.5897,3.6043,3.5738,3.552,3.5505,3.5622,3.5912,3.5927,3.5523,3.5385,3.5318,3.4896,3.4039,3.2699,3.1273,3.1179,3.0911,3.0853,3.0929,3.1198,3.1516,3.2077,3.2499,3.2663,3.2964,3.2939,4.8448,4.7951,4.8103,4.8073,4.796,4.7968,4.7866,4.772,4.7689,4.7689,4.7689,4.7689,4.7689,4.7689,4.7689,4.7689,4.7689,4.7689,4.7689,4.7689,4.7652,4.7634,4.7671,4.7689,4.7689,4.7689,4.7689,4.7689,4.7681,4.7689,4.7689,4.7563,4.6928,4.6143,4.5112,4.43,4.3059,4.2297,4.2056,4.215,4.2203,4.2313,4.2087,4.1465,4.1083,4.0404,3.9481,3.9315,3.9315,3.9315,3.9315,3.9315,3.9315,3.9315,3.9315,3.9315,3.9315,3.9315,3.9315,3.9315,3.9464,3.9746,4.0227,4.0511,4.0793,4.1226,4.1461,4.1825,4.1841,4.2183,4.2461,4.1876,4.0756,3.9614,3.8972,3.8527,3.8244,3.7912,3.7578,3.7317,3.6965,3.6573,3.6388,3.633,3.6475,3.6649,3.6736,3.6606,3.642,3.6577,3.662,3.6344,3.6159,3.6144,3.6014,3.6156,3.5999,3.561,3.5451,3.535,3.4892,3.4126,3.3388,3.2406,3.1843,3.1472,3.1629,3.1643,3.1642,3.2072,3.2754,3.304,3.309,3.3102,3.3102,4.899,4.8373,4.8685,4.8632,4.8354,4.8297,4.81,4.7814,4.772,4.7689,4.7689,4.7689,4.7689,4.7689,4.7689,4.7689,4.7689,4.7689,4.7689,4.7689,4.7689,4.7689,4.7689,4.7689,4.7689,4.7689,4.7689,4.7689,4.7689,4.7689,4.7689,4.7606,4.7512,4.6567,4.5273,4.456,4.3198,4.1859,4.1733,4.1884,4.2091,4.2437,4.2492,4.1905,4.1276,4.0499,3.9677,3.9352,3.9315,3.9315,3.9315,3.9315,3.9315,3.9315,3.9315,3.9315,3.9315,3.9315,3.9348,3.9431,3.9683,4.0213,4.0511,4.0829,4.1428,4.1742,4.209,4.2587,4.2605,4.2844,4.3033,4.2395,4.1232,4.0034,3.9502,3.8939,3.8412,3.8202,3.7999,3.7506,3.7418,3.7099,3.6751,3.6548,3.6718,3.7302,3.7346,3.7172,3.7085,3.7172,3.7186,3.7041,3.6896,3.678,3.6577,3.6402,3.6057,3.5709,3.5619,3.5507,3.5364,3.4835,3.4531,3.3919,3.2922,3.263,3.2861,3.2762,3.2298,3.2386,3.2893,3.304,3.3102,3.3102,3.3102,4.9123,4.8693,4.8772,4.8764,4.8658,4.842,4.8248,4.8149,4.7835,4.7689,4.7689,4.7689,4.7689,4.7689,4.7689,4.7689,4.7689,4.7689,4.7689,4.7689,4.7689,4.7689,4.7689,4.7689,4.7689,4.7689,4.7689,4.7689,4.7689,4.7689,4.7689,4.7634,4.72,4.6543,4.5995,4.4584,4.3511,4.2742,4.2134,4.176,4.2024,4.2782,4.2834,4.1904,4.1092,4.045,3.9941,3.9491,3.9312,3.9315,3.9315,3.9315,3.9315,3.9315,3.9315,3.9315,3.9315,3.9315,3.9415,3.9815,4.0213,4.0544,4.1375,4.2106,4.2255,4.2769,4.31,4.3367,4.3367,4.3324,4.3277,4.2444,4.146,4.0554,3.9786,3.9063,3.8393,3.8202,3.8101,3.8014,3.7955,3.7941,3.7748,3.7665,3.7781,3.7984,3.7883,3.7752,3.7738,3.7738,3.7651,3.752,3.7549,3.7404,3.7157,3.6867,3.6402,3.613,3.6003,3.6006,3.5862,3.5713,3.5466,3.474,3.3754,3.376,3.4097,3.2915,3.2243,3.2645,3.2977,3.3052,3.3102,3.3102,3.3102,4.9434,4.9123,4.9257,4.9233,4.9038,4.8713,4.8458,4.8248,4.7886,4.7689,4.7689,4.7689,4.7689,4.7689,4.7689,4.7689,4.7689,4.7689,4.7689,4.7689,4.7689,4.7689,4.7689,4.7689,4.7689,4.7689,4.7689,4.7689,4.7689,4.7689,4.7689,4.7689,4.7246,4.6892,4.654,4.5346,4.4634,4.3943,4.3296,4.2852,4.3068,4.3733,4.4046,4.2997,4.2068,4.1243,4.0608,3.9946,3.9563,3.9379,3.9345,3.9315,3.9315,3.9315,3.9315,3.9315,3.9315,3.9531,3.9846,4.018,4.0677,4.1326,4.2123,4.2587,4.2936,4.3414,4.3565,4.3615,4.3582,4.3553,4.3372,4.2912,4.1965,4.0877,4.0191,3.9376,3.8505,3.8202,3.8202,3.8202,3.8173,3.8173,3.8188,3.8202,3.8188,3.8101,3.8101,3.7984,3.7999,3.7999,3.797,3.7926,3.8043,3.7984,3.7723,3.736,3.6834,3.6664,3.6606,3.6718,3.6756,3.663,3.6485,3.5828,3.5262,3.5102,3.5096,3.3708,3.2545,3.2821,3.3052,3.309,3.3115,3.314,3.3128,4.9733,4.9506,4.9783,4.9733,4.9427,4.8978,4.8641,4.8354,4.7907,4.7689,4.7689,4.7689,4.7689,4.7689,4.7689,4.7689,4.7689,4.7689,4.7689,4.7689,4.7689,4.7689,4.7689,4.7689,4.7689,4.7689,4.7689,4.7689,4.7689,4.7689,4.7689,4.7689,4.7699,4.7327,4.682,4.6483,4.5877,4.4989,4.4507,4.4305,4.4507,4.5,4.5146,4.4742,4.3614,4.2549,4.1772,4.1069,4.0434,3.9887,3.9814,3.9761,3.9701,3.9362,3.9415,3.9464,3.9564,3.9912,4.0462,4.0763,4.1326,4.2471,4.2669,4.2951,4.3431,4.3549,4.3598,4.3583,4.3568,4.3509,4.3387,4.3082,4.2301,4.1229,4.0639,3.9768,3.8749,3.8296,3.8202,3.8202,3.8202,3.8202,3.8202,3.8202,3.8202,3.8217,3.8217,3.8231,3.8231,3.8231,3.8188,3.8115,3.8173,3.8478,3.8318,3.8536,3.7937,3.7545,3.7462,3.7491,3.7636,3.742,3.7325,3.7471,3.7144,3.661,3.5486,3.3904,3.314,3.3197,3.3102,3.3102,3.3128,3.3165,3.3241,4.9878,4.9817,4.9866,4.9878,4.9707,4.9093,4.8772,4.8595,4.8012,4.7699,4.7689,4.7689,4.7689,4.7689,4.7689,4.7689,4.7689,4.7689,4.7689,4.7689,4.7689,4.7689,4.7689,4.7689,4.7689,4.7689,4.7689,4.7689,4.7689,4.7689,4.7689,4.7689,4.7689,4.7526,4.729,4.691,4.6517,4.6065,4.5499,4.5201,4.5297,4.5619,4.5882,4.5659,4.4571,4.3828,4.3392,4.2864,4.2543,4.2418,4.2017,4.1794,4.1321,4.0201,3.9806,4.0094,4.0196,4.0511,4.1143,4.1759,4.2156,4.2603,4.3017,4.3333,4.3565,4.3615,4.3615,4.3568,4.3509,4.3434,4.3404,4.3114,4.2554,4.1673,4.0877,4.0102,3.9229,3.8657,3.8277,3.8221,3.8221,3.8202,3.8202,3.8202,3.8202,3.8289,3.8391,3.8405,3.842,3.8405,3.8376,3.8289,3.8188,3.8609,3.8928,3.9363,3.9349,3.8855,3.8623,3.842,3.842,3.8173,3.8134,3.8091,3.756,3.6651,3.5401,3.3997,3.3504,3.3347,3.325,3.3174,3.3404,3.3646,3.3746,4.9893,4.9893,4.9893,4.9893,4.9811,4.9335,4.8988,4.8737,4.8249,4.7878,4.7741,4.7689,4.7689,4.7689,4.7689,4.7689,4.7689,4.7689,4.7689,4.7689,4.7689,4.7689,4.7689,4.7689,4.7689,4.7689,4.7689,4.7689,4.7689,4.7689,4.7689,4.7689,4.7689,4.7689,4.7652,4.7363,4.7127,4.6944,4.6589,4.6289,4.6233,4.656,4.6536,4.6263,4.5587,4.4906,4.4441,4.3839,4.3359,4.3,4.2569,4.2355,4.1973,4.1341,4.0531,4.0876,4.0928,4.1212,4.1825,4.2357,4.262,4.3067,4.3431,4.3582,4.3615,4.3615,4.3568,4.3492,4.3447,4.3312,4.3144,4.2992,4.2491,4.1803,4.1195,4.0451,3.9591,3.903,3.8675,3.8371,3.8277,3.8244,3.8202,3.8202,3.8202,3.8318,3.8522,3.8609,3.8652,3.8623,3.8609,3.8594,3.8565,3.8899,3.9392,3.9944,4.0234,3.9886,3.961,3.9407,3.9247,3.903,3.8662,3.8431,3.7676,3.6974,3.5503,3.4221,3.3865,3.3658,3.3868,3.4032,3.4054,3.4135,3.4239,4.9893,4.9893,4.9893,4.9893,4.9838,4.9525,4.9171,4.8781,4.8448,4.8042,4.7731,4.7689,4.7689,4.7689,4.7689,4.7689,4.7689,4.7689,4.7689,4.7689,4.7689,4.7689,4.7689,4.7689,4.7689,4.7689,4.7689,4.7689,4.7689,4.7689,4.7689,4.7689,4.7689,4.7689,4.7652,4.7616,4.7689,4.7657,4.7554,4.75,4.7403,4.729,4.7185,4.7127,4.6411,4.5831,4.5499,4.5041,4.4566,4.407,4.3498,4.2983,4.2816,4.2247,4.1856,4.1825,4.1709,4.2026,4.2506,4.2738,4.305,4.3448,4.3565,4.3615,4.3615,4.3583,4.3553,4.3432,4.3342,4.3205,4.2992,4.2853,4.2492,4.2013,4.159,4.1111,4.0278,3.9644,3.9193,3.8863,3.8509,3.8479,3.8597,3.8318,3.8333,3.8681,3.8899,3.903,3.9059,3.8928,3.8913,3.8942,3.903,3.9305,3.9784,4.0408,4.0597,4.0472,4.0278,4.0133,4.0017,3.99,3.9444,3.894,3.8426,3.7591,3.6003,3.4895,3.4851,3.4844,3.4873,3.4754,3.4539,3.4625,3.4828,4.9893,4.9893,4.9893,4.9893,4.9845,4.9559,4.918,4.8772,4.8458,4.8062,4.7689,4.7689,4.7689,4.7689,4.7689,4.7689,4.7689,4.7689,4.7689,4.7689,4.7689,4.7689,4.7689,4.7689,4.7689,4.7689,4.7689,4.7689,4.7689,4.7689,4.7689,4.7689,4.7689,4.7689,4.7689,4.7689,4.7689,4.7678,4.7565,4.7425,4.729,4.7223,4.7145,4.7012,4.686,4.6696,4.6539,4.6303,4.6228,4.6159,4.5351,4.4957,4.478,4.3891,4.3466,4.315,4.2885,4.2702,4.3249,4.3365,4.3381,4.3582,4.3615,4.3615,4.3615,4.3598,4.3539,4.3419,4.3266,4.3068,4.2884,4.2744,4.2555,4.2301,4.1916,4.1607,4.1044,4.0414,3.996,3.9475,3.918,3.9172,3.9236,3.8811,3.8522,3.8913,3.9262,3.9421,3.9494,3.9407,3.9233,3.9247,3.9465,3.9741,4.0234,4.0858,4.1062,4.0989,4.0931,4.0844,4.0742,4.0552,3.9977,3.9469,3.9092,3.8573,3.7319,3.655,3.6182,3.5982,3.5935,3.5404,3.48,3.5035,3.5439,4.9893,4.9893,4.9893,4.9893,4.9872,4.9722,4.9335,4.885,4.8649,4.824,4.7783,4.7689,4.7689,4.7689,4.7689,4.7689,4.7689,4.7689,4.7689,4.7689,4.7689,4.7689,4.7689,4.7689,4.7689,4.7689,4.7689,4.7689,4.7689,4.7689,4.7689,4.7689,4.7689,4.7689,4.7689,4.7689,4.7689,4.7678,4.7625,4.7511,4.7381,4.7283,4.7205,4.7111,4.7043,4.7009,4.7009,4.7009,4.7009,4.6789,4.591,4.5316,4.5024,4.4268,4.3582,4.3549,4.3332,4.3299,4.3547,4.3613,4.3615,4.3615,4.3615,4.3615,4.3615,4.3583,4.3477,4.3235,4.3159,4.299,4.279,4.2665,4.2618,4.2476,4.2238,4.1932,4.1623,4.1309,4.0783,4.0297,3.9871,3.9919,3.9852,3.9436,3.9305,3.9712,4.0017,4.0191,4.0147,4.0002,3.9799,3.9567,3.9842,4.0162,4.0742,4.1337,4.1599,4.1613,4.1613,4.1526,4.1453,4.1172,4.0688,4.0738,4.0859,4.0027,3.8761,3.8242,3.7901,3.7444,3.6975,3.6646,3.6332,3.5835,3.6119,4.9893,4.9893,4.9893,4.9893,4.9893,4.9893,4.9562,4.8978,4.8833,4.844,4.7941,4.7752,4.7689,4.7689,4.7689,4.7689,4.7689,4.7689,4.7689,4.7689,4.7689,4.7689,4.7689,4.7689,4.7689,4.7689,4.7689,4.7689,4.7689,4.7689,4.7689,4.7689,4.7689,4.7689,4.7689,4.7689,4.7689,4.7689,4.7689,4.7604,4.7446,4.7341,4.7249,4.7156,4.7084,4.7009,4.7009,4.7009,4.7009,4.6801,4.6139,4.5554,4.5184,4.4454,4.3818,4.3686,4.3499,4.3663,4.3743,4.3759,4.3643,4.3615,4.3615,4.3583,4.3539,4.3522,4.3402,4.3099,4.3052,4.2899,4.2696,4.2602,4.2602,4.2602,4.2539,4.2206,4.1964,4.1896,4.154,4.0922,4.0612,4.0689,4.0509,4.0096,4.0104,4.051,4.0757,4.0902,4.0713,4.0437,4.0249,3.9973,4.0278,4.0568,4.0974,4.1526,4.1874,4.2092,4.2092,4.2034,4.1845,4.1845,4.1641,4.1878,4.2091,4.1545,4.0309,3.9968,3.9558,3.8482,3.7775,3.8256,3.8105,3.7371,3.6662,4.9893,4.9893,4.9893,4.9893,4.9893,4.9893,4.9679,4.9278,4.8954,4.8577,4.8121,4.7878,4.7689,4.7689,4.7689,4.7689,4.7689,4.7689,4.7689,4.7689,4.7689,4.7689,4.7689,4.7689,4.7707,4.7725,4.7833,4.7852,4.7808,4.8098,4.7898,4.7717,4.7808,4.7753,4.7689,4.7689,4.7689,4.7689,4.7678,4.7543,4.7396,4.7298,4.7198,4.7059,4.702,4.7009,4.7009,4.7009,4.6998,4.6957,4.6369,4.5852,4.5412,4.4691,4.415,4.3862,4.3628,4.3804,4.3962,4.3804,4.3628,4.3615,4.3615,4.3603,4.363,4.3516,4.3285,4.3204,4.3385,4.3129,4.2875,4.2651,4.2958,4.3039,4.3185,4.3057,4.288,4.28,4.2406,4.1618,4.1401,4.1512,4.1273,4.0871,4.0873,4.125,4.096,4.1076,4.0829,4.0583,4.0525,4.0466,4.0742,4.0974,4.112,4.1526,4.1961,4.2092,4.2092,4.2092,4.2034,4.2092,4.2092,4.208,4.2071,4.2005,4.192,4.1275,4.0418,3.9072,3.8585,3.9055,3.8877,3.8056,3.7279,4.9893,4.9893,4.9893,4.9893,4.9893,4.9893,4.9712,4.9365,4.8961,4.8458,4.7939,4.7772,4.7689,4.7689,4.7689,4.7689,4.7689,4.7689,4.7689,4.7689,4.7689,4.7689,4.7689,4.7761,4.7689,4.787,4.8141,4.8431,4.8485,4.8786,4.913,4.8985,4.8279,4.779,4.7689,4.7852,4.7797,4.774,4.7669,4.7515,4.7341,4.7249,4.7149,4.7002,4.7009,4.7009,4.7009,4.7009,4.7009,4.6876,4.6483,4.6132,4.5738,4.5021,4.4488,4.4121,4.3848,4.3835,4.3969,4.3793,4.363,4.3615,4.3631,4.3722,4.395,4.4017,4.4158,4.415,4.4105,4.3911,4.3978,4.3962,4.4059,4.3994,4.3897,4.3816,4.3751,4.3638,4.3372,4.2649,4.246,4.2474,4.212,4.1706,4.1802,4.1953,4.1541,4.1207,4.1033,4.0902,4.0902,4.0887,4.1134,4.1395,4.1541,4.1816,4.2092,4.2092,4.2092,4.2092,4.2092,4.2092,4.2092,4.2092,4.2092,4.203,4.2032,4.2071,4.1369,4.0207,3.976,3.9812,3.9351,3.872,3.8011,4.9893,4.9893,4.9893,4.9893,4.9893,4.9893,4.9769,4.951,4.9153,4.8568,4.7868,4.7783,4.7689,4.7689,4.7689,4.7689,4.7689,4.7689,4.7689,4.7797,4.7942,4.8015,4.8123,4.8351,4.8641,4.8568,4.8858,4.9246,4.9264,4.9829,4.9901,4.9593,4.9086,4.8641,4.8514,4.8395,4.8405,4.8373,4.8287,4.8149,4.8075,4.7712,4.7748,4.7645,4.7616,4.7437,4.7455,4.7437,4.7259,4.7024,4.669,4.6393,4.5983,4.5494,4.4913,4.4488,4.4181,4.396,4.4066,4.3755,4.385,4.4273,4.3995,4.4238,4.4496,4.4632,4.4623,4.4756,4.4838,4.4935,4.4852,4.4625,4.4561,4.4431,4.4464,4.4415,4.4447,4.4366,4.4145,4.3763,4.3507,4.3024,4.2644,4.2205,4.1976,4.2063,4.1889,4.1642,4.1555,4.1468,4.1453,4.1439,4.1482,4.1744,4.1976,4.2049,4.2092,4.2092,4.2092,4.2092,4.2092,4.2092,4.2092,4.2092,4.2092,4.2092,4.208,4.2096,4.1886,4.1472,4.0986,4.0389,4.0138,3.9505,3.8765,4.9893,4.9893,4.9893,4.9893,4.9893,4.9893,4.9872,4.9783,4.9434,4.8887,4.8209,4.7868,4.7689,4.7689,4.7689,4.7689,4.7689,4.7689,4.7689,4.7815,4.8359,4.8692,4.9028,4.9293,4.9528,4.9956,5.0082,5.0082,5.0064,5.0427,5.0408,5.039,5.0245,4.9919,5.0039,5.001,5.001,4.997,4.9739,4.9507,4.9202,4.8592,4.8572,4.8645,4.8419,4.8169,4.8151,4.8151,4.7937,4.7516,4.7368,4.7086,4.6671,4.6475,4.5836,4.4938,4.4736,4.4893,4.5351,4.4304,4.444,4.5075,4.4738,4.4594,4.5061,4.5146,4.5098,4.534,4.5177,4.5047,4.4917,4.4933,4.5046,4.5111,4.5176,4.5208,4.5273,4.5273,4.5077,4.4591,4.391,4.3338,4.2995,4.2613,4.2193,4.2092,4.2092,4.2034,4.1932,4.1889,4.1802,4.1787,4.1773,4.1874,4.2049,4.2063,4.2092,4.2092,4.2092,4.2092,4.2092,4.2092,4.2092,4.2092,4.2092,4.2092,4.2092,4.2071,4.1877,4.1675,4.1198,4.0745,4.0603,4.0202,3.9351,4.9893,4.9893,4.9893,4.9893,4.9893,4.9893,4.9886,4.9778,4.9273,4.873,4.8278,4.7886,4.7689,4.7689,4.7689,4.7689,4.7689,4.7689,4.7689,4.7797,4.854,4.8811,4.9155,4.9691,5.0137,5.0275,5.0517,5.0898,5.0898,5.1224,5.1604,5.1695,5.1387,5.1061,5.0372,5.0101,5.006,4.9938,4.9789,4.9663,4.9554,4.9221,4.9103,4.9364,4.9121,4.8942,4.8942,4.8925,4.8669,4.833,4.8247,4.8158,4.7928,4.7793,4.7256,4.6508,4.6249,4.6024,4.6134,4.5592,4.5442,4.5631,4.5287,4.5026,4.5636,4.5766,4.5878,4.6053,4.6002,4.6035,4.6228,4.6229,4.6278,4.6277,4.6326,4.6326,4.6342,4.6326,4.6109,4.5378,4.4669,4.3509,4.2866,4.2561,4.2201,4.2092,4.2092,4.2092,4.202,4.202,4.199,4.2005,4.2005,4.2034,4.2092,4.2092,4.2092,4.2092,4.2092,4.2092,4.2092,4.2092,4.2092,4.2092,4.2092,4.2092,4.2092,4.2071,4.1989,4.1752,4.1437,4.1339,4.1353,4.0696,3.9659,4.9893,4.9893,4.9893,4.9893,4.9872,4.9776,4.9657,4.9435,4.8885,4.8495,4.8248,4.7896,4.7689,4.7689,4.7689,4.7689,4.7689,4.7689,4.7689,4.7815,4.8521,4.88,4.9191,4.9919,5.0535,5.0716,5.1242,5.1731,5.1713,5.2208,5.2353,5.2335,5.248,5.1894,5.1249,5.1022,5.0947,5.0887,5.0789,5.0581,5.0378,5.0086,4.9906,5.0036,4.9947,4.9703,4.9703,4.9643,4.9476,4.9248,4.9038,4.9025,4.8901,4.8665,4.8181,4.7624,4.7117,4.6872,4.6849,4.6502,4.6492,4.7055,4.5814,4.5635,4.6239,4.6383,4.6526,4.6717,4.6894,4.6877,4.6861,4.6893,4.6893,4.6877,4.6861,4.6829,4.6812,4.6747,4.6662,4.5953,4.5206,4.3974,4.2804,4.2412,4.2113,4.2092,4.2092,4.2092,4.2092,4.2092,4.2092,4.2092,4.2092,4.2092,4.2092,4.2092,4.2092,4.2092,4.2092,4.2092,4.2092,4.2092,4.2092,4.2092,4.2092,4.2092,4.2092,4.2051,4.2009,4.2009,4.1933,4.1933,4.2086,4.1163,3.9964,4.9874,4.9893,4.9893,4.9893,4.9838,4.9533,4.918,4.8807,4.8458,4.8316,4.8286,4.7876,4.7689,4.7689,4.7689,4.7689,4.7689,4.7689,4.7689,4.7924,4.8521,4.8757,4.9372,5.0271,5.0644,5.1278,5.1737,5.1919,5.2353,5.2462,5.248,5.2498,5.2498,5.2251,5.2114,5.1943,5.1884,5.1718,5.1569,5.14,5.1225,5.0901,5.0882,5.0959,5.0839,5.0589,5.0518,5.05,4.9847,4.93,4.8722,4.8613,4.8522,4.8499,4.814,4.7764,4.7353,4.7477,4.7502,4.7114,4.7235,4.7611,4.6961,4.688,4.6825,4.6819,4.6831,4.6846,4.6893,4.6893,4.6893,4.6893,4.6893,4.6893,4.6893,4.6877,4.6893,4.6877,4.6877,4.6407,4.5733,4.468,4.3339,4.2688,4.2092,4.2092,4.2092,4.2092,4.2092,4.2092,4.2092,4.2092,4.2092,4.2092,4.2092,4.2092,4.2092,4.2092,4.2092,4.2092,4.2092,4.2092,4.2092,4.2092,4.2092,4.2092,4.2092,4.2092,4.2071,4.2092,4.2092,4.2092,4.2071,4.1275,4.0224,4.9381,4.9874,4.9893,4.9893,4.9811,4.9241,4.8893,4.8755,4.8458,4.8315,4.8277,4.7886,4.7699,4.7689,4.7689,4.7689,4.7689,4.7689,4.7689,4.7978,4.8413,4.8746,4.9246,4.9872,5.0336,5.0735,5.1187,5.1767,5.1821,5.2118,5.2498,5.2498,5.2486,5.2452,5.234,5.2222,5.2174,5.2114,5.1968,5.187,5.1778,5.143,5.1512,5.1476,5.144,5.1244,5.1244,5.1244,5.0693,5.0207,5.0052,4.9936,4.9406,4.9786,4.9849,4.9197,4.8691,4.8288,4.8007,4.7783,4.772,4.777,4.7325,4.714,4.705,4.6945,4.6893,4.6893,4.6893,4.6893,4.6893,4.6893,4.6893,4.6893,4.6893,4.6893,4.6893,4.6893,4.6893,4.6617,4.5983,4.4831,4.3541,4.2622,4.2107,4.2092,4.2092,4.2092,4.2092,4.2092,4.2092,4.2092,4.2092,4.2092,4.2092,4.2092,4.2092,4.2092,4.2092,4.2092,4.2092,4.2092,4.2092,4.2092,4.2092,4.2092,4.2092,4.2092,4.2092,4.2092,4.2107,4.2092,4.1933,4.1255,4.0814,4.8654,4.9381,4.9412,4.9459,4.9393,4.8976,4.8676,4.8374,4.8142,4.8052,4.804,4.7814,4.7689,4.7689,4.7689,4.7689,4.7689,4.7689,4.7689,4.7833,4.8203,4.8286,4.8666,4.9173,4.9546,4.9992,5.0644,5.1405,5.1502,5.2027,5.2498,5.2498,5.2463,5.2382,5.2275,5.2126,5.2029,5.1968,5.1895,5.1796,5.1728,5.169,5.169,5.169,5.169,5.169,5.169,5.169,5.138,5.0816,5.0667,5.0237,4.9729,4.9962,4.9922,4.9221,4.874,4.8288,4.8015,4.8,4.7787,4.7587,4.7487,4.7252,4.7065,4.6911,4.6893,4.6893,4.6893,4.6893,4.6893,4.6893,4.6893,4.6893,4.6893,4.6893,4.6893,4.6893,4.679,4.6633,4.5805,4.4665,4.3619,4.2703,4.2107,4.2092,4.2092,4.2092,4.2092,4.2092,4.2092,4.2092,4.2092,4.2092,4.2092,4.2092,4.2092,4.2092,4.2092,4.2092,4.2092,4.2092,4.2092,4.2092,4.2092,4.2121,4.2194,4.2107,4.2092,4.2179,4.2397,4.2542,4.2361,4.1696,4.1387,4.7858,4.8749,4.8787,4.8885,4.8803,4.8807,4.8412,4.7741,4.7741,4.771,4.771,4.7699,4.7689,4.7689,4.7689,4.7689,4.7689,4.7689,4.7689,4.7689,4.7815,4.7888,4.8069,4.8413,4.8739,4.9336,5.006,5.0821,5.1425,5.1993,5.244,5.2475,5.234,5.2264,5.218,5.2035,5.1919,5.187,5.179,5.1703,5.1703,5.169,5.169,5.169,5.169,5.169,5.169,5.1602,5.1401,5.0799,5.037,4.9993,4.9705,4.9336,4.9097,4.8915,4.8591,4.8275,4.8066,4.7951,4.777,4.7604,4.7486,4.7234,4.703,4.6911,4.6893,4.6893,4.6893,4.6893,4.6893,4.6893,4.6893,4.6893,4.6893,4.6893,4.6893,4.6893,4.6859,4.6582,4.5911,4.4831,4.409,4.3235,4.2366,4.2222,4.2092,4.2092,4.2092,4.2092,4.2092,4.2092,4.2092,4.2092,4.2092,4.2092,4.2092,4.2092,4.2092,4.2092,4.2092,4.2092,4.2092,4.215,4.2208,4.2266,4.231,4.244,4.2615,4.2673,4.289,4.31,4.2846,4.2445,4.2062,4.7365,4.8755,4.9355,4.9322,4.8823,4.8799,4.8384,4.772,4.7689,4.7689,4.7689,4.7689,4.7689,4.7689,4.7689,4.7689,4.7689,4.7689,4.7689,4.7689,4.7689,4.7689,4.7689,4.796,4.8069,4.8286,4.9018,5.0294,5.1279,5.1931,5.2281,5.2222,5.215,5.2114,5.2029,5.1895,5.1845,5.1765,5.1728,5.169,5.169,5.169,5.169,5.169,5.169,5.169,5.169,5.1678,5.1323,5.0843,5.0708,5.0324,4.985,4.9216,4.8929,4.8852,4.8654,4.8338,4.8033,4.7853,4.7688,4.752,4.7369,4.7166,4.6996,4.6944,4.6893,4.6893,4.6893,4.6893,4.6893,4.6893,4.6893,4.6893,4.6893,4.6893,4.6893,4.6893,4.6893,4.646,4.5893,4.5203,4.4491,4.3717,4.289,4.2412,4.2181,4.2092,4.2092,4.2092,4.2092,4.2092,4.2092,4.2092,4.2092,4.2092,4.2092,4.2092,4.2092,4.2092,4.2092,4.2208,4.231,4.2324,4.2368,4.2615,4.2948,4.3311,4.3463,4.3311,4.35,4.3768,4.4131,4.392,4.3272,4.6392,4.763,4.8464,4.8807,4.8754,4.8436,4.8025,4.7739,4.7689,4.7689,4.7689,4.7689,4.7689,4.7689,4.7689,4.7689,4.7689,4.7689,4.7689,4.7689,4.7689,4.7689,4.7689,4.7689,4.7743,4.7942,4.8963,5.0161,5.1356,5.1868,5.2162,5.2072,5.2036,5.1968,5.1882,5.1827,5.1778,5.1703,5.169,5.169,5.169,5.169,5.169,5.169,5.169,5.169,5.169,5.169,5.1521,5.1013,5.0659,4.9968,4.9366,4.8778,4.8528,4.8465,4.8386,4.8306,4.7951,4.7737,4.7571,4.7403,4.7285,4.7098,4.6961,4.6893,4.6893,4.6893,4.6893,4.6893,4.6893,4.6893,4.6893,4.6893,4.6893,4.6893,4.6893,4.6893,4.6893,4.6755,4.609,4.5295,4.4567,4.376,4.2975,4.2304,4.2113,4.2092,4.2092,4.2092,4.2092,4.2092,4.2092,4.2092,4.2092,4.2092,4.2092,4.2092,4.2092,4.2121,4.2165,4.2397,4.2542,4.2687,4.2934,4.3333,4.3681,4.3986,4.3957,4.3732,4.4066,4.4458,4.4843,4.5133,4.4633,4.5344,4.6151,4.6951,4.7695,4.8251,4.768,4.7436,4.75,4.7526,4.7598,4.7689,4.7689,4.7689,4.7689,4.7689,4.7689,4.7689,4.7689,4.7689,4.7689,4.7689,4.7689,4.7689,4.7689,4.7787,4.8283,4.92,5.0443,5.1736,5.1988,5.2054,5.2041,5.1968,5.187,5.1845,5.1765,5.169,5.169,5.169,5.169,5.169,5.169,5.169,5.169,5.169,5.169,5.169,5.169,5.169,5.1228,5.0542,4.9734,4.9036,4.8497,4.8227,4.8131,4.8065,4.7935,4.7754,4.7621,4.7437,4.7302,4.7217,4.7098,4.6944,4.6893,4.6893,4.6893,4.6893,4.6893,4.6893,4.6893,4.6893,4.6893,4.6893,4.6893,4.6893,4.6893,4.6893,4.6876,4.6303,4.5515,4.4627,4.3838,4.316,4.2459,4.2107,4.2092,4.2092,4.2092,4.2092,4.2092,4.2092,4.2092,4.2092,4.2092,4.2092,4.2092,4.2092,4.2136,4.231,4.2789,4.3123,4.3239,4.3529,4.3986,4.4218,4.4451,4.4349,4.4313,4.469,4.5119,4.5206,4.5482,4.57,4.4859,4.5461,4.626,4.656,4.6468,4.6285,4.6403,4.67,4.6747,4.7055,4.7544,4.7689,4.7689,4.7689,4.7689,4.7689,4.7689,4.7689,4.7689,4.7689,4.7689,4.7689,4.7689,4.7686,4.8023,4.8659,4.9377,5.0191,5.1479,5.1837,5.1882,5.1802,5.1778,5.1758,5.1728,5.169,5.169,5.169,5.169,5.169,5.169,5.169,5.169,5.169,5.169,5.169,5.169,5.169,5.169,5.1318,5.0528,4.9615,4.8931,4.8371,4.8082,4.7968,4.7886,4.777,4.7671,4.7471,4.7285,4.7184,4.7098,4.6996,4.6893,4.6893,4.6893,4.6893,4.6893,4.6893,4.6893,4.6893,4.6893,4.6893,4.6893,4.6893,4.6893,4.6893,4.6893,4.6893,4.672,4.5787,4.4793,4.409,4.3541,4.2879,4.2256,4.2221,4.2121,4.2107,4.2121,4.2107,4.2121,4.2092,4.2092,4.2107,4.2107,4.2092,4.2252,4.2557,4.2948,4.3463,4.3739,4.3834,4.4197,4.4683,4.4872,4.4988,4.5206,4.5264,4.5496,4.5743,4.5743,4.5729,4.5845]}]]